[[{"header":{"parameterUnit":"m.s-1","parameterCategory":1,"la1":30.6,"la2":29.2853,"lo1":-89.7004,"lo2":-87.6739,"dy":0.0162,"dx":0.0183,"nx":112,"ny":82,"refTime":"2026-04-29T00:00:00:Z","depth":0,"parameterNumber":2,"parameterNumberName":"U-component_of_WINDS"},"data":[0.0,0.0,0.0,0.0,0.0,0.0,0.0,0.0,0.0,0.0,0.0,0.0,0.0,0.0,0.0,0.0,0.0,0.0,0.0,0.0,0.0,0.0,0.0,0.0,0.0,0.0,0.0,0.0,0.0,0.0,0.0,0.0,0.0,0.0,0.0,0.0,0.0,0.0,0.0,0.0,0.0,0.0,0.0,0.0,0.0,0.0,0.0,0.0,0.0,0.0,0.0,0.0,0.0,0.0,0.0,0.0,0.0,0.0,0.0,0.0,0.0,0.0,0.0,0.0,0.0,0.0,0.0,0.0,0.0,0.0,0.0,0.0,0.0,0.0,0.0,0.0,0.0,0.0,0.0,0.0,0.0,0.0,0.0,0.0,0.0,0.0,0.0,0.0,0.0,0.0,0.0,1.4292,1.7196,1.8701,1.7969,1.7891,1.7196,1.5501,0.0,0.0,0.0,0.0,0.0,0.0,0.0,0.0,0.0,0.0,0.0,0.0,0.0,0.0,0.0,0.0,0.0,0.0,0.0,0.0,0.0,0.0,0.0,0.0,0.0,0.0,0.0,0.0,0.0,0.0,0.0,0.0,0.0,0.0,0.0,0.0,0.0,0.0,0.0,0.0,0.0,0.0,0.0,0.0,0.0,0.0,0.0,0.0,0.0,0.0,0.0,0.0,0.0,0.0,0.0,0.0,0.0,0.0,0.0,0.0,0.0,0.0,0.0,0.0,0.0,0.0,0.0,0.0,0.0,0.0,0.0,0.0,0.0,0.0,0.0,0.0,0.0,0.0,0.0,0.0,0.0,0.0,0.0,0.0,0.0,0.0,0.0,0.0,0.0,0.0,0.0,0.0,0.0,0.0,0.0,0.0,0.0,0.0,0.0,0.0,0.0,0.0,0.0,0.0,1.3701,1.678,1.8251,1.8944,1.8819,1.8791,1.8095,1.6408,0.0,0.0,0.0,0.0,0.0,0.0,0.0,0.0,0.0,0.0,0.0,0.0,0.0,0.0,0.0,0.0,0.0,0.0,0.0,0.0,0.0,0.0,0.0,0.0,0.0,0.0,0.0,0.0,0.0,0.0,0.0,0.0,0.0,0.0,0.0,0.0,0.0,0.0,0.0,0.0,0.0,0.0,0.0,0.0,0.0,0.0,0.0,0.0,0.0,0.0,0.0,0.0,0.0,0.0,0.0,0.0,0.0,0.0,0.0,0.0,0.0,0.0,0.0,0.0,0.0,0.0,0.0,0.0,0.0,0.0,0.0,0.0,0.0,0.0,0.0,0.0,0.0,0.0,0.0,0.0,0.0,0.0,0.0,0.0,0.0,0.0,0.0,0.0,0.0,0.0,0.0,0.0,0.0,0.0,0.0,0.0,0.0,0.0,0.0,0.0,0.0,0.0,0.0,1.3189,1.5515,1.7491,1.8906,1.9692,1.9698,1.885,1.7772,1.6582,1.4104,0.0,0.0,0.0,0.0,0.0,0.0,0.0,0.0,0.0,0.0,0.0,0.0,0.0,0.0,0.0,0.0,0.0,0.0,0.0,0.0,0.0,0.0,0.0,0.0,0.0,0.0,0.0,0.0,0.0,0.0,0.0,0.0,0.0,0.0,0.0,0.0,0.0,0.0,0.0,0.0,0.0,0.0,0.0,0.0,0.0,0.0,0.0,0.0,0.0,0.0,0.0,0.0,0.0,0.0,0.0,0.0,0.0,0.0,0.0,0.0,0.0,0.0,0.0,0.0,0.0,0.0,0.0,0.0,0.0,0.0,0.0,0.0,0.0,0.0,0.0,0.0,0.0,0.0,0.0,0.0,0.0,0.0,0.0,0.0,0.0,0.0,0.0,0.0,0.0,0.0,0.0,0.0,0.0,0.0,0.0,0.0,0.0,0.0,0.0,0.0,0.0,0.0,1.5219,1.7101,1.7927,1.9386,2.0212,2.0018,1.8771,1.7485,1.6273,1.4178,0.0,0.0,0.0,0.0,0.0,0.0,0.0,0.0,0.0,0.0,0.0,0.0,0.0,0.0,0.0,0.0,0.0,0.0,0.0,0.0,0.0,0.0,0.0,0.0,0.0,0.0,0.0,0.0,0.0,0.0,0.0,0.0,0.0,0.0,0.0,0.0,0.0,0.0,0.0,0.0,0.0,0.0,0.0,0.0,0.0,0.0,0.0,0.0,0.0,0.0,0.0,0.0,0.0,0.0,0.0,0.0,0.0,0.0,0.0,0.0,0.0,0.0,0.0,0.0,0.0,0.0,0.0,0.0,0.0,0.0,0.0,0.0,0.0,0.0,0.0,0.0,0.0,0.0,0.0,0.0,0.0,0.0,0.0,0.0,0.0,0.0,0.0,0.0,0.0,0.0,0.0,0.0,0.0,0.0,0.0,0.0,0.0,0.0,0.0,0.0,0.0,0.0,1.6082,1.7947,1.8824,1.9748,1.9961,1.9168,1.8977,1.7862,1.5442,1.4363,0.0,0.0,0.0,0.0,0.0,0.0,0.0,0.0,0.0,0.0,0.0,0.0,0.0,0.0,0.0,0.0,0.0,0.0,0.0,0.0,0.0,0.0,0.0,0.0,0.0,0.0,0.0,0.0,0.0,0.0,0.0,0.0,0.0,0.0,0.0,0.0,0.0,0.0,0.0,0.0,0.0,0.0,0.0,0.0,0.0,0.0,0.0,0.0,0.0,0.0,0.0,0.0,0.0,0.0,0.0,0.0,0.0,0.0,0.0,0.0,0.0,0.0,0.0,0.0,0.0,0.0,0.0,0.0,0.0,0.0,0.0,0.0,0.0,0.0,0.0,0.0,0.0,0.0,0.0,0.0,0.0,0.0,0.0,0.0,0.0,0.0,0.0,0.0,0.0,0.0,0.0,0.0,0.0,0.0,0.0,0.0,0.0,0.0,0.0,0.0,0.0,0.0,1.6174,1.8026,0.0,1.9772,2.015,1.9775,1.8784,1.7318,1.5264,0.0,0.0,0.0,0.0,0.0,0.0,0.0,0.0,0.0,0.0,0.0,0.0,0.0,0.0,0.0,0.0,0.0,0.0,0.0,0.0,0.0,0.0,0.0,0.0,0.0,0.0,0.0,0.0,0.0,0.0,0.0,0.0,0.0,0.0,0.0,0.0,0.0,0.0,0.0,0.0,0.0,0.0,0.0,0.0,0.0,0.0,0.0,0.0,0.0,0.0,0.0,0.0,0.0,0.0,0.0,0.0,0.0,0.0,0.0,0.0,0.0,0.0,0.0,0.0,0.0,0.0,0.0,0.0,0.0,0.0,0.0,0.0,0.0,0.0,0.0,0.0,0.0,0.0,0.0,0.0,0.0,0.0,0.0,0.0,0.0,0.0,0.0,0.0,0.0,0.0,0.0,0.0,0.0,0.0,0.0,0.0,0.0,0.0,0.0,0.0,0.0,0.0,1.4054,1.6578,1.8451,0.0,1.9946,2.0164,1.9815,1.8725,1.7209,1.5197,0.0,0.0,0.0,0.0,0.0,0.0,0.0,0.0,0.0,0.0,0.0,0.0,0.0,0.0,0.0,0.0,0.0,0.0,0.0,0.0,0.0,0.0,0.0,0.0,0.0,0.0,0.0,0.0,0.0,0.0,0.0,0.0,0.0,0.0,0.0,0.0,0.0,0.0,0.0,0.0,0.0,0.0,0.0,0.0,0.0,0.0,0.0,0.0,0.0,0.0,0.0,0.0,0.0,0.0,0.0,0.0,0.0,0.0,0.0,0.0,0.0,0.0,0.0,0.0,0.0,0.0,0.0,0.0,0.0,0.0,0.0,0.0,0.0,0.0,0.0,0.0,0.0,0.0,0.0,0.0,0.0,0.0,0.0,0.0,0.0,0.0,0.0,0.0,0.0,0.0,0.0,0.0,0.0,0.0,0.0,0.0,0.0,0.0,0.0,0.0,0.0,0.0,1.4871,1.7412,1.9336,2.0213,2.0308,1.9926,1.8999,1.8836,1.7724,0.0,0.0,0.0,0.0,0.0,0.0,0.0,0.0,0.0,0.0,0.0,0.0,0.0,0.0,0.0,0.0,0.0,0.0,0.0,0.0,0.0,0.0,0.0,0.0,0.0,0.0,0.0,0.0,0.0,0.0,0.0,0.0,0.0,0.0,0.0,0.0,0.0,0.0,0.0,0.0,0.0,0.0,0.0,0.0,0.0,0.0,0.0,0.0,0.0,0.0,0.0,0.0,0.0,0.0,0.0,0.0,0.0,0.0,0.0,0.0,0.0,0.0,0.0,0.0,0.0,0.0,0.0,0.0,0.0,0.0,0.0,0.0,0.0,0.0,0.0,0.0,0.0,0.0,0.0,0.0,0.0,0.0,0.0,0.0,0.0,0.0,0.0,0.0,0.0,0.0,0.0,0.0,0.0,0.0,0.0,0.0,0.0,0.0,0.0,0.0,0.0,0.0,0.0,1.4863,1.742,1.9327,2.0212,2.0308,2.017,1.9843,1.9145,1.7906,1.5965,0.0,0.0,0.0,0.0,0.0,0.0,0.0,0.0,0.0,0.0,0.0,0.0,0.0,0.0,0.0,0.0,0.0,0.0,0.0,0.0,0.0,0.0,0.0,0.0,0.0,0.0,0.0,0.0,0.0,0.0,0.0,0.0,0.0,0.0,0.0,0.0,0.0,0.0,0.0,0.0,0.0,0.0,0.0,0.0,0.0,0.0,0.0,0.0,0.0,0.0,0.0,0.0,0.0,0.0,0.0,0.0,0.0,0.0,0.0,0.0,0.0,0.0,0.0,0.0,0.0,0.0,0.0,0.0,0.0,0.0,0.0,0.0,0.0,0.0,0.0,0.0,0.0,0.0,0.0,0.0,0.0,0.0,0.0,0.0,0.0,0.0,0.0,0.0,0.0,0.0,0.0,0.0,0.0,0.0,0.0,0.0,0.0,0.0,0.0,0.0,0.0,0.0,1.5383,1.7939,1.9729,2.0231,2.0308,2.026,2.0164,1.9531,1.8449,1.6785,0.0,0.0,0.0,0.0,0.0,0.0,0.0,0.0,0.0,0.0,0.0,0.0,0.0,0.0,0.0,0.0,0.0,0.0,0.0,0.0,0.0,0.0,0.0,0.0,0.0,0.0,0.0,0.0,0.0,0.0,0.0,0.0,0.0,0.0,0.0,0.0,0.0,0.0,0.0,0.0,0.0,0.0,0.0,0.0,0.0,0.0,0.0,0.0,0.0,0.0,0.0,0.0,0.0,0.0,0.0,0.0,0.0,0.0,0.0,0.0,0.0,0.0,0.0,0.0,0.0,0.0,0.0,0.0,0.0,0.0,0.0,0.0,0.0,0.0,0.0,0.0,0.0,0.0,0.0,0.0,0.0,0.0,0.0,0.0,0.0,0.0,0.0,0.0,0.0,0.0,0.0,0.0,0.0,0.0,0.0,0.0,0.0,0.0,0.0,0.0,0.0,0.0,1.6173,1.871,2.0283,2.0281,2.0298,2.0223,2.0086,1.9899,1.9105,1.7491,0.0,0.0,0.0,0.0,0.0,0.0,0.0,0.0,0.0,0.0,0.0,0.0,0.0,0.0,0.0,0.0,0.0,0.0,0.0,0.0,0.0,0.0,0.0,0.0,0.0,0.0,0.0,0.0,0.0,0.0,0.0,0.0,0.0,0.0,0.0,0.0,0.0,0.0,0.0,0.0,0.0,0.0,0.0,0.0,0.0,0.0,0.0,0.0,0.0,0.0,0.0,0.0,0.0,0.0,0.0,0.0,0.0,0.0,0.0,0.0,1.4092,1.3199,0.0,0.0,0.0,0.0,0.0,0.0,0.0,0.0,0.0,0.0,0.0,0.0,0.0,0.0,0.0,0.0,0.0,0.0,0.0,0.0,0.0,0.0,0.0,0.0,0.0,0.0,0.0,0.0,0.0,0.0,0.0,0.0,0.0,0.0,0.0,0.0,0.0,0.0,0.0,0.0,1.6173,1.8647,2.0218,2.0217,2.0176,2.0084,1.9955,1.9806,1.9025,1.7416,1.626,0.0,0.0,0.0,0.0,0.0,0.0,0.0,0.0,0.0,0.0,0.0,0.0,0.0,0.0,0.0,0.0,0.0,0.0,0.0,0.0,0.0,0.0,0.0,0.0,0.0,0.0,0.0,0.0,0.0,0.0,0.0,0.0,0.0,0.0,0.0,0.0,0.0,0.0,0.0,0.0,0.0,0.0,0.0,0.0,0.0,0.0,0.0,0.0,0.0,0.0,0.0,0.0,0.0,0.0,0.0,0.0,0.0,0.0,0.0,1.6546,1.5576,0.0,0.0,0.0,0.0,0.0,0.0,0.0,0.0,0.0,0.0,0.0,0.0,0.0,0.0,0.0,0.0,0.0,0.0,0.0,0.0,0.0,0.0,0.0,0.0,0.0,0.0,0.0,0.0,0.0,0.0,0.0,0.0,0.0,0.0,0.0,0.0,0.0,0.0,0.0,0.0,1.6754,1.8826,2.0109,2.0106,2.0015,1.9907,1.981,1.9718,1.9122,1.7916,1.6952,0.0,0.0,0.0,0.0,0.0,0.0,0.0,0.0,0.0,0.0,0.0,0.0,0.0,0.0,0.0,0.0,0.0,0.0,0.0,0.0,0.0,0.0,0.0,0.0,0.0,0.0,0.0,0.0,0.0,0.0,0.0,0.0,0.0,0.0,0.0,0.0,0.0,0.0,0.0,0.0,0.0,0.0,0.0,0.0,0.0,0.0,0.0,0.0,0.0,0.0,0.0,0.0,0.0,2.1173,2.0639,1.9665,1.9578,1.9979,2.0659,1.9276,1.8384,1.7953,1.815,0.0,0.0,0.0,0.0,0.0,0.0,0.0,0.0,0.0,0.0,0.0,0.0,0.0,0.0,0.0,0.0,0.0,0.0,0.0,0.0,0.0,0.0,1.8668,1.8668,1.8668,1.8293,1.6911,0.0,0.0,0.0,0.0,0.0,0.0,0.0,0.0,0.0,0.0,0.0,1.7608,1.9267,2.0158,1.9984,1.9986,1.9916,1.9691,1.9624,1.9236,1.8414,1.7638,1.6577,0.0,0.0,0.0,0.0,0.0,0.0,0.0,0.0,0.0,0.0,0.0,0.0,0.0,0.0,0.0,0.0,0.0,0.0,0.0,0.0,0.0,0.0,0.0,0.0,0.0,0.0,0.0,0.0,0.0,0.0,0.0,0.0,1.0403,1.2576,0.0,0.0,0.0,0.0,0.0,0.0,0.0,0.0,0.0,0.0,0.0,0.0,0.0,1.4275,1.8251,2.0077,2.2192,2.4633,2.4633,2.3829,2.2278,2.1829,2.1925,2.2469,2.2248,0.0,1.8577,1.9554,0.0,0.0,0.0,0.0,0.0,0.0,0.0,0.0,0.0,0.0,0.0,0.0,0.0,0.0,0.0,0.0,0.0,0.0,0.0,0.0,0.0,0.0,2.2142,2.2142,2.2142,2.2082,2.1864,1.9517,1.7214,1.634,1.5434,1.452,0.0,0.0,0.0,0.0,0.0,0.0,1.8528,2.0091,2.0722,1.9912,2.0388,2.0447,1.9679,1.9546,1.9155,1.8279,1.8118,1.7634,1.673,1.5244,0.0,0.0,0.0,0.0,0.0,0.0,0.0,0.0,0.0,0.0,0.0,0.0,0.0,0.0,0.0,0.0,0.0,0.0,0.0,0.0,0.0,0.0,0.0,0.0,0.0,0.0,0.0,0.0,0.0,1.0633,1.2785,1.4288,1.4019,1.4289,0.0,0.0,0.0,0.0,0.0,0.0,0.0,0.0,0.0,1.8019,1.6409,1.7967,2.3057,2.3114,2.3845,2.5306,2.5306,2.4923,2.4233,2.4986,2.5448,2.5662,2.5662,2.4969,2.3793,2.3309,2.1559,1.9099,0.0,0.0,0.0,0.0,1.8982,2.0252,2.0487,2.0566,2.0643,2.1145,0.0,0.0,0.0,0.0,0.0,0.0,0.0,2.0615,2.1485,2.2256,2.2796,2.2796,2.2796,2.2796,2.2796,2.1654,2.0217,1.8881,1.7554,1.6376,1.5553,0.0,0.0,0.0,0.0,1.8303,1.9437,2.0885,2.1625,2.1147,2.0834,2.0514,2.0139,1.9654,1.9219,1.8845,1.8816,1.8464,1.7657,1.6935,1.5922,0.0,0.0,0.0,0.0,0.0,0.0,0.0,0.0,0.0,0.0,0.0,0.0,0.0,0.0,0.0,0.0,0.0,0.0,0.0,0.0,0.0,0.0,0.0,0.0,0.0,0.0,0.0,0.0,1.2767,1.4632,1.5712,1.5848,1.633,0.0,0.0,0.0,0.0,0.0,0.0,1.802,1.8678,1.9698,2.1215,1.9794,2.0832,2.4617,2.5941,2.6595,2.6595,2.6595,2.6595,2.6614,2.7042,2.7718,2.8545,2.8545,2.8545,2.8409,2.6676,2.4501,2.2233,2.2233,2.2233,2.2233,2.2078,2.2578,2.3387,2.3679,2.3911,2.42,2.4857,2.3892,2.2598,2.3235,0.0,0.0,0.0,0.0,2.2946,2.3602,2.393,2.4104,2.4104,2.4104,2.4104,2.4104,2.3757,2.2947,2.1272,1.9715,1.8486,1.7889,0.0,0.0,0.0,0.0,1.9873,2.061,2.1819,2.245,2.2107,2.1516,2.1059,2.0843,2.0282,1.9846,1.9624,1.9605,1.9255,1.8445,1.8205,1.7267,1.5466,0.0,0.0,0.0,0.0,0.0,0.0,0.0,0.0,0.0,0.0,0.0,0.0,0.0,0.0,0.0,0.0,0.0,0.0,0.0,0.0,0.0,0.0,0.0,0.0,0.0,0.0,0.0,0.0,0.0,1.7371,1.7564,0.0,0.0,0.0,0.0,1.8703,1.9582,2.0405,2.1214,2.2082,2.2951,2.3878,2.3028,2.2661,2.2912,2.7733,3.0133,3.0133,3.0133,3.0133,3.0037,2.6864,2.7191,3.0269,3.0269,3.0269,3.0135,2.8467,2.7662,2.7527,2.7527,2.7527,2.745,2.6867,2.7364,2.8154,2.6868,2.6949,2.7644,2.7682,2.6523,2.5114,2.5153,2.4582,0.0,0.0,2.5713,2.635,2.6408,2.7026,2.7643,2.7643,2.7643,2.7643,2.7643,2.635,2.4673,2.3007,2.1948,2.1292,2.1253,0.0,2.032,2.1127,2.1276,2.1554,2.228,2.2943,2.3,2.2096,2.2528,2.2552,2.1794,2.1704,2.1312,2.049,2.0433,2.0073,1.9277,1.85,1.8038,1.7928,1.5668,0.0,0.0,0.0,0.0,0.0,0.0,0.0,0.0,0.0,0.0,0.0,0.0,0.0,0.0,0.0,0.0,0.0,0.0,0.0,0.0,0.0,0.0,0.0,0.0,0.0,0.0,0.0,0.0,1.9234,1.9831,0.0,2.093,1.983,2.0193,2.2849,2.3346,2.4287,2.6038,2.5561,2.5641,2.6529,2.6582,2.6427,2.6086,2.8945,3.0402,3.0402,3.0402,3.0402,3.0364,2.9133,3.0441,3.3615,3.2503,3.2232,3.2538,3.1944,3.083,2.9445,2.8695,2.8407,2.8484,2.9,2.8751,2.8198,2.8199,2.8066,2.7893,2.7893,2.7835,2.7641,2.7121,2.6777,2.6606,2.6891,2.7199,2.7449,2.7449,2.7662,2.7893,2.7893,2.7893,2.7893,2.7893,2.741,2.6794,2.62,2.4045,2.2333,2.2333,2.2101,2.1989,2.2249,2.2652,2.3003,2.3196,2.3735,2.3952,2.3583,2.3211,2.288,2.2591,2.2104,2.1423,2.0564,2.0507,2.0146,1.9334,1.902,1.863,1.8111,1.7267,1.6058,0.0,0.0,0.0,0.0,0.0,0.0,0.0,0.0,0.0,0.0,0.0,0.0,0.0,0.0,0.0,0.0,0.0,0.0,0.0,0.0,0.0,0.0,0.0,0.0,0.0,0.0,1.9853,2.1003,2.162,2.2275,2.3144,2.2484,2.3038,2.5558,2.6172,2.7038,2.8367,2.7792,2.7718,2.8298,2.8926,2.9098,2.8756,2.9848,3.0402,3.0402,3.0402,3.0999,3.2115,3.2115,3.3038,3.4579,3.3619,3.3426,3.3788,3.3579,3.2617,3.1175,3.0405,3.0117,3.0213,3.0963,3.0543,2.9662,3.0201,3.0028,2.9585,2.9585,2.9951,3.0278,2.9759,2.9585,2.9585,2.9585,2.9392,2.918,2.918,2.8967,2.8736,2.8736,2.8736,2.8736,2.8736,2.8508,2.8298,2.8298,2.6027,2.408,2.4073,2.3813,2.3587,2.3484,2.3878,2.4111,2.3964,2.426,2.443,2.4346,2.3775,2.3394,2.3394,2.2928,2.2139,2.101,2.0937,2.0446,1.9352,1.9297,1.9056,1.8519,1.7963,1.6638,1.4492,0.0,0.0,0.0,0.0,0.0,0.0,0.0,0.0,0.0,0.0,0.0,0.0,0.0,0.0,0.0,0.0,0.0,0.0,0.0,0.0,0.0,0.0,0.0,1.7776,1.9291,2.1022,2.2642,2.2892,2.3259,2.4109,2.4907,2.5731,2.6619,2.7944,2.8501,2.8008,2.8721,2.9146,2.9146,2.9964,3.0402,3.0402,3.0402,3.0441,3.0556,3.0556,3.2288,3.55,3.5462,3.454,3.3006,3.3579,3.3827,3.3808,3.3216,3.2987,3.2987,3.291,3.2891,3.2891,3.2929,3.2949,3.2949,3.291,3.2891,3.2891,3.2891,3.2891,3.2891,3.2891,3.2891,3.2891,3.2891,3.2333,3.1735,3.1735,3.1098,3.0441,3.0441,3.0422,3.0402,3.0402,2.9737,2.9146,2.9146,2.7814,2.6669,2.6644,2.5883,2.5223,2.509,2.5005,0.0,2.4681,2.4544,2.4413,2.4245,2.4237,2.4229,2.4192,2.4192,2.3515,2.1906,2.1796,2.1043,1.937,1.9297,1.9297,1.9297,1.7741,1.6156,1.4565,0.0,0.0,0.0,0.0,0.0,0.0,0.0,0.0,0.0,0.0,0.0,0.0,0.0,0.0,0.0,0.0,0.0,0.0,0.0,0.0,0.0,1.7674,1.9598,1.9598,2.1583,2.3222,2.3684,2.4815,2.5659,2.5891,2.6678,2.7526,2.8354,2.8778,2.9198,2.9694,2.9925,3.004,3.004,3.0288,3.0402,3.0402,3.0402,3.1633,3.4096,3.4096,3.4596,3.5462,3.4635,3.4462,3.4752,3.4295,3.4447,3.5019,3.4848,3.479,3.4656,3.3389,3.2891,3.2987,3.3606,3.3837,3.3741,3.3123,3.2891,3.2891,3.2891,3.2891,3.2891,3.2891,3.2891,3.2891,3.2891,3.2737,3.2564,3.2564,3.1966,3.1349,3.1349,3.0867,3.0402,3.0402,3.0212,3.004,3.004,2.9159,2.8205,2.7575,2.7146,2.6824,2.6687,2.6482,0.0,2.6203,2.6089,2.5761,2.514,2.507,2.4821,2.4247,2.4192,2.3515,2.1906,2.1796,2.1043,1.937,1.9297,1.9297,1.9297,1.8296,1.7262,0.0,0.0,0.0,0.0,0.0,0.0,0.0,0.0,0.0,0.0,0.0,0.0,0.0,0.0,0.0,0.0,0.0,0.0,0.0,0.0,0.0,0.0,1.9598,2.1466,2.1832,2.3164,2.4223,2.4565,2.5774,2.6735,2.7101,2.7912,2.8758,2.9583,2.964,2.987,3.0364,3.0402,3.0402,3.0402,3.0402,3.0402,3.0402,3.1098,3.2444,3.4426,3.5154,3.55,3.5481,3.4808,3.4865,3.5462,3.4967,3.5023,3.55,3.55,3.55,3.5404,0.0,0.0,0.0,0.0,3.4737,3.468,3.4159,3.3984,3.3984,3.3984,3.3984,3.3984,3.3984,3.3984,3.3984,3.3984,3.3737,3.3431,3.3431,3.2835,3.2197,3.2197,3.1561,3.0944,3.0944,3.0654,3.0402,3.0402,2.9984,0.0,2.8906,2.8065,2.7408,2.7249,2.7005,2.6833,2.6774,2.6662,2.6426,2.5957,2.5595,2.5212,2.4748,2.4396,0.0,0.0,0.0,2.1716,2.0399,2.0346,0.0,0.0,0.0,0.0,0.0,0.0,0.0,0.0,1.5887,1.6692,0.0,0.0,0.0,0.0,0.0,0.0,0.0,0.0,0.0,0.0,0.0,0.0,0.0,0.0,0.0,0.0,2.1851,2.3222,2.3993,2.4185,2.4547,2.5346,2.6214,2.7082,2.795,2.8779,2.9565,3.0346,3.0402,3.0402,3.0402,3.0402,0.0,0.0,0.0,3.0499,3.0673,3.2159,3.3006,3.3218,3.4752,3.55,3.55,3.55,3.55,3.55,3.55,3.55,3.55,3.55,3.55,3.55,3.55,3.55,3.55,3.55,3.55,3.55,3.55,0.0,0.0,3.55,3.55,3.55,3.55,3.55,3.55,3.55,3.4947,3.4356,3.4356,3.37,3.3045,3.3045,3.2429,3.1832,3.1832,3.1232,3.0672,3.0686,3.0683,3.0581,3.0347,2.8841,2.7598,2.7401,2.7193,2.7022,2.6962,2.6909,2.6846,2.6754,2.6106,0.0,2.5542,2.4803,2.3988,2.3192,2.2972,2.2536,2.1833,2.1796,2.1796,2.1796,2.1049,2.0692,2.0782,2.0217,2.0382,2.1183,1.9487,1.9565,0.0,0.0,0.0,0.0,0.0,0.0,0.0,0.0,0.0,0.0,0.0,0.0,0.0,0.0,0.0,2.1079,2.2719,2.3916,2.407,2.466,2.5386,2.6253,2.7121,2.797,2.88,2.9639,3.0213,3.0385,3.0402,3.0402,3.0402,3.0402,3.0402,3.0402,3.0402,3.1059,3.2409,3.2737,3.3601,3.5002,3.5346,0.0,3.55,3.55,3.55,3.55,3.55,3.55,3.55,3.55,3.55,3.55,3.55,3.55,3.55,3.55,3.55,3.55,3.55,3.55,3.55,3.55,3.55,3.55,3.55,3.55,0.0,3.55,3.5386,3.5252,3.5252,3.4603,3.3954,3.3954,3.3296,3.2679,3.2679,3.2545,3.242,3.241,3.236,3.2055,3.1161,3.0023,2.9203,2.9066,2.8762,2.8568,2.8563,2.8531,2.8292,2.7643,2.7425,2.7077,2.6426,2.5629,2.4821,2.4025,2.2744,2.1959,2.1815,2.1796,2.1796,2.1796,2.1629,2.1879,2.2529,2.302,2.3699,2.4437,2.2221,2.2064,0.0,0.0,0.0,0.0,0.0,0.0,0.0,0.0,0.0,0.0,0.0,1.7099,1.9216,0.0,2.1832,2.2661,2.3872,2.4698,2.4698,2.5059,2.5614,2.6503,2.7372,2.8221,2.9011,2.9889,3.0402,3.0402,3.0402,3.0402,3.0402,3.0402,3.0402,3.0402,3.0827,3.1445,3.2293,3.3123,3.3989,3.4851,3.529,3.55,3.55,3.55,3.55,3.5519,3.5923,3.6098,3.6136,3.6561,3.6754,3.6754,3.6754,3.6233,3.5558,3.5942,3.6098,3.6156,3.66,3.6754,3.6754,3.6754,3.6754,3.6754,3.6754,3.6444,3.6098,3.6098,3.5808,3.55,3.55,3.5176,3.4851,3.4851,3.4181,3.3548,3.3548,3.322,3.2894,3.2859,3.2744,3.2329,3.1326,3.0597,2.9983,2.9475,2.9168,2.9002,2.9002,2.9002,2.8858,2.8442,2.8047,2.7643,2.7236,2.6468,2.5826,2.5438,2.4651,2.4192,2.4192,2.4192,2.4192,2.4192,2.4192,2.4392,2.4806,2.5215,2.5603,2.5975,2.5207,2.5066,0.0,0.0,0.0,0.0,0.0,0.0,0.0,0.0,1.5576,1.7947,1.8449,1.9179,2.1563,2.2583,2.3336,2.4184,2.4888,2.5306,2.5306,2.5306,2.5614,2.6503,2.7372,2.8277,2.9258,2.9984,3.0402,3.0402,3.0402,3.0402,3.0402,3.0402,3.0481,3.0654,3.133,3.1851,3.2179,3.3529,3.4281,3.4452,3.5157,3.55,3.55,3.55,3.55,3.5538,3.6348,3.679,3.7004,3.7717,3.8007,3.8007,3.8007,3.7178,3.6059,3.6713,3.6946,3.7042,3.7757,3.8007,3.8007,3.8007,3.8007,3.8007,3.8007,3.739,3.6694,3.6694,3.6117,3.55,3.55,3.55,3.55,3.55,3.4967,3.4451,3.4442,3.3876,3.3342,3.3251,3.3088,3.2636,3.166,3.1127,3.0458,2.9434,2.9121,2.9002,2.9002,2.9002,2.9002,2.9002,2.8424,2.7973,2.7808,2.7218,2.6775,2.6607,2.6607,2.6607,2.6607,2.6607,2.6607,2.6607,2.6607,2.668,2.6827,2.6827,2.6992,2.7323,2.7955,2.7842,1.3142,1.385,1.5442,1.7024,1.7352,1.7503,0.0,0.0,1.8932,2.0716,2.1061,2.164,2.3473,2.3897,2.4221,2.502,2.5249,2.5306,2.5306,2.5306,2.5614,2.6503,2.7372,2.8526,3.0098,3.0346,3.0402,3.0402,3.0402,3.0402,3.0402,3.0402,3.075,3.1522,3.1658,3.241,3.3915,3.4108,3.4585,3.5367,3.5442,3.55,3.55,3.55,3.55,3.5538,3.6348,3.7138,3.7853,3.7969,3.8007,3.8007,3.8007,3.7892,3.7738,3.7815,3.7853,3.7873,3.7969,3.8007,3.8007,3.8007,3.8007,3.8007,3.8007,3.739,3.6694,3.6694,3.6117,3.55,3.55,3.55,3.55,3.55,3.5423,3.5339,3.5285,3.5136,3.499,3.4789,3.4641,3.4217,3.3149,3.2182,3.1042,2.9458,2.909,2.9002,2.9002,2.9002,2.9002,2.9002,2.8929,2.8589,2.7863,2.7719,2.7365,2.6644,2.6607,2.6607,2.6607,2.6607,2.6607,2.6607,2.6607,2.6958,2.7661,2.7661,2.8395,2.9803,2.9895,2.9503,1.5767,1.6122,1.7177,0.0,1.9561,1.9561,2.0907,2.0813,2.0949,2.2663,2.3009,2.3373,2.4582,2.4793,2.4907,0.0,2.5306,2.5306,2.5306,2.5306,2.5614,2.6503,2.6928,2.7794,2.9486,3.0098,3.0402,3.0402,3.0402,3.0402,3.0402,3.0402,3.0809,3.1678,3.2159,3.2989,3.4185,3.4699,3.5138,3.55,3.55,3.55,3.55,3.55,3.6021,3.6965,3.7313,3.8219,3.9454,3.9454,3.9454,3.9454,3.9454,3.9454,3.9396,3.8934,3.8761,3.8819,3.9281,3.9454,3.9454,3.9454,3.9454,3.9454,3.9454,3.8529,3.7467,3.7467,3.6502,3.55,3.55,3.55,3.55,3.55,3.55,3.5465,3.5366,3.5266,3.5111,3.4926,3.4647,3.4144,3.3184,3.2186,3.1135,2.9953,2.9348,2.9002,2.9002,2.9002,2.9002,2.9002,2.9002,2.8858,2.8534,2.8497,2.835,2.8014,2.7999,2.7999,2.7999,2.7999,2.7999,2.7999,2.7999,2.8384,2.9203,2.9203,2.9772,3.0895,3.0895,3.0977,1.7905,1.8238,0.0,2.0984,2.1233,2.137,2.2836,2.2661,2.2641,2.4124,2.4432,2.4603,2.5192,2.5306,2.5306,2.5306,2.5306,2.5306,2.5306,2.5306,2.5537,2.6174,2.6445,2.7178,2.8625,2.9544,3.0136,3.0383,3.0402,3.0402,3.0402,3.0402,3.0905,3.2005,3.2602,3.343,3.4547,3.5176,3.55,3.55,3.55,3.55,3.5519,3.5731,3.6619,3.8007,3.8259,3.9165,4.0496,4.0496,4.0496,4.0496,4.0496,4.0496,4.0439,3.984,3.9629,3.9706,4.0304,4.0496,4.0496,4.0496,4.0496,4.0496,4.0496,3.9492,3.8355,3.8355,3.7313,3.6194,3.6194,3.6194,3.6135,3.5893,3.5825,3.5695,3.5302,3.5102,3.4947,3.4728,3.4403,3.3956,3.329,3.236,3.1534,3.0956,2.998,2.9244,2.9021,2.9002,2.9002,2.9002,2.9002,2.9002,2.9002,2.9002,2.9002,2.9002,2.9207,2.9335,2.9335,2.954,2.965,2.965,2.965,2.9947,3.0522,3.0522,3.0944,3.1736,3.1736,3.2155,1.8529,0.0,2.0424,2.1291,2.2121,2.2951,2.3859,2.4032,2.426,2.5096,2.5268,2.5268,2.5306,2.5306,2.5306,2.5306,2.5306,2.5306,2.5306,2.5306,2.5305,2.5345,2.6097,2.6948,0.0,2.8664,2.9488,3.0346,3.0402,3.0402,3.0402,3.0402,3.1155,3.2814,3.2891,3.3716,3.5442,3.5481,3.55,3.55,3.55,3.55,3.5538,3.6309,3.7157,3.8046,3.8896,3.9725,4.0496,4.0496,4.0496,4.0496,4.0496,4.0496,4.0496,4.0477,4.0458,4.0477,4.0496,4.0496,4.0496,4.0496,4.0496,4.0496,4.0496,3.9917,3.9263,3.9263,3.8625,3.7911,3.7911,3.7911,3.771,3.6864,3.6615,3.6273,3.5234,3.4908,3.4726,3.4462,3.4245,3.4046,3.3909,3.3137,3.2567,3.2531,3.1176,2.9873,2.9097,2.9002,2.9002,2.9002,2.9002,2.9002,2.9002,2.9002,2.9002,2.9002,2.9726,3.017,3.017,3.091,3.1335,3.1335,3.1335,3.1338,3.1354,3.1354,3.1773,3.2567,3.2567,3.2993,1.9544,0.0,2.1445,2.2874,2.3452,2.3876,2.4716,2.4907,2.4964,2.5249,2.4888,2.4679,2.5192,2.4869,2.4679,2.521,2.5306,2.5499,2.6078,2.6155,2.6387,2.6967,2.6773,0.0,0.0,0.0,0.0,3.0327,3.0402,3.0402,3.0402,3.0402,3.1175,3.2852,3.2891,3.3736,3.5481,3.55,3.55,3.55,3.55,3.5788,3.6309,3.6579,3.7486,3.8877,3.9165,3.9763,4.0496,4.0496,4.0496,4.0496,4.0496,4.0496,4.0496,4.0496,4.0496,4.0496,4.0496,4.0496,4.0496,4.0496,4.0496,4.0496,4.0496,3.9937,3.9302,3.9302,3.8663,3.8007,3.8007,3.8007,3.7895,3.7513,3.6891,3.6275,3.5768,3.5001,3.4367,3.4239,3.4042,3.3881,3.3832,3.3156,3.2424,3.188,3.0889,3.0093,2.9837,2.9797,3.0005,3.0543,3.0595,3.0595,3.0595,3.0595,3.0595,3.0595,3.0855,3.1002,3.1002,3.1265,3.1394,3.1394,3.1394,3.1663,3.2207,3.2207,3.2611,3.34,3.34,3.3837,2.0503,2.1562,2.27,2.3819,2.4318,2.466,2.5173,2.5306,2.5212,2.4931,2.4463,2.4163,2.4407,2.4257,2.4277,2.4781,2.5119,2.5595,2.6483,2.66,2.6928,2.7796,2.741,2.7603,0.0,0.0,0.0,3.0327,3.0402,3.0402,3.0402,3.0402,3.1175,3.2852,3.2891,3.3736,3.5481,3.55,3.55,3.55,3.5788,3.6194,3.6713,3.7352,3.824,3.9321,3.9609,4.0013,4.0496,4.0496,4.0496,4.0496,4.0496,4.0496,4.0496,4.0496,4.0496,4.0496,4.0496,4.0496,4.0496,4.0496,4.0496,4.0496,4.0496,4.0148,3.9725,3.9725,3.9338,3.889,3.8894,3.8879,3.8742,3.827,3.7619,3.6936,3.6403,3.5385,3.4566,3.4471,3.41,3.3807,3.3807,3.3363,3.2754,3.1953,3.1381,3.0956,3.0668,3.0635,3.0837,3.1338,3.1394,3.1394,3.1394,3.1394,3.1394,3.1394,3.1666,3.1828,3.1828,3.2103,3.2253,3.2253,3.2253,3.2504,3.3029,3.3029,3.3433,3.4222,3.4222,3.4677,2.1407,2.2873,2.4167,2.4167,2.4736,2.5306,2.5306,2.5268,2.5024,2.4258,2.4006,2.3693,0.0,0.0,2.3997,2.4093,2.4782,2.5615,2.6542,2.6677,2.7005,0.0,0.0,0.0,0.0,0.0,0.0,3.0327,3.0402,3.0402,3.0402,3.0441,3.1213,3.2852,3.2949,3.3774,3.5481,3.55,3.5519,3.5577,3.6348,3.6752,3.6888,3.8548,3.9321,3.9398,4.0167,4.0496,4.0496,4.0496,4.0496,4.0496,4.0496,4.0496,4.0496,4.0496,4.0496,4.0496,4.0496,4.0496,4.0496,4.0496,4.0496,4.0496,4.0496,4.0496,4.0496,4.0496,4.0496,4.0504,4.0495,4.0447,4.0135,3.9104,3.8652,3.8172,3.7097,3.6051,3.5314,3.5183,3.4453,3.3844,3.381,3.3807,3.3532,3.2788,3.2659,3.2369,3.1556,3.1464,3.1485,3.1522,3.1519,3.1519,3.1519,3.1519,3.1519,3.1519,3.2244,3.2659,3.2659,3.3381,3.3807,3.3807,3.3807,3.3807,3.3807,3.3844,3.4259,3.4997,3.5056,3.5521,2.3201,2.4198,2.4982,2.4982,2.5154,2.5306,2.5306,2.4831,2.4344,2.4144,2.2591,2.1602,0.0,0.0,0.0,2.39,2.4774,0.0,2.7353,2.7566,0.0,2.9598,0.0,2.9124,2.9984,2.9488,0.0,0.0,3.0402,3.0402,3.0402,3.1021,3.1832,3.2872,3.3529,3.4391,3.5481,3.55,3.5808,3.6406,3.6598,3.739,3.8644,3.9107,3.9629,4.0206,4.0419,4.0496,4.0496,4.0496,4.0496,4.0496,4.0496,4.0496,4.0496,4.0496,4.0496,4.0496,4.0496,4.0496,4.0496,4.0496,4.0496,4.0496,4.0496,4.0496,4.0496,4.0496,4.0496,4.0498,4.044,4.0295,4.007,3.9659,3.8783,3.796,3.7613,3.6748,3.6021,3.6005,3.5297,3.4494,3.3899,3.3807,3.3733,3.3528,3.3492,3.3198,3.2406,3.2295,3.2519,3.3109,3.3186,3.3186,3.3186,3.3186,3.3186,3.3186,3.3385,3.3492,3.3492,3.3697,3.3807,3.3807,3.3807,3.3807,3.3807,3.4402,3.4799,3.5019,3.5672,3.6417,2.3974,2.4698,2.5306,2.5306,2.5306,2.5213,2.4856,2.4428,2.3798,2.2705,2.1348,0.0,2.1166,2.1163,0.0,0.0,0.0,0.0,2.7083,2.7662,2.8374,0.0,2.9737,0.0,3.0346,2.9964,2.987,0.0,3.0402,3.0577,3.0944,3.1426,3.2237,3.3431,3.3933,3.4624,3.5481,3.55,3.5904,3.6694,3.7081,3.7988,3.9302,3.9667,4.0071,4.0496,4.0496,4.0496,4.0496,4.0496,4.0496,4.0496,4.0496,4.0496,4.0496,4.0496,4.0496,4.0496,4.0496,4.0496,4.0496,4.0496,4.0496,4.0496,4.0496,4.0496,4.0491,4.049,4.0472,4.0412,4.026,4.0105,3.9894,3.965,3.8976,3.8363,3.8269,3.7495,3.6714,3.6365,3.5598,3.4854,3.4402,3.4024,3.3807,3.3807,3.3807,3.3638,3.318,3.3121,3.3308,3.3752,3.3807,3.3807,3.3807,3.3807,3.3807,3.3807,3.3807,3.3807,3.3807,3.4134,3.4332,3.4332,3.4703,3.4893,3.4908,3.5345,3.5742,3.6116,3.66,3.7265,2.4262,2.4774,2.5306,2.5306,2.521,2.4968,2.426,2.3849,2.2989,2.0836,0.0,1.9712,1.912,1.9699,2.0739,2.2316,0.0,2.4645,2.6215,2.7276,2.8202,2.8992,2.987,3.0402,3.0402,3.0402,3.0442,3.0558,3.0577,3.0905,3.1658,3.1908,3.2756,3.4318,3.4375,3.4737,3.5481,3.55,3.5963,3.6888,3.764,3.8509,3.9475,4.0187,4.0496,4.0496,4.0496,4.0496,4.0496,4.0496,4.0496,4.0496,4.0496,4.0496,4.0496,4.0496,4.0496,4.0496,4.0496,4.0496,4.0496,4.0496,4.0496,4.0496,4.0496,4.0496,4.0504,4.0491,4.0439,4.0295,4.0032,3.983,3.9622,3.9337,3.9118,3.8935,3.8814,3.8198,3.7415,3.6622,3.5855,3.5261,3.5037,3.4516,3.4082,3.3972,3.4064,3.4082,3.3969,3.3862,3.3807,3.3807,3.3807,3.3844,3.3954,3.3969,3.4009,3.4119,3.4137,3.4137,3.4137,3.4806,3.5166,3.5166,3.5914,3.6306,3.6306,3.6417,3.6828,3.7492,3.7617,3.8036,2.5097,2.5192,2.5306,2.5306,2.4793,2.4269,2.4126,2.2473,0.0,0.0,1.8714,1.7436,1.8022,1.8787,1.9653,2.0664,0.0,0.0,0.0,0.0,2.8202,0.0,0.0,0.0,0.0,3.0402,0.0,0.0,3.1465,3.1542,3.1697,3.3008,3.4239,3.5232,3.5271,3.5348,3.55,3.55,3.6271,3.7777,3.793,3.8798,4.0304,4.0439,4.0496,4.0496,4.0496,4.0496,4.0496,4.0496,4.0496,4.0496,4.0496,4.0496,4.0496,4.0496,4.0496,4.0496,4.0496,4.0496,4.0496,4.0496,4.0496,4.0496,4.0496,4.0496,4.0498,4.0438,4.0286,4.0093,3.9892,3.9525,3.919,3.9086,3.8895,3.8746,3.8716,3.8605,3.8248,3.7456,3.7177,3.6637,3.5239,3.5488,3.5624,3.4894,3.5418,3.5605,3.4876,3.4204,3.3807,3.3807,3.3807,3.4079,3.4747,3.4784,3.5099,3.5829,3.5866,3.5866,3.5866,3.5991,3.6064,3.6064,3.6211,3.6306,3.6306,3.6975,3.7364,3.7529,3.8179,3.8579,2.5192,2.5306,2.5306,2.5306,2.4698,2.3869,2.3001,0.0,0.0,0.0,1.7484,1.6778,1.7197,1.7565,0.0,2.0123,2.1748,0.0,0.0,0.0,0.0,0.0,0.0,0.0,0.0,3.0808,3.1253,3.1678,3.2506,3.3008,3.3008,3.4199,3.5061,3.5481,3.55,3.55,3.55,3.5925,3.6754,3.8007,3.8452,3.9319,4.0496,4.0496,4.0496,4.0496,4.0496,4.0496,4.0496,4.0496,4.0496,4.0496,4.0496,4.0496,4.0496,4.0496,4.0496,4.0496,4.0496,4.0496,4.0571,4.1029,4.0877,4.0491,4.0505,4.0766,4.0944,4.0352,4.0366,4.0401,3.9711,3.9305,3.9014,3.892,3.8792,3.8703,3.8703,3.8703,3.8597,3.8197,3.7782,3.7232,3.6431,3.6303,3.6156,3.5745,3.6024,3.616,3.573,3.5345,3.4926,3.4476,3.4831,3.5257,3.5635,3.5672,3.5859,3.627,3.6306,3.6306,3.6306,3.6696,3.6916,3.6916,3.7334,3.7551,3.7551,3.794,3.8124,3.8127,3.852,3.8703,2.4869,2.5173,2.5268,2.5097,2.443,2.339,2.1721,2.0562,0.0,0.0,1.6519,1.6421,1.6418,1.6525,1.731,0.0,2.0679,2.1915,0.0,0.0,0.0,0.0,0.0,0.0,3.0402,3.1195,0.0,3.1947,3.3527,3.4472,3.4472,3.5138,3.55,3.55,3.55,3.55,3.55,3.6136,3.6965,3.8007,3.8682,3.9533,4.0496,4.0496,4.0496,4.0496,4.0496,4.0496,4.0496,4.0496,4.0496,4.0496,4.0496,4.0496,4.0496,4.0496,4.0496,4.0496,4.0496,4.0496,4.0646,4.1494,4.1325,4.081,4.0965,4.1372,4.1614,4.0712,4.0649,4.0637,3.9722,3.9221,3.8914,3.8803,3.8738,3.8703,3.8703,3.8703,3.8703,3.8703,3.8197,3.7694,3.7529,3.7121,3.6765,3.6582,3.6692,3.6747,3.6585,3.671,3.6486,3.5632,3.5987,3.6365,3.6549,3.6563,3.6637,3.6798,3.6802,3.6802,3.6802,3.743,3.7764,3.7764,3.8377,3.8703,3.8703,3.8703,3.8703,3.8703,3.8703,3.8795,2.4185,2.4736,2.5115,2.4394,2.3568,2.2505,2.0872,0.0,0.0,1.6878,1.6061,1.5526,1.5527,1.611,1.6934,1.7961,1.9417,2.0994,2.2688,0.0,0.0,0.0,0.0,0.0,3.0402,3.1195,3.2005,3.2737,3.4407,3.5386,3.5386,3.5462,3.55,3.55,3.55,3.55,3.55,3.5577,3.6406,3.8007,3.8084,3.8954,4.0496,4.0496,4.0496,4.0496,4.0496,4.0496,4.0496,4.0496,4.0496,4.0496,4.0496,4.0496,4.0496,4.0496,4.0496,4.0496,4.0496,4.0496,4.0621,4.1453,4.1698,4.1815,4.2472,4.2554,4.2366,4.2073,4.1205,4.0328,4.0162,3.9431,3.8716,3.87,3.8707,3.8703,3.8703,3.8703,3.8703,3.8703,3.8648,3.8358,3.7621,3.8032,3.823,3.7507,3.8014,3.8212,3.7474,3.8032,3.8175,3.736,3.6696,3.6604,3.7327,3.7382,3.7709,3.8428,3.8483,3.8483,3.8483,3.8557,3.8597,3.8597,3.8667,3.8703,3.8703,3.8703,3.8703,3.8703,3.8703,3.9093,2.3047,2.3545,2.372,2.3391,2.2692,2.1658,1.9982,0.0,1.7489,1.619,1.5639,1.5391,1.5391,1.5664,1.6168,1.7049,1.8529,2.0163,2.1836,2.4249,2.6136,2.7005,2.8602,0.0,0.0,0.0,3.2776,3.3625,3.4335,3.4718,3.4718,3.5213,3.55,3.55,3.55,3.55,3.55,3.5981,3.6811,3.8007,3.8529,3.9396,4.0496,4.0496,4.0496,4.0496,4.0496,4.0496,4.0496,4.0496,4.0496,4.0496,4.0496,4.0496,4.0496,4.0496,4.0496,4.0496,4.0496,4.0496,4.0714,4.1993,4.2322,4.2288,4.2578,4.2876,4.2939,4.2136,4.1814,4.149,4.0377,3.9399,3.8703,3.8703,3.8703,3.8703,3.8703,3.8703,3.8703,3.8703,3.8703,3.8593,3.827,3.8487,3.8597,3.827,3.8487,3.8575,3.8267,3.8501,3.8575,3.8267,3.7936,3.7863,3.8197,3.8215,3.8358,3.8685,3.8703,3.8703,3.8703,3.8703,3.8703,3.8703,3.8703,3.8703,3.8703,3.9184,3.9427,3.9423,3.9911,4.0314,2.1736,2.241,2.2745,2.2505,2.1831,2.0787,0.0,1.8107,1.7117,1.5689,1.5403,1.5391,1.5391,1.5391,1.5683,1.6556,1.7823,1.9307,2.1015,2.3377,2.5252,0.0,0.0,2.8838,0.0,3.1181,3.2795,3.3414,3.3915,3.4088,3.3837,3.4888,3.55,3.55,3.55,3.55,3.55,3.6058,3.6907,3.8007,3.8625,3.9473,4.0496,4.0496,4.0496,4.0496,4.0496,4.0496,4.0496,4.0496,4.0496,4.0496,4.0496,4.0496,4.0496,4.0496,4.0496,4.0496,4.0496,4.0496,4.0727,4.2071,4.2491,4.2506,4.2661,4.3152,4.3461,4.2598,4.2466,4.2234,4.0713,3.9862,3.9415,3.9415,3.9236,3.9052,3.9052,3.8868,3.8703,3.8703,3.8703,3.8703,3.8703,3.8703,3.8703,3.8703,3.8703,3.8703,3.8703,3.8703,3.8703,3.8703,3.8703,3.8703,3.8703,3.8703,3.8703,3.8703,3.8703,3.8703,3.8703,3.8703,3.8703,3.8703,3.8703,3.8813,3.9056,3.9629,4.0014,4.0271,4.0846,4.1228,2.0327,2.1543,2.2615,2.181,2.0954,1.9886,0.0,1.7238,1.6387,1.5572,1.5392,1.5391,1.5391,1.5391,1.5683,1.6556,1.7336,1.8416,2.0164,2.2545,0.0,0.0,0.0,2.8221,2.9011,3.068,3.1716,3.1735,3.326,3.3817,3.2968,3.4559,3.55,3.55,3.55,3.55,3.55,3.5519,3.6348,3.8007,3.8007,3.8894,4.0496,4.0496,4.0496,4.0496,4.0496,4.0496,4.0496,4.0496,4.0496,4.0496,4.0496,4.0496,4.0496,4.0496,4.0496,4.0496,4.0496,4.0496,4.0627,4.1364,4.1967,4.25,4.304,4.3569,4.3982,4.3908,4.3123,4.2121,4.1305,4.1081,4.1081,4.1081,4.0465,3.989,3.989,3.9258,3.8703,3.8703,3.8703,3.8703,3.8703,3.8703,3.8703,3.8703,3.8703,3.8703,3.8703,3.8703,3.8703,3.8703,3.8703,3.8703,3.8703,3.8703,3.8703,3.8703,3.8703,3.8703,3.8703,3.8703,3.8703,3.8703,3.8703,3.9093,3.989,3.9908,4.0304,4.1081,4.1099,4.1525,1.8273,1.8986,1.9326,1.9121,1.8852,1.8383,1.7325,1.6401,1.5534,1.4686,1.4506,1.4512,1.4509,1.5009,1.5486,1.5768,1.6924,1.8191,1.9352,0.0,0.0,2.4374,2.6509,2.8681,0.0,0.0,3.1291,3.2428,3.3008,3.345,3.3779,3.4888,3.55,3.55,3.55,3.55,3.55,3.55,3.604,3.7119,3.7719,3.8586,3.9706,4.0244,4.0496,4.0496,4.0496,4.0496,4.0496,4.0496,4.0496,4.0496,4.0496,4.0496,4.0496,4.0496,4.0496,4.0496,4.0496,4.0496,4.0602,4.1302,4.1434,4.1526,4.2713,4.3472,4.3888,4.3682,4.2996,4.2249,4.1988,4.1507,4.1099,4.1099,4.092,4.0575,4.0014,3.9706,3.935,3.8813,3.8703,3.8703,3.8703,3.8703,3.8703,3.8703,3.8703,3.8703,3.8703,3.8703,3.8703,3.8703,3.8703,3.8703,3.8703,3.8703,3.8703,3.8703,3.8703,3.8703,3.8703,3.8703,3.8703,3.8703,3.9239,3.9647,3.9908,4.1005,4.196,4.2745,4.2745,4.2878,1.5915,1.6846,1.7353,1.7402,1.7409,1.7201,1.6383,1.5533,1.466,1.3821,1.3886,1.4101,1.4107,1.4809,1.5401,1.5401,1.6742,1.8108,1.8947,0.0,0.0,2.5357,0.0,0.0,0.0,3.0811,3.1328,3.2372,3.3027,3.3625,3.4165,3.5024,3.55,3.55,3.55,3.55,3.55,3.5467,3.5877,3.6674,3.7198,3.8051,3.9191,3.9713,4.0093,4.0394,4.0412,4.0431,0.0,4.0482,4.05,4.0496,4.0496,4.0496,4.0496,4.0496,4.0496,4.0492,4.0494,4.0686,4.098,4.1272,4.1453,4.1666,4.2486,4.3206,4.3718,4.3553,4.3139,4.2749,4.2749,4.2378,4.2007,4.2007,4.1768,4.1419,4.0914,4.0565,4.019,3.969,3.9617,3.9617,3.9617,3.9617,3.9617,3.9617,3.9617,3.9492,3.9184,3.9148,3.9038,3.8722,3.8703,3.8703,3.8703,3.8703,3.8703,3.8703,3.8703,3.8832,3.9148,3.9148,3.9294,3.9599,4.0102,4.0506,4.0803,4.2125,4.3006,4.3506,4.3506,4.3506,0.0,1.5109,1.6436,1.6496,1.6473,1.6228,1.5476,1.4595,0.0,1.3047,1.3496,1.4022,1.4091,1.4854,1.5492,1.549,1.6897,1.8235,0.0,2.2038,0.0,0.0,2.8644,0.0,2.926,3.0757,3.1755,3.187,3.3317,3.4223,3.43,3.5059,3.5495,3.5493,3.549,3.5491,3.55,3.5421,3.5765,3.6493,3.6487,3.7322,3.8866,3.8921,3.9408,4.0156,4.0236,4.0316,4.0375,4.0458,4.0487,4.0496,4.0496,4.0496,4.0496,4.0496,4.0496,4.0508,4.0552,4.1029,4.1523,4.1239,4.1846,4.2638,4.2308,4.2823,4.3506,4.3506,4.3506,4.3506,4.3506,4.3506,4.3506,4.3506,4.2933,4.2378,4.2304,4.1713,4.1173,4.1118,4.1099,4.1099,4.1099,4.1099,4.1099,4.1099,4.1099,4.0828,4.0088,3.9996,3.9702,3.8942,3.8868,3.8868,3.8868,3.8777,3.8703,3.8703,3.8758,3.9129,3.9871,3.9945,4.0341,4.1081,4.1154,4.158,4.2396,4.3139,4.3506,4.3506,4.3506,4.3506,1.1873,0.0,1.4852,1.5518,1.5184,1.4648,0.0,1.3255,1.2324,1.2793,0.0,1.3378,1.3993,1.5327,1.6329,1.6324,1.8236,1.9776,1.9968,0.0,0.0,2.8529,2.8973,2.9625,3.0968,3.1466,3.2237,3.3529,3.3973,3.4489,3.5157,3.5339,3.5405,3.5357,3.5346,3.5393,3.5498,3.5377,3.5367,3.5456,3.6015,3.673,3.7565,3.8233,3.8983,3.9751,3.9875,4.0015,4.0182,4.0307,4.0413,4.0496,4.0496,4.0496,4.0496,4.0496,4.0496,4.0579,4.1159,4.1348,4.127,4.0701,4.1469,4.2468,4.1622,4.2378,4.3506,4.3506,4.3506,4.3506,4.3506,4.3506,4.3506,4.3506,4.3359,4.3043,4.2433,4.2153,4.1837,4.1228,4.1099,4.1099,4.1099,4.1099,4.1099,4.1099,4.1099,4.1026,4.0846,4.0828,4.0755,4.0567,4.053,4.053,4.053,3.9415,3.8703,3.8703,3.928,3.9706,3.989,4.0483,4.092,4.1099,4.169,4.2415,4.3231,4.3414,4.3506,4.3506,4.3506,4.3506,1.1841,1.2859,1.3743,1.4583,1.4458,1.4003,1.3628,0.0,0.0,0.0,0.0,1.371,1.4541,1.5746,1.6843,1.7629,1.9189,2.0975,0.0,0.0,2.7696,2.9486,3.0046,3.0661,3.1601,3.2391,3.322,3.4127,3.4566,3.5005,3.5462,3.5409,3.5306,3.5207,3.5144,3.5194,3.5358,3.524,3.5092,3.4973,3.5296,3.599,3.6982,3.7457,3.8324,3.9473,3.965,3.983,4.0017,4.0189,4.0356,4.0496,4.0496,4.0496,4.0492,4.0492,4.0716,4.1057,4.1351,4.1724,4.1999,4.1548,4.2152,4.2883,4.1942,4.2525,4.3506,4.3506,4.3506,4.3506,4.3506,4.3506,4.3506,4.3506,4.3506,4.3378,4.2933,4.2841,4.2712,4.2282,4.219,4.219,4.219,4.219,4.219,4.219,4.219,4.2062,4.169,4.1654,4.1507,4.1136,4.1099,4.1099,4.1099,4.0292,3.98,3.98,4.0208,4.0616,4.0987,4.1419,4.1823,4.2194,4.2635,4.3065,4.3506,4.3506,4.3506,4.3506,4.3506,4.3506,1.2432,1.2995,1.3273,1.4081,1.4199,1.3926,1.3242,0.0,0.0,0.0,0.0,0.0,0.0,1.6473,0.0,0.0,0.0,0.0,2.6427,2.82,2.9412,3.0308,3.1059,3.1599,3.1851,3.3162,3.4106,3.4375,3.5075,3.549,3.5463,3.5323,3.5195,3.5064,3.4921,3.4938,3.5085,3.498,3.4851,3.4718,3.458,3.523,3.6525,3.6655,3.7574,3.9032,3.9377,3.9657,3.9872,4.0074,4.0304,4.0496,4.0496,4.0496,4.0508,4.0625,4.1038,4.1552,4.1537,4.2247,4.3077,4.2746,4.3078,4.3418,4.2564,4.2859,4.3506,4.3506,4.3506,4.3506,4.3506,4.3506,4.3506,4.3506,4.3506,4.3506,4.3506,4.3506,4.3506,4.3506,4.3506,4.3506,4.3506,4.3506,4.3506,4.3506,4.3506,4.3249,4.2561,4.2488,4.2213,4.1544,4.147,4.147,4.147,4.147,4.147,4.147,4.136,4.1635,4.2451,4.2488,4.2804,4.3488,4.3506,4.3506,4.3506,4.3506,4.3506,4.3506,4.3506,4.3561,1.2434,1.3405,1.4114,1.4995,1.4642,1.4076,1.3939,0.0,0.0,0.0,0.0,0.0,0.0,1.8323,1.9888,0.0,0.0,2.5501,0.0,0.0,2.9412,3.0308,3.0519,3.1155,3.2583,3.2949,3.3718,3.5194,3.5376,3.5381,3.5329,3.5144,3.4971,3.4844,3.4714,3.4618,3.4526,3.4556,3.4489,3.4297,3.4205,3.4552,3.5307,3.6038,3.6892,3.7823,3.8769,3.9358,3.9662,3.9927,4.0225,4.0496,4.0496,4.0496,4.0581,4.1193,4.1396,4.1462,4.2293,4.3092,4.3609,4.2675,4.2883,4.3354,4.2547,4.2859,4.3506,4.3506,4.3506,4.3506,4.3506,4.3506,4.3506,4.3506,4.3506,4.3506,4.3506,4.3506,4.3506,4.3506,4.3506,4.3506,4.3506,4.3506,4.3506,4.3506,4.3506,4.3451,4.3322,4.3322,4.3267,4.3139,4.3135,4.3135,4.3135,4.3135,4.3135,4.3135,4.2488,4.2488,4.3286,4.3322,4.3378,4.3506,4.3506,4.3506,4.3506,4.3506,4.3506,4.3506,4.3506,4.3869,1.2429,1.3138,1.3824,1.5646,1.5778,1.5457,1.5457,0.0,0.0,0.0,0.0,0.0,0.0,0.0,2.0937,2.2714,0.0,2.7757,2.8934,2.9507,2.9945,3.0346,3.0828,3.1407,3.2178,3.2641,3.3237,3.4023,3.4471,3.4635,3.449,3.4754,3.4769,3.4473,3.4384,3.4245,3.408,3.4117,3.4136,3.4148,3.4037,3.4356,3.5019,3.5408,3.6285,3.7529,3.8143,3.8829,3.9555,3.9808,4.0064,4.0345,4.0345,4.0345,4.0474,4.1537,4.1742,4.1698,4.2954,4.3548,4.3644,4.3116,4.3194,4.3433,4.3065,4.3212,4.3506,4.3506,4.3506,4.3506,4.3506,4.3506,4.3506,4.3506,4.3506,4.3506,4.3506,4.3506,4.3506,4.3506,4.3506,4.3506,4.3506,4.3506,4.3506,4.3506,4.3506,4.3506,4.3506,4.3506,4.3506,4.3506,4.3506,4.3506,4.3506,4.3506,4.3506,4.3506,4.3157,4.3121,4.3474,4.3506,4.3506,4.3506,4.3506,4.3506,4.3506,4.3506,4.3506,4.351,4.3956,4.4356,1.2185,1.2833,1.3626,1.5818,0.0,1.6662,1.6853,0.0,0.0,0.0,0.0,0.0,0.0,2.1135,0.0,2.5421,2.7699,2.9164,2.9374,2.9984,3.0402,3.0402,3.0982,3.1484,3.1678,3.2231,3.2763,3.3157,3.3707,3.4039,3.4035,3.446,3.4543,3.418,3.4105,3.3969,3.3807,3.3807,3.3872,3.403,3.3924,3.4166,3.4726,3.4909,3.5708,3.6945,3.7532,3.8292,3.9155,3.9554,3.9857,4.0061,4.0061,4.018,4.0466,4.1625,4.2005,4.2109,4.3366,4.3713,4.356,4.3528,4.3506,4.3506,4.3506,4.3506,4.3506,4.3506,4.3506,4.3506,4.3506,4.3506,4.3506,4.3506,4.3506,4.3506,4.3506,4.3506,4.3506,4.3506,4.3506,4.3506,4.3506,4.3506,4.3506,4.3506,4.3506,4.3506,4.3506,4.3506,4.3506,4.3506,4.3506,4.3506,4.3506,4.3506,4.3506,4.3506,4.3506,4.3506,4.3506,4.3506,4.3506,4.3506,4.3506,4.3506,4.3506,4.3506,4.3598,4.38,4.4411,4.4897,1.1443,1.2825,1.4222,1.517,1.605,0.0,1.7644,1.8384,0.0,1.8915,0.0,0.0,0.0,2.3446,2.5621,2.7414,2.849,2.9374,3.0194,3.0365,3.0402,3.0402,3.0462,3.0808,3.162,3.1695,3.2338,3.3894,3.3896,3.41,3.4708,3.4543,3.4331,3.4102,3.3982,3.3872,3.3807,3.3807,3.3814,3.3812,3.3802,3.3829,3.3914,3.4656,3.5074,3.5268,3.696,3.7816,3.8086,3.9036,3.951,3.9639,3.9639,4.0063,4.0744,4.1397,4.2069,4.2701,4.3317,4.3528,4.3515,4.3506,4.3506,4.3506,4.3506,4.3506,4.3506,4.3506,4.3506,4.3506,4.3506,4.3506,4.3506,4.3506,4.3506,4.3506,4.3506,4.3506,4.3506,4.3506,4.3506,4.3506,4.3506,4.3506,4.3506,4.3506,4.3506,4.3506,4.3506,4.3506,4.3506,4.3506,4.3506,4.3506,4.3506,4.3506,4.3506,4.3506,4.3506,4.3506,4.3506,4.3506,4.3506,4.3506,4.3506,4.3506,4.3506,4.3506,4.3887,4.4631,4.4663,4.5503,1.2024,1.2834,1.3892,1.6351,0.0,0.0,0.0,2.0077,2.0811,2.1348,2.1937,0.0,0.0,0.0,2.7152,2.7798,2.9025,3.0022,3.0346,3.0402,3.0402,3.0402,3.0402,3.0538,3.0867,3.1279,3.1766,3.2325,3.3145,3.3632,3.3682,3.4012,3.4121,3.3917,3.3858,3.3837,3.3807,3.3807,3.3807,3.3807,3.3807,3.3807,3.381,3.4115,3.4531,3.5078,3.6333,3.7246,3.7909,3.8833,3.9286,3.9418,3.9418,3.984,4.0522,4.1229,4.1925,4.2603,4.3263,4.3506,4.3506,4.3506,4.3506,4.3506,4.3506,4.3506,4.3506,4.3506,4.3506,4.3506,4.3506,4.3506,4.3506,4.3506,4.3506,4.3506,4.3506,4.3506,4.3506,4.3506,4.3506,4.3506,4.3506,4.3506,4.3506,4.3506,4.3506,4.3506,4.3506,4.3506,4.3506,4.3506,4.3506,4.3506,4.3506,4.3506,4.3506,4.3506,4.3506,4.3506,4.3506,4.3506,4.3506,4.3506,4.3506,4.3745,4.425,4.425,4.4654,4.5461,4.5966,4.653,1.2472,1.3039,1.3853,0.0,0.0,0.0,2.0438,2.1431,2.2253,2.3093,2.3434,0.0,0.0,0.0,0.0,0.0,2.9311,3.0402,3.0402,3.0402,3.0402,3.0402,3.0377,3.0367,3.0375,3.1015,3.1495,3.1606,3.2716,3.3361,3.3357,3.3799,3.3963,3.3814,3.3807,3.3807,3.3807,3.3807,3.3807,3.3807,3.3807,3.3807,3.3807,3.3807,3.4094,3.4696,3.586,3.674,3.7417,3.8517,3.9021,3.9115,3.9115,3.9553,4.0267,4.1035,4.1763,4.2481,4.3248,4.3506,4.3506,4.3506,4.3506,4.3506,4.3506,4.3506,4.3506,4.3506,4.3506,4.3506,4.3506,4.3506,4.3506,4.3506,4.3506,4.3506,4.3506,4.3506,4.3506,4.3506,4.3506,4.3506,4.3506,4.3506,4.3506,4.3506,4.3506,4.3598,4.385,4.3887,4.3979,4.4236,4.4259,4.4259,4.4259,4.4259,4.4259,4.4259,4.4259,4.4038,4.3524,4.3506,4.3616,4.3869,4.3887,4.4268,4.5085,4.5085,4.5489,4.6282,4.6842,4.7241,1.2551,1.3449,1.4326,0.0,0.0,0.0,2.1328,2.2336,2.3133,2.3952,0.0,2.5596,2.6445,2.7314,0.0,2.7912,2.9311,3.0402,3.0402,3.0402,3.0402,3.0402,3.0342,3.0292,3.0292,3.0911,3.1587,3.225,3.2793,3.3409,3.4053,3.3969,3.3865,3.3792,3.3807,3.3807,3.3807,3.3807,3.3807,3.3807,3.3807,3.3807,3.3807,3.3807,3.3807,3.388,3.5572,3.6306,3.6417,3.8046,3.8703,3.8703,3.8703,3.9203,4.0014,4.081,4.1617,4.2433,4.3231,4.3506,4.3506,4.3506,4.3506,4.3506,4.3506,4.3506,4.3506,4.3506,4.3506,4.3506,4.3506,4.3506,4.3506,4.3506,4.3506,4.3506,4.3506,4.3506,4.3506,4.3506,4.3506,4.3506,4.3506,4.3506,4.3506,4.3506,4.351,4.3795,4.4608,4.4718,4.5012,4.581,4.5902,4.5902,4.5902,4.5902,4.5902,4.5902,4.5902,4.519,4.3584,4.3524,4.3906,4.47,4.4718,4.5104,4.5906,4.5906,4.6319,4.7113,4.7113,4.7539,1.256,1.3888,0.0,1.6806,0.0,0.0,0.0,2.3179,0.0,0.0,2.6534,2.7218,2.7468,2.8183,0.0,2.874,2.9677,3.0402,3.0402,3.0402,3.0402,3.0402,3.0339,3.0235,3.0103,3.1245,3.1982,3.1943,3.3099,3.3836,3.3895,3.3842,3.3812,3.3807,3.3807,3.3807,3.3807,3.3807,3.3807,3.3807,3.3807,3.3807,3.3807,3.3807,3.3807,3.388,3.5572,3.6306,3.6417,3.8046,3.8703,3.8703,3.8703,3.9544,4.0773,4.1007,4.197,4.3176,4.3419,4.3506,4.3506,4.3506,4.3506,4.3506,4.3506,4.3506,4.3506,4.3506,4.3506,4.3506,4.3506,4.3506,4.3506,4.3506,4.3506,4.3506,4.3506,4.3506,4.3506,4.3506,4.3506,4.3506,4.3506,4.3506,4.3506,4.3506,4.3979,4.4631,4.5443,4.5535,4.5645,4.5865,4.5902,4.5902,4.5902,4.5902,4.5902,4.5902,4.5902,4.5686,4.5209,4.519,4.5301,4.5535,4.5535,4.5934,4.6732,4.6732,4.7159,4.7948,4.7948,4.8076,1.345,1.4782,0.0,1.8382,1.9929,2.1541,2.3841,0.0,0.0,0.0,2.7758,2.8009,2.8317,2.8779,2.9107,2.9107,2.9831,3.0402,3.0402,3.0376,3.0364,3.0368,3.0249,3.0105,2.9945,3.1271,3.2033,3.1781,3.3158,3.3956,3.3814,3.3807,3.3807,3.3807,3.3807,3.3807,3.3807,3.3807,3.3807,3.3807,3.3807,3.3807,3.3807,3.3807,3.3807,3.388,3.5572,3.6652,3.7331,3.83,3.8703,3.8703,3.8703,3.9672,4.1099,4.1099,4.2117,4.3506,4.3506,4.3506,4.3506,4.3506,4.3506,4.3506,4.3506,4.3506,4.3506,4.3506,4.3506,4.3506,4.3506,4.3506,4.3506,4.3506,4.3506,4.3506,4.3506,4.3506,4.3506,4.3506,4.3506,4.3506,4.3506,4.3506,4.3616,4.3924,4.4924,4.5833,4.6315,4.6654,4.6851,4.6851,4.6851,4.6851,4.6851,4.6851,4.6851,4.6851,4.6851,4.6851,4.6851,4.6232,4.6049,4.637,4.6374,4.6773,4.7576,4.7576,4.7838,4.8301,4.8301,4.8301,1.4632,0.0,0.0,1.9665,2.1058,0.0,2.588,2.6596,2.7087,2.8745,0.0,2.8354,2.9087,2.9221,2.9221,2.9221,2.9889,3.0402,3.0402,3.034,3.0286,3.0262,3.0094,2.9927,2.978,3.1044,3.1825,3.1675,3.3058,3.3858,3.3792,3.3807,3.3807,3.3807,3.3807,3.3807,3.3807,3.3807,3.3807,3.3807,3.3807,3.3807,3.3807,3.3807,3.388,3.41,3.5646,3.7202,3.8703,3.8703,3.8703,3.8703,3.8703,3.9672,4.1099,4.1099,4.2117,4.3506,4.3506,4.3506,4.3506,4.3506,4.3506,4.3506,4.3506,4.3506,4.3506,4.3506,4.3506,4.3506,4.3506,4.3506,4.3506,4.3506,4.3506,4.3506,4.3506,4.3506,4.3506,4.3506,4.3506,4.3506,4.3506,4.3506,4.38,4.4686,4.6127,4.7131,4.7209,4.7856,4.8301,4.8301,4.8301,4.8301,4.8301,4.8301,4.8301,4.8301,4.8301,4.8301,4.8301,4.6893,4.6466,4.7209,4.7204,4.7576,4.8301,4.8301,4.8301,4.8301,4.8301,4.8338,1.3249,1.5373,0.0,0.0,2.1493,2.4105,2.614,2.6604,2.7087,2.8742,2.9506,2.9925,3.0098,3.0117,3.0117,3.0117,3.0288,3.0402,3.0402,3.0338,3.0249,3.0074,2.9927,2.975,2.9517,3.0854,3.1675,3.1483,3.2928,3.3827,3.3807,3.3807,3.3807,3.3807,3.3807,3.3807,3.3807,3.3807,3.3807,3.3807,3.3807,3.3807,3.3807,3.3807,3.4523,3.5774,3.6141,3.7202,3.8703,3.8703,3.8703,3.8703,3.8703,3.9672,4.1099,4.1099,4.2117,4.3506,4.3506,4.3506,4.3506,4.3506,4.3506,4.3506,4.3506,4.3506,4.3506,4.3506,4.3506,4.3506,4.3506,4.3506,4.3506,4.3506,4.3506,4.3506,4.3506,4.3506,4.3506,4.3506,4.3506,4.3506,4.3506,4.3506,4.3983,4.5424,4.6475,4.7333,4.7966,4.8191,4.8301,4.8301,4.8301,4.8301,4.8301,4.8301,4.8301,4.8301,4.8301,4.8301,4.8301,4.7971,4.7879,4.8039,4.8039,4.8136,4.8301,4.8301,4.8301,4.8301,4.8301,4.8673,1.3311,0.0,0.0,2.0363,0.0,2.4538,2.6218,2.66,2.6967,2.826,2.9199,2.9908,3.0327,3.0402,3.0402,3.0402,3.0373,3.034,3.0343,3.0237,3.009,2.9927,2.9763,2.9563,2.9332,3.0691,3.1553,3.14,3.2892,3.3807,3.3807,3.3807,3.3807,3.3807,3.3807,3.3807,3.3807,3.3807,3.3807,3.3807,3.3807,3.3807,3.3807,3.3807,3.4706,3.6306,3.6306,3.7202,3.8703,3.8703,3.8703,3.8703,3.8703,3.9672,4.1099,4.1099,4.2117,4.3506,4.3506,4.3506,4.3506,4.3506,4.3506,4.3506,4.3506,4.3506,4.3506,4.3506,4.3506,4.3506,4.3506,4.3506,4.3506,4.3506,4.3506,4.3506,4.3506,4.3506,4.3506,4.3506,4.3506,4.3506,4.3506,4.4149,4.5062,4.6296,4.7159,4.7838,4.8246,4.8301,4.8301,4.8301,4.8301,4.8301,4.8301,4.8301,4.8301,4.8301,4.8301,4.8485,4.8916,4.8916,4.8916,4.8916,4.9297,4.9494,4.9494,4.9114,4.9118,4.9494,4.9095,4.9375,1.3643,0.0,1.8767,2.1805,2.3337,0.0,2.5852,2.6273,2.6619,2.7507,2.8433,2.9316,3.004,3.0308,3.0402,3.0402,3.0337,3.0281,3.025,3.0081,2.9911,2.975,2.9558,2.9368,2.9172,3.0576,3.1458,3.1397,3.2892,3.3807,3.3807,3.3807,3.3807,3.3807,3.3807,3.3807,3.3807,3.3807,3.3807,3.3807,3.3807,3.3807,3.3807,3.3807,3.4706,3.6306,3.6306,3.7202,3.8703,3.8703,3.8703,3.8703,3.8703,3.9672,4.1099,4.1099,4.2117,4.3506,4.3506,4.3506,4.3506,4.3506,4.3506,4.3506,4.3506,4.3506,4.3506,4.3506,4.3506,4.3506,4.3506,4.3506,4.3506,4.3506,4.3506,4.3506,4.3506,4.3506,4.3506,4.3506,4.3616,4.3653,4.3524,4.4915,4.6232,4.6805,4.7691,4.8301,4.8301,4.8301,4.8301,4.8301,4.8301,4.8301,4.8301,4.843,4.8521,4.8521,4.865,4.904,4.9789,4.9936,5.0009,5.0009,5.0532,5.0797,5.0797,5.0133,5.0146,5.0784,5.011,5.0243,1.2741,0.0,1.9364,0.0,2.2893,2.4167,0.0,0.0,2.5712,0.0,2.8008,2.9146,2.926,2.9889,3.0402,3.0402,3.0336,3.0244,3.0061,2.9916,2.9732,2.9486,2.9338,2.9185,2.9038,3.0466,3.14,3.1394,3.2892,3.3807,3.3807,3.3807,3.3807,3.3807,3.3807,3.3807,3.3807,3.3807,3.3807,3.3807,3.3807,3.3807,3.3807,3.3807,3.4706,3.6306,3.6306,3.7202,3.8703,3.8703,3.8703,3.8703,3.8703,3.9672,4.1099,4.1099,4.2117,4.3506,4.3506,4.3506,4.3506,4.3506,4.3506,4.3506,4.3506,4.3506,4.3506,4.3506,4.3506,4.3506,4.3506,4.3506,4.3506,4.3506,4.3506,4.3506,4.3506,4.3506,4.3506,4.3506,4.4066,4.4319,4.3616,4.5227,4.6471,4.6099,4.7347,4.8301,4.8301,4.8301,4.8301,4.8301,4.8301,4.8301,4.8301,4.899,4.944,4.944,5.0086,5.0522,5.0637,5.1303,5.1675,5.1675,5.1096,5.0797,5.0797,5.0687,5.0687,5.0797,5.0692,5.1064,1.4314,1.6618,1.8886,0.0,2.2082,2.2893,2.3878,2.4375,2.4851,2.5694,2.685,2.7989,2.8934,2.9412,2.9831,3.0327,3.0313,3.0173,2.9979,2.9794,2.9584,2.9311,2.9195,2.9117,2.9014,3.006,3.091,3.1375,3.2467,3.3326,3.377,3.3807,3.3807,3.3807,3.3807,3.3807,3.3807,3.3807,3.3807,3.3807,3.3807,3.3807,3.3807,3.3807,3.4706,3.6306,3.6306,3.7202,3.8703,3.8703,3.8703,3.8703,3.8703,3.9672,4.1099,4.1099,4.2117,4.3506,4.3506,4.3506,4.3506,4.3506,4.3506,4.3506,4.3506,4.3506,4.3506,4.3506,4.3506,4.3506,4.3506,4.3506,4.3506,4.3506,4.3832,4.4213,4.4364,4.3928,4.363,4.4085,4.4085,4.4305,4.5154,4.5833,4.6489,4.7145,4.7842,4.8301,4.8301,4.8301,4.8301,4.8301,4.8301,4.8508,4.899,4.9385,4.9789,5.0238,5.06,5.1004,5.1444,5.1817,5.2202,5.265,5.232,5.2137,5.2137,5.1683,5.1701,5.2131,5.1683,5.1903,1.5152,1.6545,1.7707,1.9996,2.0877,2.1549,0.0,0.0,2.426,2.4869,2.5676,2.6715,2.8181,2.8817,2.9316,2.9964,3.0142,3.0122,2.9884,2.9693,2.9467,2.9187,2.9117,2.9041,2.9005,2.9726,3.0448,3.1042,3.2023,3.2861,3.3455,3.3697,3.3807,3.3807,3.3807,3.3807,3.3807,3.3807,3.3807,3.3807,3.3807,3.3807,3.3807,3.3807,3.4706,3.6306,3.6306,3.7202,3.8703,3.8703,3.8703,3.8703,3.8703,3.9672,4.1099,4.1099,4.2117,4.3506,4.3506,4.3506,4.3506,4.3506,4.3506,4.3506,4.3506,4.3506,4.3506,4.3506,4.3506,4.3506,4.3506,4.3506,4.3543,4.3759,4.4264,4.4814,4.5227,4.4676,4.4254,4.4704,4.4544,4.4644,4.57,4.6232,4.6929,4.8118,4.8301,4.8301,4.8301,4.8301,4.8301,4.8301,4.8508,4.8898,4.9532,4.9973,5.0463,5.1077,5.1292,5.1678,5.2275,5.2307,5.2582,5.3196,5.3196,5.3196,5.3196,5.2601,5.2614,5.3196,5.2582,5.2637,1.3679,1.4774,1.584,1.7555,1.9191,2.0392,0.0,0.0,2.4109,2.4147,2.4812,2.5654,2.656,2.8027,2.9107,2.9164,2.9746,3.009,2.9754,2.9591,2.9382,2.9044,2.9014,2.9005,2.9002,2.9726,3.0225,3.0262,3.1705,3.2619,3.2659,3.3381,3.3807,3.3807,3.3807,3.3807,3.3807,3.3807,3.3807,3.3807,3.3807,3.3807,3.3807,3.3807,3.4706,3.6306,3.6306,3.7202,3.8703,3.8703,3.8703,3.8703,3.8703,3.9672,4.1099,4.1099,4.2117,4.3506,4.3506,4.3506,4.3506,4.3506,4.3506,4.3506,4.3506,4.3506,4.3506,4.3506,4.3506,4.3506,4.3506,4.3506,4.369,4.4466,4.4663,4.4902,4.5681,4.581,4.5649,4.5172,4.5865,4.592,4.4002,4.6177,4.8209,4.8296,4.8301,4.8301,4.8301,4.8301,4.8301,4.8301,4.9045,4.9555,4.9605,5.1001,5.1895,5.1927,5.265,5.3086,5.3141,5.3141,5.3159,5.3196,5.3196,5.3196,5.3196,5.3159,5.3159,5.3196,5.3159,5.3159,1.2789,1.3879,0.0,1.6556,1.7423,1.8289,1.9931,2.1003,2.2122,2.3761,2.4337,2.4775,2.5617,2.7141,2.8428,2.8945,2.9614,2.9976,2.9673,2.9487,2.9275,2.9037,2.9002,2.9002,2.9002,2.9262,2.9855,3.0892,3.1497,3.2284,3.3326,3.3638,3.3807,3.3807,3.3807,3.3807,3.3807,3.3807,3.3807,3.3807,3.3807,3.3807,3.3807,3.3807,3.4706,3.6306,3.6306,3.7202,3.8703,3.8703,3.8703,3.8703,3.8703,3.9672,4.1099,4.1099,4.2117,4.3506,4.3506,4.3506,4.3506,4.3506,4.3506,4.3506,4.3506,4.3506,4.3506,4.3506,4.3506,4.3506,4.3506,4.3887,4.4594,4.5925,4.6622,4.709,4.7384,4.6636,4.5938,4.6108,4.6159,4.6269,4.6544,4.7535,4.8301,4.8301,4.8301,4.8301,4.8301,4.8301,4.8705,4.9788,4.9729,5.0028,5.1056,5.1675,5.222,5.2742,5.3031,5.3196,5.3196,5.3196,5.3196,5.3196,5.3196,5.3196,5.3196,5.3196,5.3196,5.3196,5.3196,5.3196,1.2025,1.2795,0.0,0.0,1.5884,1.6683,1.8916,1.9887,2.0867,2.2816,2.3674,2.4221,2.4764,2.6195,2.7552,2.8374,2.9073,2.9521,2.9528,2.938,2.9203,2.9013,2.9002,2.9002,2.9002,2.9002,2.9558,3.0895,3.1244,3.1978,3.3326,3.3642,3.3807,3.3807,3.3807,3.3807,3.3807,3.3807,3.3807,3.3807,3.3807,3.3807,3.3807,3.3807,3.4706,3.6306,3.6306,3.7202,3.8703,3.8703,3.8703,3.8722,3.9001,3.9911,4.1136,4.1397,4.2359,4.3506,4.3506,4.3506,4.3506,4.3506,4.3506,4.3506,4.3506,4.3506,4.3506,4.3506,4.3506,4.3561,4.3832,4.4704,4.5778,4.686,4.7709,4.8301,4.8301,4.7457,4.6819,4.7163,4.6948,4.7058,4.8118,4.8301,4.8301,4.8301,4.8301,4.8301,4.8301,4.8301,4.8865,5.038,5.0201,5.0537,5.1895,5.2257,5.2637,5.3177,5.3196,5.3196,5.3196,5.3196,5.3196,5.3196,5.3196,5.3196,5.3196,5.3196,5.3196,5.3196,5.3196,5.3196,0.0,0.0,0.0,0.0,0.0,0.0,1.7266,1.8965,2.0463,2.1291,2.2786,2.395,2.3999,2.5205,2.6483,2.7305,2.8085,2.8786,2.9312,2.9286,2.9149,2.9025,2.9002,2.9002,2.9002,2.9002,2.9338,3.017,3.0968,3.1754,3.2586,3.3381,3.3807,3.3807,3.3807,3.3807,3.3807,3.3807,3.3807,3.3807,3.3807,3.3807,3.3807,3.3825,3.4743,3.6306,3.6325,3.7221,3.8703,3.8703,3.8703,3.8777,3.9592,4.0396,4.1191,4.2007,4.2804,4.3506,4.3506,4.3506,4.3506,4.3506,4.3506,4.3506,4.3506,4.3506,4.3506,4.3506,4.3524,4.3726,4.4553,4.5925,4.7113,4.7131,4.7723,4.8301,4.8301,4.8301,4.8301,4.8301,4.8301,4.8301,4.8301,4.8301,4.8301,4.8301,4.8301,4.8301,4.8301,4.8301,4.8742,4.9898,5.0503,5.1151,5.1969,5.2742,5.3196,5.3196,5.3196,5.3196,5.3196,5.3196,5.3196,5.3196,5.3196,5.3196,5.3196,5.3196,5.3196,5.3196,5.3196,5.3196,1.1191,0.0,0.0,0.0,0.0,0.0,1.5515,1.7196,1.8831,2.0329,2.1455,2.2524,2.3653,2.4114,2.4749,2.5997,2.7433,2.8599,2.9166,2.9171,2.91,2.9014,2.9002,2.9002,2.9002,2.9002,2.9577,3.0968,3.1262,3.2015,3.3381,3.3678,3.3807,3.3807,3.3807,3.3807,3.3807,3.3807,3.3807,3.3807,3.3807,3.3807,3.3825,3.4402,3.5268,3.6325,3.6916,3.7742,3.8703,3.8703,3.8703,3.8777,3.9592,4.0396,4.1191,4.2007,4.2804,4.3506,4.3506,4.3506,4.3506,4.3506,4.3506,4.3506,4.3506,4.3506,4.3506,4.3506,4.3924,4.4686,4.6071,4.6769,4.7241,4.7838,4.8131,4.8301,4.8301,4.8301,4.8301,4.8301,4.8301,4.8301,4.8301,4.8301,4.8301,4.8301,4.8301,4.8301,4.8301,4.8301,4.8888,5.0412,5.1054,5.1788,5.2779,5.3067,5.3196,5.3196,5.3196,5.3196,5.3196,5.3196,5.3196,5.3196,5.3196,5.3196,5.3196,5.3196,5.3196,5.3196,5.3196,5.3196,0.0,0.0,0.0,0.0,0.0,0.0,1.536,1.6504,1.7698,1.9409,2.0394,2.1335,2.2526,2.2914,2.3535,2.4975,2.5991,2.7108,2.8439,2.8874,2.9048,2.9005,2.9002,2.9002,2.9002,2.9002,2.9537,3.08,3.1207,3.2106,3.3715,3.3807,3.3807,3.3807,3.3807,3.3807,3.3807,3.3807,3.3807,3.3807,3.3807,3.3807,3.3825,3.4637,3.5485,3.6343,3.7144,3.7962,3.8703,3.8703,3.8703,3.8813,3.9955,4.0681,4.1246,4.2378,4.3098,4.3506,4.3506,4.3506,4.3506,4.3506,4.3506,4.3506,4.3506,4.3506,4.3506,4.3506,4.4328,4.5489,4.6769,4.7356,4.7723,4.8191,4.8301,4.8301,4.8301,4.8301,4.8301,4.8301,4.8301,4.8301,4.8301,4.8301,4.8301,4.8301,4.8301,4.8301,4.8301,4.8301,4.92,5.1549,5.1678,5.2027,5.3104,5.3196,5.3196,5.3196,5.3196,5.3196,5.3196,5.3196,5.3196,5.3196,5.3196,5.3196,5.3196,5.3196,5.3196,5.3196,5.3196,5.3196,1.3028,1.2947,0.0,0.0,1.4077,0.0,1.5878,1.6369,1.6929,1.8414,1.9352,2.017,2.1007,2.1636,2.2506,2.3984,2.4198,2.4983,2.7347,2.8277,2.8767,2.8858,2.8877,2.8892,2.8984,2.9002,2.9335,3.0133,3.102,3.2161,3.3587,3.3752,3.3807,3.3807,3.3807,3.3807,3.3807,3.3807,3.3807,3.3807,3.3807,3.3807,3.3825,3.4729,3.5562,3.6343,3.725,3.8036,3.8703,3.8703,3.8703,3.8846,4.0369,4.1026,4.1283,4.2804,4.3419,4.3506,4.3506,4.3506,4.3506,4.3506,4.3506,4.3506,4.3506,4.3506,4.3547,4.3726,4.4805,4.6104,4.7007,4.7764,4.8301,4.8301,4.8301,4.8301,4.8301,4.8301,4.8301,4.8301,4.8301,4.8301,4.8301,4.8301,4.8301,4.8301,4.8301,4.8301,4.8301,4.8627,4.9966,5.2884,5.2352,5.215,5.3122,5.3196,5.3196,5.3196,5.3196,5.3196,5.3196,5.3196,5.3196,5.3196,5.3196,5.3196,5.3196,5.3196,5.3196,5.3196,5.3196,5.3196,1.4427,1.3794,1.3093,1.4658,0.0,0.0,1.4351,1.5482,1.6582,1.6929,1.7622,1.8614,2.0009,2.0271,2.0762,2.225,2.2967,2.4144,2.6497,2.6974,2.7304,2.7955,2.8026,2.8282,2.8932,2.9002,2.9335,3.0133,3.1543,3.2497,3.2828,3.3455,3.3807,3.3807,3.3807,3.3807,3.3807,3.3807,3.3807,3.3807,3.3807,3.3807,3.3844,3.5367,3.6138,3.638,3.7845,3.8557,3.8703,3.8703,3.8703,3.8795,3.9753,4.052,4.1228,4.2172,4.2933,4.3506,4.3506,4.3506,4.3506,4.3506,4.3506,4.3506,4.3506,4.3506,4.3763,4.5062,4.5668,4.6232,4.7691,4.8186,4.8301,4.8301,4.8301,4.8301,4.8301,4.8301,4.8301,4.8301,4.8301,4.8301,4.8301,4.8301,4.8301,4.8301,4.8301,4.8301,4.8301,5.0608,5.2498,5.3122,5.3012,5.2976,5.3177,5.3196,5.3196,5.3196,5.3196,5.3196,5.3196,5.3196,5.3196,5.3196,5.3196,5.3196,5.3196,5.3196,5.3196,5.3196,5.3196,5.3196,1.6308,1.558,1.4808,1.5676,0.0,0.0,0.0,1.5211,1.5964,1.6409,1.6784,1.7544,1.9159,1.9376,1.9783,2.1265,2.1783,2.2527,2.4047,2.5261,2.6303,2.7108,2.72,2.753,2.8316,2.8405,2.8904,3.0115,3.0956,3.1745,3.2567,3.2971,3.3381,3.3788,3.3807,3.3807,3.3807,3.3807,3.3807,3.3807,3.3807,3.3807,3.3844,3.5085,3.5896,3.6365,3.7577,3.8322,3.8703,3.8703,3.8703,3.8777,3.9592,4.0396,4.1191,4.2007,4.2804,4.3506,4.3506,4.3506,4.3506,4.3506,4.3506,4.3506,4.3506,4.3506,4.3836,4.5447,4.5902,4.6269,4.7879,4.8301,4.8301,4.8301,4.8301,4.8301,4.8301,4.8301,4.8301,4.8301,4.8301,4.8301,4.8301,4.8301,4.8301,4.8301,4.8301,4.8884,5.0535,5.2186,5.3196,5.3196,5.3196,5.3196,5.3196,5.3196,5.3196,5.3196,5.3196,5.3196,5.3196,5.3196,5.3196,5.3196,5.3196,5.3196,5.3196,5.3605,5.3807,5.3807,5.421,5.4399,0.0,0.0,0.0,0.0,0.0,1.5407,0.0,0.0,0.0,1.6312,1.6469,1.6925,1.8601,1.8867,1.9194,2.0382,2.0659,2.0886,2.1361,2.3209,2.4901,2.6007,2.613,2.6518,2.7478,2.7572,2.8172,2.9638,2.9873,3.0607,3.2054,3.2436,3.2901,3.3547,3.3715,3.3807,3.3807,3.3807,3.3807,3.3807,3.3807,3.3807,3.3825,3.4806,3.5632,3.6343,3.7305,3.8105,3.8703,3.8703,3.8703,3.8758,3.9427,4.0263,4.1173,4.1823,4.2671,4.3506,4.3506,4.3506,4.3506,4.3506,4.3506,4.3506,4.3506,4.3506,4.3836,4.5447,4.5902,4.6269,4.7879,4.8301,4.8301,4.8301,4.8301,4.8301,4.8301,4.8301,4.8301,4.8301,4.8301,4.8301,4.8301,4.8301,4.8301,4.8301,4.8847,5.0205,5.2865,5.3196,5.3196,5.3196,5.3196,5.3196,5.3196,5.3196,5.3196,5.3196,5.3196,5.3196,5.3196,5.3196,5.3269,5.3434,5.3434,5.3513,5.366,5.4467,5.4693,5.4418,5.5231,5.5603,0.0,0.0,0.0,0.0,1.6954,0.0,0.0,0.0,1.5443,1.6312,0.0,1.7001,1.8673,0.0,0.0,1.9026,1.9598,1.9966,1.9807,2.0618,2.2045,2.4202,2.4467,2.5071,2.6589,2.6735,2.7105,2.8013,2.8733,2.9537,3.0424,3.1834,3.2641,3.2733,3.3436,3.3807,3.3807,3.3807,3.3807,3.3807,3.3807,3.3807,3.3844,3.5422,3.6215,3.638,3.79,3.8615,3.8703,3.8703,3.8703,3.8703,3.8795,3.9764,4.1118,4.1191,4.219,4.3506,4.3506,4.3506,4.3506,4.3506,4.3506,4.3506,4.3506,4.3506,4.3836,4.5447,4.5902,4.6269,4.7879,4.8301,4.8301,4.8301,4.8301,4.8301,4.8301,4.8301,4.8301,4.8301,4.8301,4.8301,4.8301,4.8301,4.8301,4.8301,5.0774,5.2774,5.3159,5.3196,5.3196,5.3196,5.3196,5.3196,5.3196,5.3196,5.3196,5.3196,5.3196,5.3196,5.3196,5.3196,5.355,5.4252,5.4252,5.4601,5.5328,5.6143,5.5789,5.4418,5.5231,5.5603,0.0,0.0,0.0,0.0,0.0,0.0,1.5404,0.0,1.6061,0.0,0.0,0.0,0.0,0.0,0.0,0.0,1.948,1.9705,1.8966,1.9543,2.0747,2.2599,2.2802,2.3442,2.5052,2.5624,2.6232,2.7034,2.7414,2.8161,2.943,3.0586,3.1635,3.2564,3.2938,3.3326,3.3807,3.3807,3.3807,3.3807,3.3807,3.4042,3.4512,3.5228,3.6079,3.7026,3.7705,3.827,3.8703,3.8703,3.8703,3.8703,3.8703,3.9672,4.1099,4.1099,4.2117,4.3506,4.3506,4.3506,4.3506,4.3506,4.3506,4.3506,4.3506,4.3832,4.4429,4.5576,4.6246,4.6865,4.8008,4.8301,4.8301,4.8301,4.8301,4.8301,4.8301,4.8301,4.8595,4.9567,4.8962,4.8301,4.8301,4.8301,4.8301,4.8301,5.1104,5.3196,5.3196,5.3196,5.3196,5.3196,5.3196,5.3196,5.3196,5.3196,5.3196,5.3196,5.3196,5.3196,5.3196,5.366,5.4064,5.4399,5.4864,5.5249,5.5603,5.6418,5.6449,5.5807,5.662,5.6993,2.1561,0.0,0.0,0.0,0.0,0.0,0.0,0.0,0.0,0.0,0.0,0.0,0.0,0.0,0.0,0.0,0.0,1.9645,1.8571,1.9117,2.0076,2.1297,2.1845,2.2506,2.3442,2.427,2.5076,2.5876,2.5949,2.6735,2.8565,2.9433,3.0607,3.2225,3.2497,3.2993,3.3788,3.3807,3.3807,3.3807,3.4024,3.4421,3.5019,3.5485,3.6358,3.7511,3.7727,3.816,3.8703,3.8703,3.8703,3.8722,3.8942,3.9878,4.1099,4.1099,4.2117,4.3506,4.3506,4.3506,4.3506,4.3506,4.3506,4.3543,4.3759,4.4245,4.492,4.5934,4.6645,4.7282,4.8095,4.8301,4.8301,4.8301,4.8301,4.8301,4.8301,4.8301,4.8742,5.0283,5.0063,4.9641,4.9641,4.8907,4.8301,4.8301,5.1104,5.3196,5.3196,5.3196,5.3196,5.3196,5.3196,5.3196,5.3196,5.3196,5.3196,5.3196,5.3196,5.3306,5.3526,5.4082,5.462,5.506,5.5629,5.6044,5.6264,5.684,5.7128,5.7147,5.7721,5.8002,0.0,0.0,0.0,1.8314,0.0,0.0,0.0,0.0,1.6967,0.0,0.0,0.0,0.0,0.0,0.0,0.0,0.0,0.0,0.0,1.919,1.9919,2.0464,2.1976,2.2682,2.1943,2.2591,2.3414,2.4229,2.4284,2.5312,2.7719,2.8607,2.9782,3.1394,3.2189,3.2993,3.3788,3.3807,3.3807,3.381,3.4582,3.4982,3.5056,3.6674,3.7456,3.7547,3.8326,3.8685,3.8703,3.8703,3.8703,3.8777,3.9555,4.0373,4.1099,4.1099,4.2117,4.3506,4.3506,4.3506,4.3506,4.3506,4.3506,4.3653,4.4429,4.4681,4.503,4.6617,4.7076,4.7282,4.8095,4.8301,4.8301,4.8301,4.8301,4.8301,4.8301,4.8301,4.8631,4.9793,5.1659,5.3049,5.3049,5.0412,4.8301,4.8301,5.1104,5.3196,5.3196,5.3196,5.3196,5.3196,5.3196,5.3196,5.3196,5.3196,5.3196,5.3196,5.3196,5.3544,5.4326,5.4399,5.5133,5.6682,5.6761,5.7147,5.7929,5.7947,5.796,5.796,5.7997,5.8002,2.3223,2.2723,2.1802,1.9789,1.9299,1.8932,0.0,0.0,0.0,0.0,0.0,0.0,0.0,0.0,0.0,0.0,0.0,0.0,0.0,1.9033,1.9498,1.9686,0.0,0.0,2.0919,2.119,2.1924,2.3304,2.3414,2.446,2.6885,2.7769,2.894,3.0558,3.1387,3.2192,3.2993,3.3528,3.3807,3.381,3.4619,3.5298,3.5896,3.7008,3.7782,3.8303,3.8575,3.8703,3.8703,3.8703,3.8703,3.8777,3.9592,4.0396,4.1154,4.169,4.2584,4.3506,4.3506,4.3506,4.3506,4.3506,4.3869,4.4337,4.4626,4.5448,4.6397,4.6947,4.7484,4.7966,4.8223,4.8301,4.8301,4.8301,4.8301,4.8466,4.9045,4.916,4.9582,5.1046,5.1775,5.237,5.3086,5.2278,5.1544,5.1544,5.2498,5.3196,5.3196,5.3196,5.3196,5.3196,5.3196,5.3196,5.3196,5.3196,5.3196,5.3196,5.3697,5.4119,5.4399,5.5422,5.6247,5.6792,5.7317,5.7721,5.8002,5.8002,5.8002,5.8002,5.8002,5.8002,2.4021,2.3703,2.3051,2.1285,2.086,2.0542,1.9237,1.9794,2.0661,0.0,0.0,0.0,0.0,0.0,0.0,0.0,0.0,0.0,0.0,1.8865,0.0,0.0,0.0,0.0,0.0,2.0607,2.1284,2.205,2.2405,2.3508,2.5637,2.6507,2.7829,2.9708,3.0837,3.1791,3.2583,3.34,3.3932,3.4241,3.5066,3.5914,3.6751,3.7562,3.8215,3.8703,3.8703,3.8703,3.8703,3.8703,3.8868,3.9203,4.001,4.0814,4.158,4.2117,4.2804,4.3506,4.3506,4.3506,4.3506,4.3506,4.4048,4.4755,4.5035,4.6053,4.7168,4.7448,4.7911,4.8301,4.8301,4.8301,4.8301,4.8301,4.8301,4.8545,4.9403,4.9605,5.0083,5.1693,5.1867,5.2045,5.3031,5.3196,5.3196,5.3196,5.3196,5.3196,5.3196,5.3196,5.3196,5.3196,5.3196,5.3196,5.3196,5.3453,5.3623,5.3623,5.4381,5.495,5.5238,5.6247,5.6926,5.722,5.774,5.8002,5.8002,5.8002,5.8002,5.8002,5.8002,5.8002]},{"header":{"parameterUnit":"m.s-1","parameterCategory":1,"la1":30.6,"la2":29.2853,"lo1":-89.7004,"lo2":-87.6739,"dy":0.0162,"dx":0.0183,"nx":112,"ny":82,"refTime":"2026-04-29T00:00:00:Z","depth":0,"parameterNumber":3,"parameterNumberName":"V-component_of_WINDS"},"data":[0.0,0.0,0.0,0.0,0.0,0.0,0.0,0.0,0.0,0.0,0.0,0.0,0.0,0.0,0.0,0.0,0.0,0.0,0.0,0.0,0.0,0.0,0.0,0.0,0.0,0.0,0.0,0.0,0.0,0.0,0.0,0.0,0.0,0.0,0.0,0.0,0.0,0.0,0.0,0.0,0.0,0.0,0.0,0.0,0.0,0.0,0.0,0.0,0.0,0.0,0.0,0.0,0.0,0.0,0.0,0.0,0.0,0.0,0.0,0.0,0.0,0.0,0.0,0.0,0.0,0.0,0.0,0.0,0.0,0.0,0.0,0.0,0.0,0.0,0.0,0.0,0.0,0.0,0.0,0.0,0.0,0.0,0.0,0.0,0.0,0.0,0.0,0.0,0.0,0.0,0.0,0.2516,0.3027,0.3266,0.3143,0.314,0.3027,0.2746,0.0,0.0,0.0,0.0,0.0,0.0,0.0,0.0,0.0,0.0,0.0,0.0,0.0,0.0,0.0,0.0,0.0,0.0,0.0,0.0,0.0,0.0,0.0,0.0,0.0,0.0,0.0,0.0,0.0,0.0,0.0,0.0,0.0,0.0,0.0,0.0,0.0,0.0,0.0,0.0,0.0,0.0,0.0,0.0,0.0,0.0,0.0,0.0,0.0,0.0,0.0,0.0,0.0,0.0,0.0,0.0,0.0,0.0,0.0,0.0,0.0,0.0,0.0,0.0,0.0,0.0,0.0,0.0,0.0,0.0,0.0,0.0,0.0,0.0,0.0,0.0,0.0,0.0,0.0,0.0,0.0,0.0,0.0,0.0,0.0,0.0,0.0,0.0,0.0,0.0,0.0,0.0,0.0,0.0,0.0,0.0,0.0,0.0,0.0,0.0,0.0,0.0,0.0,0.0,0.2013,0.2912,0.3234,0.3351,0.3276,0.3319,0.3216,0.2889,0.0,0.0,0.0,0.0,0.0,0.0,0.0,0.0,0.0,0.0,0.0,0.0,0.0,0.0,0.0,0.0,0.0,0.0,0.0,0.0,0.0,0.0,0.0,0.0,0.0,0.0,0.0,0.0,0.0,0.0,0.0,0.0,0.0,0.0,0.0,0.0,0.0,0.0,0.0,0.0,0.0,0.0,0.0,0.0,0.0,0.0,0.0,0.0,0.0,0.0,0.0,0.0,0.0,0.0,0.0,0.0,0.0,0.0,0.0,0.0,0.0,0.0,0.0,0.0,0.0,0.0,0.0,0.0,0.0,0.0,0.0,0.0,0.0,0.0,0.0,0.0,0.0,0.0,0.0,0.0,0.0,0.0,0.0,0.0,0.0,0.0,0.0,0.0,0.0,0.0,0.0,0.0,0.0,0.0,0.0,0.0,0.0,0.0,0.0,0.0,0.0,0.0,0.0,0.2126,0.2544,0.3045,0.3344,0.3494,0.3462,0.3324,0.3139,0.2914,0.2459,0.0,0.0,0.0,0.0,0.0,0.0,0.0,0.0,0.0,0.0,0.0,0.0,0.0,0.0,0.0,0.0,0.0,0.0,0.0,0.0,0.0,0.0,0.0,0.0,0.0,0.0,0.0,0.0,0.0,0.0,0.0,0.0,0.0,0.0,0.0,0.0,0.0,0.0,0.0,0.0,0.0,0.0,0.0,0.0,0.0,0.0,0.0,0.0,0.0,0.0,0.0,0.0,0.0,0.0,0.0,0.0,0.0,0.0,0.0,0.0,0.0,0.0,0.0,0.0,0.0,0.0,0.0,0.0,0.0,0.0,0.0,0.0,0.0,0.0,0.0,0.0,0.0,0.0,0.0,0.0,0.0,0.0,0.0,0.0,0.0,0.0,0.0,0.0,0.0,0.0,0.0,0.0,0.0,0.0,0.0,0.0,0.0,0.0,0.0,0.0,0.0,0.0,0.2542,0.3006,0.3156,0.3429,0.3587,0.3558,0.332,0.3078,0.2865,0.2488,0.0,0.0,0.0,0.0,0.0,0.0,0.0,0.0,0.0,0.0,0.0,0.0,0.0,0.0,0.0,0.0,0.0,0.0,0.0,0.0,0.0,0.0,0.0,0.0,0.0,0.0,0.0,0.0,0.0,0.0,0.0,0.0,0.0,0.0,0.0,0.0,0.0,0.0,0.0,0.0,0.0,0.0,0.0,0.0,0.0,0.0,0.0,0.0,0.0,0.0,0.0,0.0,0.0,0.0,0.0,0.0,0.0,0.0,0.0,0.0,0.0,0.0,0.0,0.0,0.0,0.0,0.0,0.0,0.0,0.0,0.0,0.0,0.0,0.0,0.0,0.0,0.0,0.0,0.0,0.0,0.0,0.0,0.0,0.0,0.0,0.0,0.0,0.0,0.0,0.0,0.0,0.0,0.0,0.0,0.0,0.0,0.0,0.0,0.0,0.0,0.0,0.0,0.2709,0.3159,0.3356,0.3515,0.3548,0.3428,0.3389,0.319,0.274,0.2565,0.0,0.0,0.0,0.0,0.0,0.0,0.0,0.0,0.0,0.0,0.0,0.0,0.0,0.0,0.0,0.0,0.0,0.0,0.0,0.0,0.0,0.0,0.0,0.0,0.0,0.0,0.0,0.0,0.0,0.0,0.0,0.0,0.0,0.0,0.0,0.0,0.0,0.0,0.0,0.0,0.0,0.0,0.0,0.0,0.0,0.0,0.0,0.0,0.0,0.0,0.0,0.0,0.0,0.0,0.0,0.0,0.0,0.0,0.0,0.0,0.0,0.0,0.0,0.0,0.0,0.0,0.0,0.0,0.0,0.0,0.0,0.0,0.0,0.0,0.0,0.0,0.0,0.0,0.0,0.0,0.0,0.0,0.0,0.0,0.0,0.0,0.0,0.0,0.0,0.0,0.0,0.0,0.0,0.0,0.0,0.0,0.0,0.0,0.0,0.0,0.0,0.0,0.2752,0.3158,0.0,0.3492,0.3598,0.3587,0.3471,0.3234,0.2846,0.0,0.0,0.0,0.0,0.0,0.0,0.0,0.0,0.0,0.0,0.0,0.0,0.0,0.0,0.0,0.0,0.0,0.0,0.0,0.0,0.0,0.0,0.0,0.0,0.0,0.0,0.0,0.0,0.0,0.0,0.0,0.0,0.0,0.0,0.0,0.0,0.0,0.0,0.0,0.0,0.0,0.0,0.0,0.0,0.0,0.0,0.0,0.0,0.0,0.0,0.0,0.0,0.0,0.0,0.0,0.0,0.0,0.0,0.0,0.0,0.0,0.0,0.0,0.0,0.0,0.0,0.0,0.0,0.0,0.0,0.0,0.0,0.0,0.0,0.0,0.0,0.0,0.0,0.0,0.0,0.0,0.0,0.0,0.0,0.0,0.0,0.0,0.0,0.0,0.0,0.0,0.0,0.0,0.0,0.0,0.0,0.0,0.0,0.0,0.0,0.0,0.0,0.2281,0.2821,0.3222,0.0,0.3517,0.3629,0.3695,0.3672,0.3487,0.3088,0.0,0.0,0.0,0.0,0.0,0.0,0.0,0.0,0.0,0.0,0.0,0.0,0.0,0.0,0.0,0.0,0.0,0.0,0.0,0.0,0.0,0.0,0.0,0.0,0.0,0.0,0.0,0.0,0.0,0.0,0.0,0.0,0.0,0.0,0.0,0.0,0.0,0.0,0.0,0.0,0.0,0.0,0.0,0.0,0.0,0.0,0.0,0.0,0.0,0.0,0.0,0.0,0.0,0.0,0.0,0.0,0.0,0.0,0.0,0.0,0.0,0.0,0.0,0.0,0.0,0.0,0.0,0.0,0.0,0.0,0.0,0.0,0.0,0.0,0.0,0.0,0.0,0.0,0.0,0.0,0.0,0.0,0.0,0.0,0.0,0.0,0.0,0.0,0.0,0.0,0.0,0.0,0.0,0.0,0.0,0.0,0.0,0.0,0.0,0.0,0.0,0.0,0.2368,0.2928,0.3377,0.3581,0.3604,0.3631,0.3698,0.4009,0.3975,0.0,0.0,0.0,0.0,0.0,0.0,0.0,0.0,0.0,0.0,0.0,0.0,0.0,0.0,0.0,0.0,0.0,0.0,0.0,0.0,0.0,0.0,0.0,0.0,0.0,0.0,0.0,0.0,0.0,0.0,0.0,0.0,0.0,0.0,0.0,0.0,0.0,0.0,0.0,0.0,0.0,0.0,0.0,0.0,0.0,0.0,0.0,0.0,0.0,0.0,0.0,0.0,0.0,0.0,0.0,0.0,0.0,0.0,0.0,0.0,0.0,0.0,0.0,0.0,0.0,0.0,0.0,0.0,0.0,0.0,0.0,0.0,0.0,0.0,0.0,0.0,0.0,0.0,0.0,0.0,0.0,0.0,0.0,0.0,0.0,0.0,0.0,0.0,0.0,0.0,0.0,0.0,0.0,0.0,0.0,0.0,0.0,0.0,0.0,0.0,0.0,0.0,0.0,0.2416,0.2998,0.343,0.3587,0.3604,0.3704,0.3958,0.4244,0.4227,0.3778,0.0,0.0,0.0,0.0,0.0,0.0,0.0,0.0,0.0,0.0,0.0,0.0,0.0,0.0,0.0,0.0,0.0,0.0,0.0,0.0,0.0,0.0,0.0,0.0,0.0,0.0,0.0,0.0,0.0,0.0,0.0,0.0,0.0,0.0,0.0,0.0,0.0,0.0,0.0,0.0,0.0,0.0,0.0,0.0,0.0,0.0,0.0,0.0,0.0,0.0,0.0,0.0,0.0,0.0,0.0,0.0,0.0,0.0,0.0,0.0,0.0,0.0,0.0,0.0,0.0,0.0,0.0,0.0,0.0,0.0,0.0,0.0,0.0,0.0,0.0,0.0,0.0,0.0,0.0,0.0,0.0,0.0,0.0,0.0,0.0,0.0,0.0,0.0,0.0,0.0,0.0,0.0,0.0,0.0,0.0,0.0,0.0,0.0,0.0,0.0,0.0,0.0,0.2505,0.3088,0.3512,0.359,0.3604,0.3755,0.4148,0.4571,0.4637,0.4209,0.0,0.0,0.0,0.0,0.0,0.0,0.0,0.0,0.0,0.0,0.0,0.0,0.0,0.0,0.0,0.0,0.0,0.0,0.0,0.0,0.0,0.0,0.0,0.0,0.0,0.0,0.0,0.0,0.0,0.0,0.0,0.0,0.0,0.0,0.0,0.0,0.0,0.0,0.0,0.0,0.0,0.0,0.0,0.0,0.0,0.0,0.0,0.0,0.0,0.0,0.0,0.0,0.0,0.0,0.0,0.0,0.0,0.0,0.0,0.0,0.0,0.0,0.0,0.0,0.0,0.0,0.0,0.0,0.0,0.0,0.0,0.0,0.0,0.0,0.0,0.0,0.0,0.0,0.0,0.0,0.0,0.0,0.0,0.0,0.0,0.0,0.0,0.0,0.0,0.0,0.0,0.0,0.0,0.0,0.0,0.0,0.0,0.0,0.0,0.0,0.0,0.0,0.2638,0.3215,0.3633,0.3644,0.3659,0.3851,0.4327,0.4961,0.5142,0.4676,0.0,0.0,0.0,0.0,0.0,0.0,0.0,0.0,0.0,0.0,0.0,0.0,0.0,0.0,0.0,0.0,0.0,0.0,0.0,0.0,0.0,0.0,0.0,0.0,0.0,0.0,0.0,0.0,0.0,0.0,0.0,0.0,0.0,0.0,0.0,0.0,0.0,0.0,0.0,0.0,0.0,0.0,0.0,0.0,0.0,0.0,0.0,0.0,0.0,0.0,0.0,0.0,0.0,0.0,0.0,0.0,0.0,0.0,0.0,0.0,0.1894,0.1796,0.0,0.0,0.0,0.0,0.0,0.0,0.0,0.0,0.0,0.0,0.0,0.0,0.0,0.0,0.0,0.0,0.0,0.0,0.0,0.0,0.0,0.0,0.0,0.0,0.0,0.0,0.0,0.0,0.0,0.0,0.0,0.0,0.0,0.0,0.0,0.0,0.0,0.0,0.0,0.0,0.287,0.3456,0.3873,0.3981,0.4088,0.4338,0.4814,0.5319,0.5433,0.502,0.4865,0.0,0.0,0.0,0.0,0.0,0.0,0.0,0.0,0.0,0.0,0.0,0.0,0.0,0.0,0.0,0.0,0.0,0.0,0.0,0.0,0.0,0.0,0.0,0.0,0.0,0.0,0.0,0.0,0.0,0.0,0.0,0.0,0.0,0.0,0.0,0.0,0.0,0.0,0.0,0.0,0.0,0.0,0.0,0.0,0.0,0.0,0.0,0.0,0.0,0.0,0.0,0.0,0.0,0.0,0.0,0.0,0.0,0.0,0.0,0.2533,0.228,0.0,0.0,0.0,0.0,0.0,0.0,0.0,0.0,0.0,0.0,0.0,0.0,0.0,0.0,0.0,0.0,0.0,0.0,0.0,0.0,0.0,0.0,0.0,0.0,0.0,0.0,0.0,0.0,0.0,0.0,0.0,0.0,0.0,0.0,0.0,0.0,0.0,0.0,0.0,0.0,0.3167,0.3766,0.4217,0.4417,0.4644,0.4929,0.5302,0.5707,0.5795,0.5462,0.534,0.0,0.0,0.0,0.0,0.0,0.0,0.0,0.0,0.0,0.0,0.0,0.0,0.0,0.0,0.0,0.0,0.0,0.0,0.0,0.0,0.0,0.0,0.0,0.0,0.0,0.0,0.0,0.0,0.0,0.0,0.0,0.0,0.0,0.0,0.0,0.0,0.0,0.0,0.0,0.0,0.0,0.0,0.0,0.0,0.0,0.0,0.0,0.0,0.0,0.0,0.0,0.0,0.0,0.3757,0.3639,0.3423,0.3469,0.3557,0.3637,0.3026,0.265,0.2488,0.2632,0.0,0.0,0.0,0.0,0.0,0.0,0.0,0.0,0.0,0.0,0.0,0.0,0.0,0.0,0.0,0.0,0.0,0.0,0.0,0.0,0.0,0.0,0.2598,0.2598,0.2598,0.2596,0.2598,0.0,0.0,0.0,0.0,0.0,0.0,0.0,0.0,0.0,0.0,0.0,0.3483,0.4139,0.4631,0.4861,0.525,0.5582,0.5798,0.6088,0.6152,0.59,0.5822,0.5547,0.0,0.0,0.0,0.0,0.0,0.0,0.0,0.0,0.0,0.0,0.0,0.0,0.0,0.0,0.0,0.0,0.0,0.0,0.0,0.0,0.0,0.0,0.0,0.0,0.0,0.0,0.0,0.0,0.0,0.0,0.0,0.0,0.1852,0.2239,0.0,0.0,0.0,0.0,0.0,0.0,0.0,0.0,0.0,0.0,0.0,0.0,0.0,0.2501,0.3234,0.3563,0.3938,0.4378,0.4378,0.4215,0.3903,0.3861,0.3878,0.3943,0.3848,0.0,0.3182,0.3377,0.0,0.0,0.0,0.0,0.0,0.0,0.0,0.0,0.0,0.0,0.0,0.0,0.0,0.0,0.0,0.0,0.0,0.0,0.0,0.0,0.0,0.0,0.3774,0.3774,0.3774,0.3776,0.3775,0.2999,0.2271,0.2178,0.2023,0.1936,0.0,0.0,0.0,0.0,0.0,0.0,0.3764,0.4575,0.5131,0.5225,0.5852,0.627,0.6305,0.6398,0.6398,0.6244,0.6172,0.6018,0.5766,0.5161,0.0,0.0,0.0,0.0,0.0,0.0,0.0,0.0,0.0,0.0,0.0,0.0,0.0,0.0,0.0,0.0,0.0,0.0,0.0,0.0,0.0,0.0,0.0,0.0,0.0,0.0,0.0,0.0,0.0,0.1899,0.2287,0.2539,0.2492,0.2532,0.0,0.0,0.0,0.0,0.0,0.0,0.0,0.0,0.0,0.3198,0.2884,0.3158,0.4098,0.4108,0.4238,0.4498,0.4498,0.4423,0.4287,0.4406,0.448,0.4503,0.4503,0.4389,0.4195,0.413,0.382,0.3373,0.0,0.0,0.0,0.0,0.3363,0.3582,0.3601,0.3603,0.3617,0.3693,0.0,0.0,0.0,0.0,0.0,0.0,0.0,0.3658,0.3788,0.3912,0.4,0.4,0.4,0.4,0.4,0.3611,0.3202,0.3022,0.2785,0.2603,0.2559,0.0,0.0,0.0,0.0,0.3382,0.4093,0.5038,0.5775,0.6108,0.6669,0.7013,0.7021,0.687,0.6753,0.6697,0.6663,0.6544,0.6307,0.6007,0.5648,0.0,0.0,0.0,0.0,0.0,0.0,0.0,0.0,0.0,0.0,0.0,0.0,0.0,0.0,0.0,0.0,0.0,0.0,0.0,0.0,0.0,0.0,0.0,0.0,0.0,0.0,0.0,0.0,0.2276,0.2613,0.2784,0.2803,0.2879,0.0,0.0,0.0,0.0,0.0,0.0,0.3193,0.3288,0.3462,0.3747,0.3479,0.3667,0.4361,0.4611,0.4727,0.4727,0.4727,0.4727,0.473,0.4776,0.488,0.5025,0.5025,0.5025,0.5009,0.4719,0.4341,0.3933,0.3933,0.3933,0.3933,0.3912,0.4,0.4137,0.4169,0.4203,0.4247,0.4348,0.4199,0.3997,0.4097,0.0,0.0,0.0,0.0,0.4052,0.4155,0.4206,0.423,0.423,0.423,0.423,0.423,0.4176,0.4046,0.3757,0.3476,0.3249,0.3149,0.0,0.0,0.0,0.0,0.3807,0.4581,0.5573,0.6384,0.6851,0.7402,0.7697,0.7606,0.7376,0.7205,0.713,0.7124,0.7002,0.6713,0.6632,0.6295,0.5648,0.0,0.0,0.0,0.0,0.0,0.0,0.0,0.0,0.0,0.0,0.0,0.0,0.0,0.0,0.0,0.0,0.0,0.0,0.0,0.0,0.0,0.0,0.0,0.0,0.0,0.0,0.0,0.0,0.0,0.3048,0.3077,0.0,0.0,0.0,0.0,0.3256,0.3447,0.3615,0.3752,0.3887,0.4021,0.4163,0.4035,0.3977,0.4021,0.4906,0.5356,0.5356,0.5356,0.5356,0.5339,0.4775,0.4833,0.5371,0.5371,0.5371,0.5347,0.502,0.4862,0.4838,0.4838,0.4838,0.4825,0.476,0.4864,0.4996,0.4753,0.4744,0.4851,0.4858,0.4684,0.4464,0.447,0.4334,0.0,0.0,0.4556,0.4654,0.4664,0.4758,0.4859,0.4859,0.4859,0.4859,0.4859,0.4654,0.4378,0.4044,0.3864,0.376,0.3753,0.0,0.3646,0.3904,0.4063,0.4465,0.5336,0.6215,0.6868,0.7146,0.7881,0.8222,0.7905,0.7866,0.7744,0.749,0.7475,0.7324,0.6998,0.6734,0.6576,0.6536,0.5722,0.0,0.0,0.0,0.0,0.0,0.0,0.0,0.0,0.0,0.0,0.0,0.0,0.0,0.0,0.0,0.0,0.0,0.0,0.0,0.0,0.0,0.0,0.0,0.0,0.0,0.0,0.0,0.0,0.3392,0.3497,0.0,0.3673,0.3502,0.3578,0.4035,0.4143,0.4317,0.4621,0.4514,0.4514,0.4648,0.4687,0.4667,0.4578,0.512,0.5404,0.5404,0.5404,0.5404,0.5397,0.5178,0.541,0.5965,0.5749,0.5711,0.5774,0.566,0.5453,0.5209,0.5076,0.5025,0.5038,0.5146,0.5094,0.4972,0.4964,0.4933,0.4903,0.4903,0.4892,0.4866,0.4782,0.4706,0.4662,0.4734,0.4788,0.4832,0.4832,0.4862,0.4903,0.4903,0.4903,0.4903,0.4903,0.4825,0.4724,0.4605,0.4226,0.3925,0.3925,0.3891,0.3964,0.4274,0.4654,0.5159,0.5864,0.6792,0.7495,0.7812,0.8177,0.8349,0.8229,0.8025,0.7784,0.7516,0.7502,0.7351,0.7013,0.6905,0.6775,0.6603,0.6295,0.5849,0.0,0.0,0.0,0.0,0.0,0.0,0.0,0.0,0.0,0.0,0.0,0.0,0.0,0.0,0.0,0.0,0.0,0.0,0.0,0.0,0.0,0.0,0.0,0.0,0.0,0.0,0.3484,0.3709,0.3812,0.3921,0.4055,0.3971,0.4088,0.4535,0.4652,0.4798,0.5026,0.4908,0.488,0.4966,0.5117,0.5155,0.507,0.5288,0.5404,0.5404,0.5404,0.5509,0.5699,0.5699,0.5863,0.6126,0.5947,0.5913,0.5996,0.5949,0.5779,0.5523,0.5387,0.5336,0.5353,0.5486,0.5394,0.5214,0.5308,0.5278,0.52,0.52,0.5264,0.5322,0.5231,0.52,0.52,0.52,0.5174,0.5137,0.5137,0.5108,0.5067,0.5067,0.5067,0.5067,0.5067,0.5011,0.4966,0.4966,0.4575,0.4253,0.4292,0.4306,0.4452,0.4871,0.5362,0.5907,0.6554,0.7359,0.7989,0.8301,0.8456,0.8536,0.8536,0.8331,0.8044,0.766,0.7633,0.7442,0.702,0.7,0.6918,0.674,0.6554,0.6082,0.5297,0.0,0.0,0.0,0.0,0.0,0.0,0.0,0.0,0.0,0.0,0.0,0.0,0.0,0.0,0.0,0.0,0.0,0.0,0.0,0.0,0.0,0.0,0.0,0.3114,0.3407,0.3713,0.3973,0.4017,0.4075,0.4204,0.4399,0.4566,0.4701,0.4951,0.505,0.4923,0.504,0.5106,0.5106,0.53,0.5404,0.5404,0.5404,0.541,0.5431,0.5431,0.573,0.63,0.6293,0.6119,0.582,0.5949,0.6003,0.5999,0.5866,0.5817,0.5817,0.5803,0.58,0.58,0.5806,0.581,0.581,0.5803,0.58,0.58,0.58,0.58,0.58,0.58,0.58,0.58,0.58,0.5701,0.5605,0.5605,0.551,0.541,0.541,0.5407,0.5404,0.5404,0.5243,0.5106,0.5106,0.4897,0.4755,0.4893,0.4929,0.5146,0.5757,0.6198,0.0,0.745,0.7953,0.8347,0.8593,0.8732,0.8811,0.8798,0.8798,0.8544,0.7939,0.79,0.7627,0.7026,0.7,0.7,0.7,0.6479,0.592,0.5324,0.0,0.0,0.0,0.0,0.0,0.0,0.0,0.0,0.0,0.0,0.0,0.0,0.0,0.0,0.0,0.0,0.0,0.0,0.0,0.0,0.0,0.3131,0.3467,0.3467,0.3794,0.4062,0.4136,0.4362,0.4524,0.4558,0.4704,0.4846,0.4984,0.5058,0.5148,0.5261,0.5302,0.5322,0.5322,0.5375,0.5404,0.5404,0.5404,0.5622,0.605,0.605,0.6139,0.6293,0.6146,0.6115,0.6157,0.6047,0.6084,0.6214,0.6174,0.6164,0.614,0.5897,0.58,0.5817,0.5907,0.5947,0.593,0.5831,0.58,0.58,0.58,0.58,0.58,0.58,0.58,0.58,0.58,0.5772,0.5742,0.5742,0.5645,0.5545,0.5545,0.5469,0.5404,0.5404,0.5361,0.5322,0.5322,0.5142,0.5045,0.5228,0.5585,0.6062,0.6716,0.7484,0.0,0.8537,0.8999,0.9225,0.9049,0.907,0.9011,0.8818,0.8798,0.8544,0.7939,0.79,0.7627,0.7026,0.7,0.7,0.7,0.6665,0.6309,0.0,0.0,0.0,0.0,0.0,0.0,0.0,0.0,0.0,0.0,0.0,0.0,0.0,0.0,0.0,0.0,0.0,0.0,0.0,0.0,0.0,0.0,0.3467,0.3785,0.3843,0.4052,0.423,0.4318,0.4545,0.4722,0.4779,0.4906,0.5055,0.5216,0.5226,0.5275,0.5397,0.5404,0.5404,0.5404,0.5404,0.5404,0.5404,0.551,0.5748,0.609,0.6238,0.63,0.6296,0.6177,0.6187,0.6293,0.6175,0.6195,0.63,0.63,0.63,0.6282,0.0,0.0,0.0,0.0,0.6125,0.6115,0.6033,0.6011,0.6011,0.6011,0.6011,0.6011,0.6011,0.6011,0.6011,0.6011,0.5949,0.5885,0.5885,0.578,0.5686,0.5686,0.5583,0.5482,0.5482,0.544,0.5404,0.5404,0.5304,0.0,0.575,0.615,0.6651,0.7349,0.82,0.8872,0.917,0.9491,0.9627,0.9431,0.9284,0.9137,0.8984,0.8865,0.0,0.0,0.0,0.7891,0.7399,0.7374,0.0,0.0,0.0,0.0,0.0,0.0,0.0,0.0,0.4952,0.5123,0.0,0.0,0.0,0.0,0.0,0.0,0.0,0.0,0.0,0.0,0.0,0.0,0.0,0.0,0.0,0.0,0.3847,0.4062,0.4183,0.4224,0.4308,0.4498,0.4637,0.4775,0.4913,0.505,0.5205,0.5385,0.5404,0.5404,0.5404,0.5404,0.0,0.0,0.0,0.5421,0.5443,0.5679,0.582,0.5857,0.6157,0.63,0.63,0.63,0.63,0.63,0.63,0.63,0.63,0.63,0.63,0.63,0.63,0.63,0.63,0.63,0.63,0.63,0.63,0.0,0.0,0.63,0.63,0.63,0.63,0.63,0.63,0.63,0.6172,0.6039,0.6039,0.5933,0.5827,0.5827,0.5718,0.5622,0.5622,0.5533,0.5451,0.548,0.5497,0.5728,0.6407,0.67,0.7097,0.7825,0.8647,0.9288,0.9581,0.9728,0.9788,0.9754,0.9478,0.0,0.9257,0.9004,0.8731,0.8463,0.8382,0.8209,0.7913,0.79,0.79,0.79,0.7668,0.7563,0.7603,0.7271,0.7155,0.7229,0.6514,0.6464,0.0,0.0,0.0,0.0,0.0,0.0,0.0,0.0,0.0,0.0,0.0,0.0,0.0,0.0,0.0,0.3729,0.3987,0.417,0.4197,0.4341,0.4498,0.4644,0.4782,0.4916,0.5046,0.5234,0.5353,0.5392,0.5404,0.5404,0.5404,0.5404,0.5404,0.5404,0.5404,0.5503,0.5724,0.5772,0.5934,0.6201,0.6272,0.0,0.63,0.63,0.63,0.63,0.63,0.63,0.63,0.63,0.63,0.63,0.63,0.63,0.63,0.63,0.63,0.63,0.63,0.63,0.63,0.63,0.63,0.63,0.63,0.63,0.0,0.63,0.6269,0.6246,0.6246,0.6101,0.5958,0.5958,0.5862,0.5762,0.5762,0.5739,0.5771,0.5934,0.6098,0.644,0.7158,0.7546,0.7979,0.867,0.9632,1.031,1.0379,1.0411,1.0324,1.0053,0.9965,0.9838,0.9627,0.9304,0.9011,0.8744,0.8264,0.7965,0.7906,0.79,0.79,0.79,0.7846,0.7957,0.8228,0.8364,0.8553,0.8751,0.7753,0.755,0.0,0.0,0.0,0.0,0.0,0.0,0.0,0.0,0.0,0.0,0.0,0.3015,0.3383,0.0,0.3843,0.3977,0.4196,0.4348,0.4348,0.444,0.4552,0.4688,0.4819,0.4952,0.5083,0.5279,0.5404,0.5404,0.5404,0.5404,0.5404,0.5404,0.5404,0.5404,0.547,0.5562,0.5703,0.5831,0.5984,0.6155,0.6252,0.63,0.63,0.63,0.63,0.6303,0.6375,0.6395,0.6402,0.6467,0.6501,0.6501,0.6501,0.6419,0.631,0.6378,0.6395,0.6406,0.6474,0.6501,0.6501,0.6501,0.6501,0.6501,0.6501,0.6457,0.6395,0.6395,0.6354,0.63,0.63,0.6222,0.6155,0.6155,0.6017,0.5897,0.5897,0.5848,0.5893,0.6192,0.6578,0.7038,0.7647,0.836,0.8944,0.9205,1.0017,1.0601,1.0601,1.0601,1.0539,1.037,1.0199,1.0053,0.9913,0.9625,0.9392,0.9259,0.8965,0.8798,0.8798,0.8798,0.8798,0.8798,0.8798,0.8878,0.9052,0.9185,0.9319,0.9438,0.9035,0.8907,0.0,0.0,0.0,0.0,0.0,0.0,0.0,0.0,0.2768,0.3155,0.3237,0.3371,0.3796,0.3969,0.4089,0.423,0.4395,0.4498,0.4498,0.4498,0.4552,0.4688,0.4819,0.497,0.5143,0.5304,0.5404,0.5404,0.5404,0.5404,0.5404,0.5404,0.5409,0.544,0.5542,0.5625,0.5674,0.5893,0.6016,0.6055,0.6219,0.63,0.63,0.63,0.63,0.6306,0.644,0.6518,0.6546,0.6661,0.6702,0.6702,0.6702,0.6566,0.6389,0.6505,0.6535,0.6552,0.6658,0.6702,0.6702,0.6702,0.6702,0.6702,0.6702,0.6603,0.6501,0.6501,0.6399,0.63,0.63,0.63,0.63,0.63,0.6175,0.6065,0.6112,0.6059,0.6161,0.6633,0.7222,0.7798,0.8317,0.9211,0.9786,0.959,1.0152,1.0601,1.0601,1.0601,1.0601,1.0601,1.0363,1.0173,1.0113,0.9907,0.9754,0.9701,0.9701,0.9701,0.9701,0.9701,0.9701,0.9701,0.9701,0.9727,0.9781,0.9781,0.9841,0.9962,1.0166,1.0134,0.2399,0.2434,0.274,0.2992,0.3045,0.3086,0.0,0.0,0.3306,0.3653,0.372,0.381,0.4099,0.4167,0.4244,0.4433,0.4488,0.4498,0.4498,0.4498,0.4552,0.4688,0.4819,0.5022,0.5332,0.5385,0.5404,0.5404,0.5404,0.5404,0.5404,0.5404,0.5457,0.5576,0.5591,0.5715,0.5952,0.5985,0.6089,0.6266,0.6289,0.63,0.63,0.63,0.63,0.6306,0.644,0.6569,0.6675,0.6695,0.6702,0.6702,0.6702,0.6681,0.6654,0.6668,0.6675,0.6678,0.6695,0.6702,0.6702,0.6702,0.6702,0.6702,0.6702,0.6603,0.6501,0.6501,0.6399,0.63,0.63,0.63,0.63,0.63,0.6286,0.6311,0.65,0.6661,0.7,0.7762,0.8397,0.9038,0.9741,1.0166,1.0264,0.983,1.0239,1.0601,1.0601,1.0601,1.0601,1.0601,1.0574,1.0423,1.0133,1.0072,0.996,0.9714,0.9701,0.9701,0.9701,0.9701,0.9701,0.9701,0.9701,0.982,1.0059,1.0059,1.0326,1.0857,1.089,1.0766,0.2922,0.2825,0.3024,0.0,0.3449,0.3455,0.3692,0.3664,0.3676,0.3971,0.4031,0.4102,0.4334,0.4372,0.4399,0.0,0.4498,0.4498,0.4498,0.4498,0.4552,0.4688,0.4748,0.4901,0.5199,0.5332,0.5404,0.5404,0.5404,0.5404,0.5404,0.5404,0.5458,0.5595,0.5679,0.5808,0.5999,0.6118,0.6216,0.63,0.63,0.63,0.63,0.63,0.6382,0.6539,0.659,0.6739,0.6935,0.6935,0.6935,0.6935,0.6935,0.6935,0.6924,0.6843,0.6813,0.6823,0.6904,0.6935,0.6935,0.6935,0.6935,0.6935,0.6935,0.6783,0.6617,0.6617,0.6467,0.63,0.63,0.63,0.63,0.63,0.63,0.6383,0.6704,0.7115,0.7663,0.8466,0.9395,1.0165,1.0562,1.0847,1.0901,1.0552,1.0564,1.0601,1.0601,1.0601,1.0601,1.0601,1.0601,1.0539,1.0403,1.039,1.0336,1.0231,1.0217,1.0217,1.0217,1.0217,1.0217,1.0217,1.0217,1.0357,1.062,1.062,1.0827,1.1226,1.1226,1.1284,0.3278,0.3195,0.0,0.3706,0.3756,0.3768,0.4001,0.3977,0.398,0.4233,0.4281,0.4324,0.447,0.4498,0.4498,0.4498,0.4498,0.4498,0.4498,0.4498,0.4539,0.4637,0.4678,0.4792,0.5023,0.5209,0.5339,0.54,0.5404,0.5404,0.5404,0.5404,0.5476,0.5652,0.5749,0.5895,0.6082,0.6222,0.63,0.63,0.63,0.63,0.6303,0.634,0.6477,0.6702,0.6735,0.6884,0.7095,0.7095,0.7095,0.7095,0.7095,0.7095,0.7085,0.6991,0.6954,0.6968,0.7061,0.7095,0.7095,0.7095,0.7095,0.7095,0.7095,0.6941,0.6752,0.6752,0.659,0.6413,0.6413,0.6413,0.6412,0.643,0.6478,0.6646,0.7132,0.7702,0.838,0.9244,1.0252,1.1033,1.124,1.142,1.1468,1.1286,1.094,1.068,1.0607,1.0601,1.0601,1.0601,1.0601,1.0601,1.0601,1.0601,1.0601,1.0601,1.0667,1.0713,1.0713,1.0779,1.0819,1.0819,1.0819,1.0918,1.1109,1.1109,1.1263,1.1541,1.1541,1.1703,0.3231,0.0,0.3619,0.3766,0.3894,0.4021,0.416,0.419,0.4244,0.4453,0.4491,0.4491,0.4498,0.4498,0.4498,0.4498,0.4498,0.4498,0.4498,0.4498,0.4505,0.4505,0.4624,0.4752,0.0,0.503,0.5191,0.5385,0.5404,0.5404,0.5404,0.5404,0.552,0.5786,0.58,0.5955,0.6289,0.6296,0.63,0.63,0.63,0.63,0.6306,0.6433,0.6573,0.6709,0.6837,0.6971,0.7095,0.7095,0.7095,0.7095,0.7095,0.7095,0.7095,0.7092,0.7088,0.7092,0.7095,0.7095,0.7095,0.7095,0.7095,0.7095,0.7095,0.7005,0.689,0.689,0.68,0.6685,0.6685,0.6685,0.6702,0.677,0.6931,0.7256,0.7922,0.8542,0.9254,1.0259,1.0962,1.1505,1.1904,1.1918,1.1884,1.187,1.1366,1.0891,1.0626,1.0601,1.0601,1.0601,1.0601,1.0601,1.0601,1.0601,1.0601,1.0601,1.0838,1.099,1.099,1.1241,1.1386,1.1386,1.1386,1.1377,1.1392,1.1392,1.1555,1.1884,1.1884,1.2029,0.3435,0.0,0.3787,0.4008,0.4102,0.4176,0.4358,0.4399,0.4416,0.4488,0.4395,0.4345,0.447,0.4392,0.4345,0.4481,0.4498,0.4532,0.462,0.4634,0.4668,0.4755,0.4728,0.0,0.0,0.0,0.0,0.5382,0.5404,0.5404,0.5404,0.5404,0.5523,0.5793,0.58,0.5958,0.6296,0.63,0.63,0.63,0.63,0.6351,0.6433,0.6481,0.662,0.6833,0.6884,0.6978,0.7095,0.7095,0.7095,0.7095,0.7095,0.7095,0.7095,0.7095,0.7095,0.7095,0.7095,0.7095,0.7095,0.7095,0.7095,0.7095,0.7095,0.7008,0.6897,0.6897,0.6806,0.6702,0.6702,0.6702,0.6778,0.7122,0.7453,0.7917,0.8721,0.9583,1.0374,1.0981,1.1577,1.204,1.2178,1.2037,1.1821,1.1603,1.1243,1.0972,1.0878,1.0873,1.093,1.1107,1.1136,1.1136,1.1136,1.1136,1.1136,1.1136,1.1221,1.1274,1.1274,1.1351,1.1397,1.1397,1.1397,1.1514,1.1732,1.1732,1.1879,1.2167,1.2167,1.2336,0.3621,0.3802,0.3983,0.416,0.4254,0.4341,0.4467,0.4498,0.4474,0.4375,0.4217,0.4118,0.4201,0.4148,0.4151,0.4328,0.4436,0.4549,0.4685,0.4698,0.4748,0.4886,0.4825,0.4859,0.0,0.0,0.0,0.5382,0.5404,0.5404,0.5404,0.5404,0.5523,0.5793,0.58,0.5958,0.6296,0.63,0.63,0.63,0.6351,0.6413,0.6505,0.6597,0.6732,0.69,0.6951,0.7022,0.7095,0.7095,0.7095,0.7095,0.7095,0.7095,0.7095,0.7095,0.7095,0.7095,0.7095,0.7095,0.7095,0.7095,0.7095,0.7095,0.7095,0.7045,0.6971,0.6971,0.6914,0.6868,0.6957,0.7041,0.7246,0.783,0.8351,0.8963,0.9861,1.065,1.1304,1.1712,1.2065,1.2305,1.2305,1.2153,1.1942,1.163,1.1431,1.1286,1.1162,1.1141,1.1214,1.1377,1.1397,1.1397,1.1397,1.1397,1.1397,1.1397,1.1506,1.1575,1.1575,1.1675,1.1719,1.1719,1.1719,1.183,1.2042,1.2042,1.2189,1.2477,1.2477,1.2654,0.3781,0.4014,0.4214,0.4214,0.4362,0.4498,0.4498,0.4491,0.4412,0.4141,0.399,0.3852,0.0,0.0,0.3928,0.4066,0.4321,0.4545,0.4688,0.4711,0.4762,0.0,0.0,0.0,0.0,0.0,0.0,0.5382,0.5404,0.5404,0.5404,0.541,0.553,0.5793,0.581,0.5965,0.6296,0.63,0.6303,0.6313,0.644,0.6511,0.6525,0.6786,0.69,0.6914,0.7049,0.7095,0.7095,0.7095,0.7095,0.7095,0.7095,0.7095,0.7095,0.7095,0.7095,0.7095,0.7095,0.7095,0.7095,0.7095,0.7095,0.7095,0.7095,0.7095,0.7095,0.7095,0.7095,0.7165,0.7437,0.7691,0.8063,0.8871,0.9592,1.0351,1.1264,1.1725,1.2084,1.2459,1.2412,1.2318,1.2295,1.2305,1.2204,1.1964,1.1917,1.1801,1.1466,1.1432,1.1431,1.1444,1.1452,1.1452,1.1452,1.1452,1.1452,1.1452,1.1746,1.1917,1.1917,1.216,1.2305,1.2305,1.2305,1.2305,1.2305,1.2318,1.249,1.2803,1.2813,1.2962,0.4065,0.426,0.4426,0.4426,0.4464,0.4498,0.4498,0.4385,0.4217,0.4,0.3926,0.3797,0.0,0.0,0.0,0.3919,0.4257,0.0,0.4815,0.4845,0.0,0.5244,0.0,0.5119,0.5304,0.5191,0.0,0.0,0.5404,0.5404,0.5404,0.5496,0.5622,0.5796,0.5893,0.6064,0.6296,0.63,0.6354,0.645,0.6484,0.6603,0.6803,0.6874,0.6954,0.7055,0.7082,0.7095,0.7095,0.7095,0.7095,0.7095,0.7095,0.7095,0.7095,0.7095,0.7095,0.7095,0.7095,0.7095,0.7095,0.7095,0.7095,0.7095,0.7095,0.7095,0.7095,0.7095,0.7095,0.7198,0.7621,0.8164,0.8849,0.975,1.071,1.1583,1.2165,1.2597,1.29,1.3005,1.2836,1.2587,1.2338,1.2305,1.2278,1.2214,1.22,1.2093,1.1815,1.1775,1.1846,1.2051,1.2069,1.2069,1.2069,1.2069,1.2069,1.2069,1.2151,1.22,1.22,1.2265,1.2305,1.2305,1.2305,1.2305,1.2305,1.2553,1.272,1.28,1.3006,1.3243,0.418,0.4348,0.4498,0.4498,0.4498,0.4467,0.4355,0.4191,0.3936,0.3469,0.3423,0.0,0.2781,0.2945,0.0,0.0,0.0,0.0,0.4768,0.4862,0.4987,0.0,0.5243,0.0,0.5385,0.53,0.5275,0.0,0.5404,0.5426,0.5482,0.5559,0.5684,0.5885,0.5964,0.6095,0.6296,0.63,0.6371,0.6501,0.6559,0.6698,0.6897,0.6961,0.7032,0.7095,0.7095,0.7095,0.7095,0.7095,0.7095,0.7095,0.7095,0.7095,0.7095,0.7095,0.7095,0.7095,0.7095,0.7095,0.7095,0.7095,0.7095,0.7095,0.7095,0.7095,0.7128,0.7242,0.7341,0.7558,0.8237,0.896,0.9774,1.0798,1.173,1.2511,1.2979,1.3243,1.334,1.3213,1.2979,1.274,1.2553,1.2394,1.2305,1.2305,1.2305,1.2254,1.2087,1.2076,1.2133,1.2285,1.2305,1.2305,1.2305,1.2305,1.2305,1.2305,1.2305,1.2305,1.2305,1.2434,1.2517,1.2517,1.2641,1.2689,1.2705,1.2875,1.3042,1.3156,1.331,1.354,0.4237,0.4368,0.4498,0.4498,0.4481,0.4395,0.4135,0.3984,0.368,0.2888,0.0,0.2748,0.1941,0.2228,0.273,0.3161,0.0,0.4311,0.463,0.4802,0.4949,0.5079,0.5275,0.5404,0.5404,0.5404,0.5402,0.5423,0.5426,0.5476,0.5591,0.5635,0.5776,0.6032,0.6042,0.6125,0.6296,0.63,0.6372,0.6525,0.6648,0.6779,0.6927,0.7052,0.7095,0.7095,0.7095,0.7095,0.7095,0.7095,0.7095,0.7095,0.7095,0.7095,0.7095,0.7095,0.7095,0.7095,0.7095,0.7095,0.7095,0.7095,0.7095,0.7095,0.7095,0.7095,0.7165,0.7459,0.7735,0.8164,0.9104,0.9954,1.0825,1.1886,1.2651,1.3264,1.3673,1.3715,1.3583,1.3307,1.3072,1.2878,1.2807,1.2584,1.2405,1.2365,1.2398,1.2405,1.2374,1.2325,1.2305,1.2305,1.2305,1.2318,1.2358,1.2374,1.2378,1.2418,1.2425,1.2425,1.2425,1.2701,1.2854,1.2854,1.3083,1.3203,1.3203,1.3243,1.337,1.36,1.3657,1.382,0.4447,0.447,0.4498,0.4498,0.4372,0.4197,0.3983,0.3918,0.0,0.0,0.3189,0.302,0.1517,0.1938,0.2598,0.2847,0.0,0.0,0.0,0.0,0.4949,0.0,0.0,0.0,0.0,0.5404,0.0,0.0,0.5566,0.5579,0.5598,0.5811,0.6028,0.6242,0.6249,0.6263,0.63,0.63,0.6426,0.6661,0.6688,0.683,0.7061,0.7085,0.7095,0.7095,0.7095,0.7095,0.7095,0.7095,0.7095,0.7095,0.7095,0.7095,0.7095,0.7095,0.7095,0.7095,0.7095,0.7095,0.7095,0.7095,0.7095,0.7095,0.7095,0.7095,0.7198,0.7632,0.8208,0.8923,0.9865,1.1031,1.2099,1.2688,1.3381,1.3923,1.4008,1.4027,1.3921,1.3586,1.3497,1.3323,1.288,1.2939,1.2966,1.2744,1.2902,1.2959,1.2737,1.247,1.2305,1.2305,1.2305,1.2414,1.269,1.2703,1.2808,1.303,1.3043,1.3043,1.3043,1.31,1.3126,1.3126,1.318,1.3203,1.3203,1.3423,1.3553,1.3613,1.3884,1.4041,0.447,0.4498,0.4498,0.4498,0.4348,0.4101,0.3727,0.0,0.0,0.0,0.2594,0.2433,0.1,0.1358,0.0,0.2465,0.3268,0.0,0.0,0.0,0.0,0.0,0.0,0.0,0.0,0.5467,0.5528,0.5595,0.5732,0.5811,0.5811,0.603,0.6202,0.6296,0.63,0.63,0.63,0.6365,0.6501,0.6702,0.6769,0.6911,0.7095,0.7095,0.7095,0.7095,0.7095,0.7095,0.7095,0.7095,0.7095,0.7095,0.7095,0.7095,0.7095,0.7095,0.7095,0.7095,0.7095,0.7095,0.712,0.7223,0.7185,0.7128,0.7268,0.7475,0.7797,0.837,0.9134,1.0003,1.0943,1.1923,1.2782,1.3247,1.3737,1.4099,1.4099,1.4099,1.4048,1.3891,1.3717,1.3517,1.326,1.3213,1.316,1.3032,1.3123,1.315,1.3016,1.2875,1.2712,1.258,1.2688,1.2832,1.2992,1.3006,1.3063,1.319,1.3203,1.3203,1.3203,1.3333,1.3413,1.3413,1.3577,1.3667,1.3667,1.3797,1.3864,1.3854,1.4032,1.4099,0.4392,0.4467,0.4491,0.4447,0.4294,0.4006,0.344,0.3268,0.0,0.0,0.1654,0.1441,0.0488,0.0762,0.1353,0.0,0.2883,0.3588,0.0,0.0,0.0,0.0,0.0,0.0,0.5404,0.5518,0.0,0.5642,0.5902,0.6059,0.6059,0.6216,0.63,0.63,0.63,0.63,0.63,0.6402,0.6539,0.6702,0.681,0.6937,0.7095,0.7095,0.7095,0.7095,0.7095,0.7095,0.7095,0.7095,0.7095,0.7095,0.7095,0.7095,0.7095,0.7095,0.7095,0.7095,0.7095,0.7095,0.7144,0.7398,0.7345,0.723,0.7581,0.8054,0.8632,0.9376,1.03,1.1258,1.2097,1.2779,1.3328,1.3705,1.3944,1.4099,1.4099,1.4099,1.4099,1.4099,1.3891,1.3673,1.3613,1.3477,1.337,1.3303,1.3343,1.3363,1.3293,1.335,1.328,1.3002,1.3109,1.3213,1.328,1.3297,1.3323,1.3394,1.3383,1.3383,1.3383,1.36,1.371,1.371,1.3968,1.4099,1.4099,1.4099,1.4099,1.4099,1.4099,1.4132,0.4224,0.4362,0.4457,0.4274,0.4123,0.3848,0.3183,0.0,0.0,0.1365,0.0649,0.0169,0.0059,0.033,0.0813,0.1547,0.2594,0.3413,0.3701,0.0,0.0,0.0,0.0,0.0,0.5404,0.5518,0.5652,0.5772,0.6086,0.6269,0.6269,0.6293,0.63,0.63,0.63,0.63,0.63,0.6313,0.645,0.6702,0.6715,0.6847,0.7095,0.7095,0.7095,0.7095,0.7095,0.7095,0.7095,0.7095,0.7095,0.7095,0.7095,0.7095,0.7095,0.7095,0.7095,0.7095,0.7095,0.7095,0.7174,0.7624,0.7587,0.7491,0.8124,0.8815,0.9587,1.0563,1.1694,1.2715,1.3231,1.3685,1.4008,1.405,1.4088,1.4099,1.4099,1.4099,1.4099,1.4099,1.4079,1.3961,1.3646,1.3831,1.3915,1.3617,1.3824,1.3908,1.3593,1.3831,1.3895,1.3563,1.3333,1.33,1.354,1.356,1.369,1.3999,1.4019,1.4019,1.4019,1.4045,1.4048,1.4048,1.4085,1.4099,1.4099,1.4099,1.4099,1.4099,1.4099,1.4229,0.4038,0.4138,0.4162,0.4,0.3797,0.3467,0.2792,0.0,0.2278,0.115,0.0431,0.0,0.0,0.0111,0.0362,0.0856,0.1963,0.2907,0.3337,0.4078,0.4631,0.4762,0.5043,0.0,0.0,0.0,0.5779,0.591,0.6045,0.6122,0.6122,0.6239,0.63,0.63,0.63,0.63,0.63,0.6385,0.6512,0.6702,0.6783,0.6924,0.7095,0.7095,0.7095,0.7095,0.7095,0.7095,0.7095,0.7095,0.7095,0.7095,0.7095,0.7095,0.7095,0.7095,0.7095,0.7095,0.7095,0.7095,0.7213,0.7925,0.8382,0.8748,0.9172,0.9899,1.0805,1.1846,1.2871,1.3694,1.3878,1.4012,1.4099,1.4099,1.4099,1.4099,1.4099,1.4099,1.4099,1.4099,1.4099,1.4059,1.3918,1.4008,1.4048,1.3918,1.4008,1.4052,1.3928,1.4025,1.4052,1.3928,1.3808,1.3781,1.3891,1.3897,1.3961,1.4092,1.4099,1.4099,1.4099,1.4099,1.4099,1.4099,1.4099,1.4099,1.4099,1.4262,1.4338,1.4349,1.4551,1.4698,0.3827,0.3939,0.3953,0.3734,0.3617,0.3345,0.0,0.2656,0.2544,0.1295,0.0483,0.0,0.0,0.0,0.0111,0.0447,0.155,0.2536,0.3018,0.3846,0.4467,0.0,0.0,0.5052,0.0,0.5489,0.5783,0.5873,0.5952,0.5982,0.5947,0.6171,0.63,0.63,0.63,0.63,0.63,0.6399,0.6529,0.6702,0.68,0.6938,0.7095,0.7095,0.7095,0.7095,0.7095,0.7095,0.7095,0.7095,0.7095,0.7095,0.7095,0.7095,0.7095,0.7095,0.7095,0.7095,0.7095,0.7095,0.725,0.8142,0.902,0.985,1.0464,1.1311,1.2257,1.3176,1.3977,1.4542,1.4455,1.4398,1.437,1.437,1.4293,1.4226,1.4226,1.4159,1.4099,1.4099,1.4099,1.4099,1.4099,1.4099,1.4099,1.4099,1.4099,1.4099,1.4099,1.4099,1.4099,1.4099,1.4099,1.4099,1.4099,1.4099,1.4099,1.4099,1.4099,1.4099,1.4099,1.4099,1.4099,1.4099,1.4099,1.4139,1.4215,1.4411,1.4552,1.4645,1.4892,1.5044,0.3607,0.3799,0.3905,0.3503,0.3648,0.363,0.0,0.3015,0.3213,0.1869,0.0744,0.0,0.0,0.0,0.0111,0.0447,0.1512,0.2419,0.2755,0.3609,0.0,0.0,0.0,0.4952,0.5083,0.5401,0.5601,0.5605,0.5846,0.5944,0.5813,0.6123,0.63,0.63,0.63,0.63,0.63,0.6303,0.644,0.6702,0.6702,0.6847,0.7095,0.7095,0.7095,0.7095,0.7095,0.7095,0.7095,0.7095,0.7095,0.7095,0.7095,0.7095,0.7095,0.7095,0.7095,0.7095,0.7095,0.7095,0.7255,0.8193,0.9316,1.0547,1.1949,1.3074,1.3986,1.4532,1.502,1.5331,1.5059,1.499,1.499,1.499,1.4741,1.4494,1.4494,1.4289,1.4099,1.4099,1.4099,1.4099,1.4099,1.4099,1.4099,1.4099,1.4099,1.4099,1.4099,1.4099,1.4099,1.4099,1.4099,1.4099,1.4099,1.4099,1.4099,1.4099,1.4099,1.4099,1.4099,1.4099,1.4099,1.4099,1.4099,1.4229,1.4494,1.4501,1.4669,1.499,1.4997,1.514,0.2864,0.2981,0.2958,0.2602,0.2691,0.266,0.1835,0.2164,0.23,0.1095,0.0396,0.0071,0.0301,0.0565,0.0816,0.1016,0.1905,0.2622,0.2779,0.0,0.0,0.4277,0.4652,0.5041,0.0,0.0,0.5535,0.5727,0.5811,0.5889,0.5937,0.6171,0.63,0.63,0.63,0.63,0.63,0.63,0.6385,0.6566,0.6651,0.6793,0.6968,0.7062,0.7095,0.7095,0.7095,0.7095,0.7095,0.7095,0.7095,0.7095,0.7095,0.7095,0.7095,0.7095,0.7095,0.7095,0.7095,0.7095,0.7285,0.8403,0.9721,1.1115,1.2526,1.3655,1.4592,1.5255,1.5437,1.5378,1.5295,1.5133,1.4997,1.4997,1.4919,1.4781,1.4552,1.4427,1.4322,1.4139,1.4099,1.4099,1.4099,1.4099,1.4099,1.4099,1.4099,1.4099,1.4099,1.4099,1.4099,1.4099,1.4099,1.4099,1.4099,1.4099,1.4099,1.4099,1.4099,1.4099,1.4099,1.4099,1.4099,1.4099,1.4282,1.4418,1.4501,1.4912,1.5259,1.5558,1.5558,1.5593,0.2259,0.2504,0.255,0.2339,0.2573,0.2638,0.1826,0.15,0.117,0.0456,0.0144,0.015,0.0635,0.1263,0.164,0.1445,0.2265,0.2908,0.2848,0.0,0.0,0.4436,0.0,0.0,0.0,0.545,0.555,0.5708,0.5814,0.591,0.5995,0.6186,0.63,0.63,0.63,0.63,0.63,0.6374,0.6518,0.6725,0.6894,0.7117,0.7396,0.7472,0.7567,0.7658,0.7558,0.7459,0.0,0.7286,0.7187,0.7095,0.7095,0.7095,0.7095,0.7095,0.7095,0.7117,0.722,0.7369,0.7711,0.8926,1.0624,1.2416,1.3664,1.4535,1.5213,1.5677,1.5675,1.5546,1.5546,1.5424,1.5302,1.5302,1.5215,1.5088,1.4879,1.4752,1.464,1.4471,1.4444,1.4444,1.4444,1.4444,1.4444,1.4444,1.4444,1.4386,1.4262,1.4249,1.4208,1.4105,1.4099,1.4099,1.4099,1.4099,1.4099,1.4099,1.4099,1.4146,1.4249,1.4249,1.4302,1.4437,1.4596,1.4743,1.4839,1.5319,1.564,1.5808,1.5808,1.5808,0.0,0.2237,0.247,0.247,0.2969,0.3214,0.2291,0.1001,0.0,0.0,0.0,0.0218,0.0927,0.1943,0.2441,0.1731,0.2558,0.321,0.0,0.3682,0.0,0.0,0.5027,0.0,0.5135,0.5415,0.5608,0.5629,0.5856,0.6006,0.6019,0.6211,0.6329,0.6338,0.6358,0.6348,0.63,0.6515,0.68,0.7155,0.7382,0.7784,0.8317,0.834,0.8489,0.873,0.8449,0.8157,0.786,0.7635,0.7367,0.7095,0.7095,0.7095,0.7095,0.7095,0.7095,0.7143,0.7447,0.7871,0.8495,0.9782,1.1937,1.4202,1.5099,1.5573,1.5808,1.5808,1.5808,1.5808,1.5808,1.5808,1.5808,1.5808,1.5613,1.5424,1.5398,1.5195,1.5024,1.5004,1.4997,1.4997,1.4997,1.4997,1.4997,1.4997,1.4997,1.4885,1.4578,1.4545,1.4438,1.4186,1.4159,1.4159,1.4159,1.4126,1.4099,1.4099,1.4119,1.4242,1.4487,1.4514,1.4683,1.499,1.5017,1.516,1.5431,1.5675,1.5808,1.5808,1.5808,1.5808,0.0993,0.0,0.1222,0.1221,0.165,0.1863,0.0,0.0434,0.0,0.0,0.0,0.0131,0.0561,0.1602,0.2254,0.1824,0.2583,0.3237,0.3274,0.0,0.0,0.5006,0.5076,0.5199,0.546,0.5557,0.5684,0.5893,0.5962,0.6072,0.6219,0.642,0.6602,0.6753,0.6911,0.677,0.6309,0.6647,0.7105,0.7638,0.8098,0.8733,0.9508,0.9655,0.9878,1.0107,0.9688,0.9181,0.861,0.8201,0.7661,0.7095,0.7095,0.7095,0.7095,0.7095,0.7095,0.7189,0.7814,0.8471,0.9386,1.1467,1.3125,1.4403,1.4931,1.5424,1.5808,1.5808,1.5808,1.5808,1.5808,1.5808,1.5808,1.5808,1.5755,1.5653,1.5444,1.5356,1.5253,1.5044,1.4997,1.4997,1.4997,1.4997,1.4997,1.4997,1.4997,1.497,1.4892,1.4885,1.4859,1.4803,1.4789,1.4789,1.4789,1.437,1.4099,1.4099,1.4285,1.4427,1.4494,1.4747,1.4919,1.4997,1.52,1.5438,1.5708,1.5775,1.5808,1.5808,1.5808,1.5808,0.0591,0.0551,0.0431,0.0434,0.0651,0.0761,0.0361,0.0,0.0,0.0,0.0,0.012,0.052,0.1529,0.225,0.2101,0.2814,0.3528,0.0,0.0,0.4891,0.5199,0.5289,0.5398,0.5581,0.5711,0.5848,0.5989,0.6085,0.6182,0.6293,0.6583,0.6913,0.7303,0.7601,0.7461,0.6853,0.734,0.784,0.8356,0.8923,0.9665,1.055,1.0663,1.0899,1.1214,1.0647,0.9954,0.917,0.8577,0.7856,0.7095,0.7095,0.7095,0.7117,0.7231,0.742,0.7725,0.8554,0.9849,1.1389,1.2938,1.4117,1.4936,1.5136,1.5478,1.5808,1.5808,1.5808,1.5808,1.5808,1.5808,1.5808,1.5808,1.5808,1.5761,1.5613,1.558,1.5533,1.5402,1.5369,1.5369,1.5369,1.5369,1.5369,1.5369,1.5369,1.5322,1.52,1.5186,1.5133,1.501,1.4997,1.4997,1.4997,1.4702,1.4511,1.4511,1.4647,1.4783,1.4905,1.5088,1.5235,1.5357,1.5518,1.5648,1.5808,1.5808,1.5808,1.5808,1.5808,1.5808,0.0485,0.0571,0.0474,0.0154,0.0077,0.0076,0.0076,0.0,0.0,0.0,0.0,0.0,0.0,0.1722,0.0,0.0,0.0,0.0,0.4667,0.4957,0.517,0.5378,0.5503,0.559,0.5625,0.5838,0.5995,0.6042,0.6234,0.6358,0.6393,0.6826,0.7361,0.7964,0.8404,0.8418,0.7959,0.8408,0.8851,0.9282,0.9855,1.0624,1.1527,1.1568,1.1836,1.2213,1.1547,1.0696,0.9699,0.8919,0.8017,0.7095,0.7095,0.7095,0.7143,0.7484,0.793,0.8548,0.9793,1.1666,1.3608,1.4186,1.4912,1.5535,1.5426,1.5586,1.5808,1.5808,1.5808,1.5808,1.5808,1.5808,1.5808,1.5808,1.5808,1.5808,1.5808,1.5808,1.5808,1.5808,1.5808,1.5808,1.5808,1.5808,1.5808,1.5808,1.5808,1.5715,1.5491,1.5464,1.5364,1.5146,1.512,1.512,1.512,1.512,1.512,1.512,1.5079,1.518,1.5451,1.5464,1.5566,1.5801,1.5808,1.5808,1.5808,1.5808,1.5808,1.5808,1.5808,1.5828,0.0825,0.2007,0.2624,0.0864,0.0423,0.0422,0.0422,0.0,0.0,0.0,0.0,0.0,0.0,0.2377,0.3028,0.0,0.0,0.4518,0.0,0.0,0.517,0.5378,0.5416,0.552,0.5745,0.581,0.5945,0.6235,0.6437,0.6627,0.6797,0.751,0.8194,0.8799,0.9373,0.9794,1.0043,0.9797,0.9961,1.0537,1.0959,1.1655,1.2579,1.2795,1.3075,1.3313,1.2714,1.1682,1.0373,0.9471,0.831,0.7095,0.7095,0.7095,0.7178,0.7844,0.8528,0.9513,1.2152,1.369,1.4565,1.5059,1.5463,1.5713,1.5473,1.5586,1.5808,1.5808,1.5808,1.5808,1.5808,1.5808,1.5808,1.5808,1.5808,1.5808,1.5808,1.5808,1.5808,1.5808,1.5808,1.5808,1.5808,1.5808,1.5808,1.5808,1.5808,1.5788,1.5741,1.5741,1.5721,1.5675,1.5686,1.5686,1.5686,1.5686,1.5686,1.5686,1.5464,1.5464,1.5728,1.5741,1.5761,1.5808,1.5808,1.5808,1.5808,1.5808,1.5808,1.5808,1.5808,1.5953,0.0546,0.1493,0.2108,0.1081,0.1151,0.1476,0.1476,0.0,0.0,0.0,0.0,0.0,0.0,0.0,0.3633,0.3788,0.0,0.4886,0.5069,0.5195,0.5297,0.5385,0.5462,0.5556,0.5683,0.5755,0.5861,0.6018,0.6389,0.6781,0.7203,0.8093,0.9012,0.9946,1.0451,1.0962,1.1465,1.1292,1.1174,1.1136,1.1533,1.2103,1.28,1.2931,1.3206,1.3555,1.2925,1.201,1.0923,1.0121,0.9054,0.7911,0.7911,0.7911,0.8062,0.9268,1.0359,1.1527,1.3543,1.4624,1.5188,1.5507,1.5695,1.5781,1.5648,1.5701,1.5808,1.5808,1.5808,1.5808,1.5808,1.5808,1.5808,1.5808,1.5808,1.5808,1.5808,1.5808,1.5808,1.5808,1.5808,1.5808,1.5808,1.5808,1.5808,1.5808,1.5808,1.5808,1.5808,1.5808,1.5808,1.5808,1.5808,1.5808,1.5808,1.5808,1.5808,1.5808,1.5681,1.5668,1.5783,1.5808,1.5808,1.5808,1.5808,1.5808,1.5808,1.5808,1.5808,1.5796,1.5999,1.6158,0.0246,0.0697,0.1117,0.1141,0.0,0.2124,0.2172,0.0,0.0,0.0,0.0,0.0,0.0,0.3638,0.0,0.4525,0.4876,0.5118,0.5163,0.5304,0.5404,0.5404,0.5489,0.5569,0.5595,0.5719,0.5851,0.5977,0.6542,0.7167,0.7819,0.8802,0.9844,1.091,1.1329,1.179,1.2305,1.2305,1.2067,1.1614,1.1919,1.2288,1.2693,1.276,1.3019,1.339,1.29,1.2223,1.1401,1.0853,1.0007,0.9065,0.9065,0.9161,0.9482,1.0971,1.2231,1.3365,1.455,1.5225,1.56,1.5749,1.5808,1.5808,1.5808,1.5808,1.5808,1.5808,1.5808,1.5808,1.5808,1.5808,1.5808,1.5808,1.5808,1.5808,1.5808,1.5808,1.5808,1.5808,1.5808,1.5808,1.5808,1.5808,1.5808,1.5808,1.5808,1.5808,1.5808,1.5808,1.5808,1.5808,1.5808,1.5808,1.5808,1.5808,1.5808,1.5808,1.5808,1.5808,1.5808,1.5808,1.5808,1.5808,1.5808,1.5808,1.5808,1.5808,1.5841,1.5915,1.6178,1.6383,0.0247,0.0427,0.0675,0.1165,0.1422,0.0,0.1791,0.2029,0.0,0.2364,0.0,0.0,0.0,0.3786,0.4402,0.4803,0.5,0.5163,0.5349,0.5388,0.5404,0.5404,0.5405,0.5467,0.5584,0.5722,0.6003,0.6502,0.7273,0.8059,0.8855,0.9844,1.0691,1.1338,1.1753,1.2067,1.2305,1.2305,1.2286,1.2233,1.2261,1.2302,1.2354,1.2656,1.282,1.2858,1.2941,1.255,1.1837,1.1667,1.1155,1.0459,1.0459,1.084,1.1527,1.2632,1.3492,1.4262,1.5353,1.5749,1.5784,1.5808,1.5808,1.5808,1.5808,1.5808,1.5808,1.5808,1.5808,1.5808,1.5808,1.5808,1.5808,1.5808,1.5808,1.5808,1.5808,1.5808,1.5808,1.5808,1.5808,1.5808,1.5808,1.5808,1.5808,1.5808,1.5808,1.5808,1.5808,1.5808,1.5808,1.5808,1.5808,1.5808,1.5808,1.5808,1.5808,1.5808,1.5808,1.5808,1.5808,1.5808,1.5808,1.5808,1.5808,1.5808,1.5808,1.5808,1.596,1.6258,1.6284,1.6604,0.0426,0.0673,0.0964,0.1085,0.0,0.0,0.0,0.2671,0.3064,0.303,0.3321,0.0,0.0,0.0,0.4719,0.4878,0.5118,0.5311,0.5385,0.5404,0.5404,0.5404,0.5404,0.5419,0.5469,0.5824,0.6292,0.6871,0.7852,0.8884,0.9937,1.0663,1.1344,1.1938,1.2104,1.2222,1.2305,1.2305,1.2305,1.2305,1.2305,1.2305,1.2295,1.2428,1.26,1.2811,1.29,1.2711,1.2329,1.2326,1.1987,1.1478,1.1478,1.1908,1.2619,1.3359,1.4117,1.4851,1.556,1.5808,1.5808,1.5808,1.5808,1.5808,1.5808,1.5808,1.5808,1.5808,1.5808,1.5808,1.5808,1.5808,1.5808,1.5808,1.5808,1.5808,1.5808,1.5808,1.5808,1.5808,1.5808,1.5808,1.5808,1.5808,1.5808,1.5808,1.5808,1.5808,1.5808,1.5808,1.5808,1.5808,1.5808,1.5808,1.5808,1.5808,1.5808,1.5808,1.5808,1.5808,1.5808,1.5808,1.5808,1.5808,1.5808,1.5895,1.6106,1.6106,1.6253,1.6547,1.6759,1.6979,0.0831,0.0847,0.0969,0.0,0.0,0.0,0.2464,0.3006,0.3456,0.3516,0.3862,0.0,0.0,0.0,0.0,0.0,0.5185,0.5404,0.5404,0.5404,0.5404,0.5404,0.5433,0.5491,0.5553,0.616,0.6829,0.7488,0.8604,0.9714,1.0788,1.1319,1.1808,1.2286,1.2305,1.2305,1.2305,1.2305,1.2305,1.2305,1.2305,1.2305,1.2305,1.2305,1.243,1.266,1.2886,1.292,1.2815,1.3039,1.295,1.2662,1.2662,1.3019,1.3595,1.4067,1.4648,1.5252,1.5661,1.5808,1.5808,1.5808,1.5808,1.5808,1.5808,1.5808,1.5808,1.5808,1.5808,1.5808,1.5808,1.5808,1.5808,1.5808,1.5808,1.5808,1.5808,1.5808,1.5808,1.5808,1.5808,1.5808,1.5808,1.5808,1.5808,1.5808,1.5808,1.5841,1.5947,1.596,1.5993,1.6087,1.6082,1.6082,1.6082,1.6082,1.6082,1.6082,1.6082,1.6001,1.5815,1.5808,1.5848,1.5953,1.596,1.6112,1.6438,1.6438,1.6585,1.686,1.7093,1.7253,0.1468,0.0859,0.0539,0.0,0.0,0.0,0.2891,0.2866,0.3245,0.3713,0.0,0.4542,0.4678,0.4809,0.0,0.4906,0.5185,0.5404,0.5404,0.5404,0.5404,0.5404,0.5521,0.5683,0.5888,0.6756,0.7647,0.8453,0.9568,1.0564,1.1363,1.179,1.2086,1.2289,1.2305,1.2305,1.2305,1.2305,1.2305,1.2305,1.2305,1.2305,1.2305,1.2305,1.2305,1.2331,1.2936,1.3203,1.3243,1.3848,1.4099,1.4099,1.4099,1.4269,1.4552,1.4879,1.5173,1.5444,1.5708,1.5808,1.5808,1.5808,1.5808,1.5808,1.5808,1.5808,1.5808,1.5808,1.5808,1.5808,1.5808,1.5808,1.5808,1.5808,1.5808,1.5808,1.5808,1.5808,1.5808,1.5808,1.5808,1.5808,1.5808,1.5808,1.5808,1.5808,1.5796,1.5927,1.6264,1.6304,1.6411,1.6673,1.6707,1.6707,1.6707,1.6707,1.6707,1.6707,1.6707,1.6434,1.5823,1.5815,1.5967,1.6297,1.6304,1.6444,1.6694,1.6694,1.6873,1.7206,1.7206,1.7347,0.1199,0.1024,0.0,0.129,0.0,0.0,0.0,0.3471,0.0,0.0,0.4619,0.4792,0.4836,0.4946,0.0,0.5043,0.5241,0.5404,0.5404,0.5404,0.5404,0.5404,0.564,0.598,0.6424,0.7483,0.8551,0.9547,1.0506,1.1332,1.2003,1.215,1.2233,1.2305,1.2305,1.2305,1.2305,1.2305,1.2305,1.2305,1.2305,1.2305,1.2305,1.2305,1.2305,1.2331,1.2936,1.3203,1.3243,1.3848,1.4099,1.4099,1.4099,1.4417,1.4865,1.4964,1.5289,1.5688,1.5763,1.5808,1.5808,1.5808,1.5808,1.5808,1.5808,1.5808,1.5808,1.5808,1.5808,1.5808,1.5808,1.5808,1.5808,1.5808,1.5808,1.5808,1.5808,1.5808,1.5808,1.5808,1.5808,1.5808,1.5808,1.5808,1.5808,1.5808,1.5993,1.6258,1.654,1.6573,1.6613,1.6693,1.6707,1.6707,1.6707,1.6707,1.6707,1.6707,1.6707,1.6614,1.6441,1.6434,1.6474,1.6573,1.6573,1.6733,1.7052,1.7052,1.7193,1.7481,1.7481,1.7528,0.1328,0.155,0.0,0.2049,0.2602,0.3201,0.3536,0.0,0.0,0.0,0.4879,0.4915,0.4969,0.505,0.51,0.51,0.5268,0.5404,0.5404,0.5442,0.5508,0.5594,0.6008,0.6511,0.7042,0.826,0.9384,1.0269,1.1145,1.1827,1.2286,1.2305,1.2305,1.2305,1.2305,1.2305,1.2305,1.2305,1.2305,1.2305,1.2305,1.2305,1.2305,1.2305,1.2305,1.2331,1.2936,1.334,1.3587,1.3952,1.4099,1.4099,1.4099,1.4464,1.4997,1.4997,1.5342,1.5808,1.5808,1.5808,1.5808,1.5808,1.5808,1.5808,1.5808,1.5808,1.5808,1.5808,1.5808,1.5808,1.5808,1.5808,1.5808,1.5808,1.5808,1.5808,1.5808,1.5808,1.5808,1.5808,1.5808,1.5808,1.5808,1.5808,1.5848,1.5973,1.6365,1.6724,1.6886,1.6981,1.7067,1.7067,1.7067,1.7067,1.7067,1.7067,1.7067,1.7067,1.7067,1.7067,1.7067,1.6827,1.676,1.6906,1.6893,1.7053,1.736,1.736,1.7441,1.7595,1.7595,1.7595,0.1663,0.0,0.0,0.2797,0.3506,0.0,0.4622,0.4607,0.4632,0.502,0.0,0.4984,0.5104,0.5128,0.5128,0.5128,0.5279,0.5404,0.5404,0.5529,0.5716,0.5942,0.656,0.7202,0.7788,0.9076,1.013,1.0714,1.1555,1.2104,1.2289,1.2305,1.2305,1.2305,1.2305,1.2305,1.2305,1.2305,1.2305,1.2305,1.2305,1.2305,1.2305,1.2305,1.2331,1.2412,1.2963,1.354,1.4099,1.4099,1.4099,1.4099,1.4099,1.4464,1.4997,1.4997,1.5342,1.5808,1.5808,1.5808,1.5808,1.5808,1.5808,1.5808,1.5808,1.5808,1.5808,1.5808,1.5808,1.5808,1.5808,1.5808,1.5808,1.5808,1.5808,1.5808,1.5808,1.5808,1.5808,1.5808,1.5808,1.5808,1.5808,1.5808,1.5915,1.6278,1.6831,1.7213,1.7226,1.7448,1.7595,1.7595,1.7595,1.7595,1.7595,1.7595,1.7595,1.7595,1.7595,1.7595,1.7595,1.7068,1.6927,1.7226,1.7239,1.736,1.7595,1.7595,1.7595,1.7595,1.7595,1.7608,0.1374,0.1883,0.0,0.0,0.3506,0.4223,0.4609,0.4676,0.4746,0.5036,0.5203,0.5302,0.5332,0.5336,0.5336,0.5336,0.5375,0.5404,0.5404,0.5648,0.6008,0.647,0.7116,0.7902,0.8866,0.9895,1.0714,1.1207,1.1863,1.2249,1.2305,1.2305,1.2305,1.2305,1.2305,1.2305,1.2305,1.2305,1.2305,1.2305,1.2305,1.2305,1.2305,1.2305,1.2565,1.301,1.3143,1.354,1.4099,1.4099,1.4099,1.4099,1.4099,1.4464,1.4997,1.4997,1.5342,1.5808,1.5808,1.5808,1.5808,1.5808,1.5808,1.5808,1.5808,1.5808,1.5808,1.5808,1.5808,1.5808,1.5808,1.5808,1.5808,1.5808,1.5808,1.5808,1.5808,1.5808,1.5808,1.5808,1.5808,1.5808,1.5808,1.5808,1.5981,1.6533,1.6959,1.7286,1.7488,1.7555,1.7595,1.7595,1.7595,1.7595,1.7595,1.7595,1.7595,1.7595,1.7595,1.7595,1.7595,1.7475,1.7441,1.7515,1.7515,1.7535,1.7595,1.7595,1.7595,1.7595,1.7595,1.7716,0.1135,0.0,0.0,0.3276,0.0,0.4244,0.4616,0.4698,0.4755,0.4959,0.514,0.5282,0.5382,0.5404,0.5404,0.5404,0.5458,0.5529,0.5624,0.6066,0.6576,0.7116,0.7853,0.8643,0.946,1.039,1.1067,1.138,1.1962,1.2305,1.2305,1.2305,1.2305,1.2305,1.2305,1.2305,1.2305,1.2305,1.2305,1.2305,1.2305,1.2305,1.2305,1.2305,1.2632,1.3203,1.3203,1.354,1.4099,1.4099,1.4099,1.4099,1.4099,1.4464,1.4997,1.4997,1.5342,1.5808,1.5808,1.5808,1.5808,1.5808,1.5808,1.5808,1.5808,1.5808,1.5808,1.5808,1.5808,1.5808,1.5808,1.5808,1.5808,1.5808,1.5808,1.5808,1.5808,1.5808,1.5808,1.5808,1.5808,1.5808,1.5808,1.6041,1.6387,1.6879,1.7193,1.7441,1.7575,1.7595,1.7595,1.7595,1.7595,1.7595,1.7595,1.7595,1.7595,1.7595,1.7595,1.7662,1.7789,1.7789,1.7789,1.7789,1.7943,1.803,1.803,1.7876,1.7862,1.803,1.7869,1.7956,0.089,0.0,0.2988,0.3771,0.4082,0.0,0.4551,0.464,0.4701,0.4842,0.4989,0.5153,0.5322,0.5378,0.5404,0.5404,0.5546,0.574,0.6,0.6617,0.7267,0.7902,0.8659,0.9348,0.9885,1.0724,1.1275,1.1389,1.1962,1.2305,1.2305,1.2305,1.2305,1.2305,1.2305,1.2305,1.2305,1.2305,1.2305,1.2305,1.2305,1.2305,1.2305,1.2305,1.2632,1.3203,1.3203,1.354,1.4099,1.4099,1.4099,1.4099,1.4099,1.4464,1.4997,1.4997,1.5342,1.5808,1.5808,1.5808,1.5808,1.5808,1.5808,1.5808,1.5808,1.5808,1.5808,1.5808,1.5808,1.5808,1.5808,1.5808,1.5808,1.5808,1.5808,1.5808,1.5808,1.5808,1.5808,1.5808,1.5848,1.5861,1.5815,1.6334,1.6827,1.7079,1.7388,1.7595,1.7595,1.7595,1.7595,1.7595,1.7595,1.7595,1.7595,1.7642,1.7675,1.7675,1.7722,1.7849,1.8076,1.8129,1.8156,1.8156,1.8376,1.8504,1.8504,1.8216,1.8236,1.8484,1.8223,1.8256,0.0563,0.0,0.2964,0.0,0.4011,0.4214,0.0,0.0,0.4563,0.0,0.4923,0.5106,0.5135,0.5279,0.5404,0.5404,0.5657,0.6033,0.6527,0.7165,0.7967,0.8971,0.9444,0.9907,1.0444,1.1032,1.138,1.1397,1.1962,1.2305,1.2305,1.2305,1.2305,1.2305,1.2305,1.2305,1.2305,1.2305,1.2305,1.2305,1.2305,1.2305,1.2305,1.2305,1.2632,1.3203,1.3203,1.354,1.4099,1.4099,1.4099,1.4099,1.4099,1.4464,1.4997,1.4997,1.5342,1.5808,1.5808,1.5808,1.5808,1.5808,1.5808,1.5808,1.5808,1.5808,1.5808,1.5808,1.5808,1.5808,1.5808,1.5808,1.5808,1.5808,1.5808,1.5808,1.5808,1.5808,1.5808,1.5808,1.6039,1.6144,1.5848,1.6447,1.6914,1.6793,1.7247,1.7595,1.7595,1.7595,1.7595,1.7595,1.7595,1.7595,1.7595,1.7816,1.7949,1.7949,1.823,1.8404,1.843,1.8657,1.8776,1.8776,1.8597,1.8504,1.8504,1.8464,1.8464,1.8504,1.845,1.857,0.1323,0.2004,0.2728,0.0,0.3887,0.4011,0.4163,0.4271,0.4382,0.4552,0.4742,0.4919,0.5069,0.517,0.5268,0.5382,0.5781,0.6285,0.6895,0.7653,0.8501,0.9462,0.9875,1.0222,1.0569,1.095,1.1241,1.1391,1.1817,1.214,1.2291,1.2305,1.2305,1.2305,1.2305,1.2305,1.2305,1.2305,1.2305,1.2305,1.2305,1.2305,1.2305,1.2305,1.2632,1.3203,1.3203,1.354,1.4099,1.4099,1.4099,1.4099,1.4099,1.4464,1.4997,1.4997,1.5342,1.5808,1.5808,1.5808,1.5808,1.5808,1.5808,1.5808,1.5808,1.5808,1.5808,1.5808,1.5808,1.5808,1.5808,1.5808,1.5808,1.5808,1.594,1.6092,1.6134,1.5961,1.5867,1.6046,1.6046,1.6126,1.6421,1.6668,1.6921,1.7174,1.7428,1.7595,1.7595,1.7595,1.7595,1.7595,1.7595,1.7655,1.7816,1.7929,1.8076,1.827,1.8417,1.8564,1.8724,1.8844,1.8984,1.9179,1.9059,1.8992,1.8992,1.8811,1.8818,1.9007,1.8811,1.8891,0.176,0.2118,0.242,0.3341,0.3634,0.3763,0.0,0.0,0.4244,0.4392,0.4542,0.4718,0.4953,0.5057,0.5153,0.53,0.5842,0.6523,0.7295,0.8113,0.8965,0.9899,1.0222,1.0436,1.0593,1.0838,1.1082,1.1279,1.1665,1.1991,1.2187,1.2265,1.2305,1.2305,1.2305,1.2305,1.2305,1.2305,1.2305,1.2305,1.2305,1.2305,1.2305,1.2305,1.2632,1.3203,1.3203,1.354,1.4099,1.4099,1.4099,1.4099,1.4099,1.4464,1.4997,1.4997,1.5342,1.5808,1.5808,1.5808,1.5808,1.5808,1.5808,1.5808,1.5808,1.5808,1.5808,1.5808,1.5808,1.5808,1.5808,1.5808,1.5821,1.5913,1.6124,1.6325,1.6447,1.6247,1.6094,1.6285,1.6213,1.6222,1.6633,1.6827,1.7081,1.7528,1.7595,1.7595,1.7595,1.7595,1.7595,1.7595,1.7655,1.7782,1.7982,1.8142,1.8336,1.8591,1.8685,1.8825,1.9011,1.9038,1.9138,1.9395,1.9395,1.9395,1.9395,1.9145,1.9166,1.9395,1.9138,1.9158,0.1182,0.163,0.2085,0.2776,0.3185,0.3458,0.0,0.0,0.4204,0.421,0.4375,0.4552,0.4698,0.4926,0.51,0.5118,0.5833,0.6757,0.7808,0.8546,0.937,1.0428,1.0569,1.0593,1.0601,1.0838,1.101,1.1024,1.1569,1.1913,1.1917,1.216,1.2305,1.2305,1.2305,1.2305,1.2305,1.2305,1.2305,1.2305,1.2305,1.2305,1.2305,1.2305,1.2632,1.3203,1.3203,1.354,1.4099,1.4099,1.4099,1.4099,1.4099,1.4464,1.4997,1.4997,1.5342,1.5808,1.5808,1.5808,1.5808,1.5808,1.5808,1.5808,1.5808,1.5808,1.5808,1.5808,1.5808,1.5808,1.5808,1.5808,1.5875,1.6198,1.6284,1.6371,1.6627,1.6673,1.6601,1.6427,1.6693,1.6714,1.5988,1.6807,1.7562,1.7608,1.7595,1.7595,1.7595,1.7595,1.7595,1.7595,1.7836,1.7975,1.8009,1.8516,1.8856,1.8884,1.9179,1.9354,1.9374,1.9374,1.9381,1.9395,1.9395,1.9395,1.9395,1.9381,1.9381,1.9395,1.9381,1.9381,0.0775,0.1146,0.0,0.2594,0.2862,0.3009,0.3492,0.3709,0.3888,0.415,0.4257,0.4362,0.4539,0.4893,0.5237,0.5446,0.6286,0.7248,0.8185,0.8901,0.9636,1.0506,1.0601,1.0601,1.0601,1.0687,1.0885,1.1234,1.1454,1.175,1.214,1.2254,1.2305,1.2305,1.2305,1.2305,1.2305,1.2305,1.2305,1.2305,1.2305,1.2305,1.2305,1.2305,1.2632,1.3203,1.3203,1.354,1.4099,1.4099,1.4099,1.4099,1.4099,1.4464,1.4997,1.4997,1.5342,1.5808,1.5808,1.5808,1.5808,1.5808,1.5808,1.5808,1.5808,1.5808,1.5808,1.5808,1.5808,1.5808,1.5808,1.596,1.6245,1.6758,1.7012,1.7154,1.7261,1.6974,1.672,1.6768,1.68,1.684,1.6941,1.7301,1.7595,1.7595,1.7595,1.7595,1.7595,1.7595,1.7742,1.8137,1.8069,1.8162,1.8535,1.8776,1.8991,1.9213,1.9334,1.9395,1.9395,1.9395,1.9395,1.9395,1.9395,1.9395,1.9395,1.9395,1.9395,1.9395,1.9395,1.9395,0.0381,0.0678,0.0,0.0,0.2467,0.2666,0.3287,0.3518,0.3691,0.3998,0.4194,0.4353,0.4534,0.5062,0.5551,0.5821,0.6653,0.7618,0.8624,0.9246,0.9851,1.0515,1.0601,1.0601,1.0601,1.0601,1.0786,1.1226,1.1352,1.1619,1.214,1.2245,1.2305,1.2305,1.2305,1.2305,1.2305,1.2305,1.2305,1.2305,1.2305,1.2305,1.2305,1.2305,1.2632,1.3203,1.3203,1.354,1.4099,1.4099,1.4099,1.4105,1.4195,1.4551,1.501,1.5093,1.5418,1.5808,1.5808,1.5808,1.5808,1.5808,1.5808,1.5808,1.5808,1.5808,1.5808,1.5808,1.5808,1.5828,1.594,1.6285,1.6704,1.7099,1.7394,1.7595,1.7595,1.7288,1.7041,1.7181,1.7088,1.7128,1.7528,1.7595,1.7595,1.7595,1.7595,1.7595,1.7595,1.7595,1.7816,1.8337,1.8256,1.8363,1.8856,1.9004,1.9158,1.9388,1.9395,1.9395,1.9395,1.9395,1.9395,1.9395,1.9395,1.9395,1.9395,1.9395,1.9395,1.9395,1.9395,1.9395,0.0,0.0,0.0,0.0,0.0,0.0,0.2967,0.3344,0.3625,0.3766,0.4165,0.4533,0.4692,0.5422,0.6061,0.6233,0.6921,0.7873,0.9137,0.9604,1.001,1.0537,1.0601,1.0601,1.0601,1.0601,1.0705,1.099,1.1252,1.1548,1.189,1.216,1.2305,1.2305,1.2305,1.2305,1.2305,1.2305,1.2305,1.2305,1.2305,1.2305,1.2305,1.2311,1.2645,1.3203,1.321,1.3547,1.4099,1.4099,1.4099,1.4126,1.4398,1.4703,1.503,1.5302,1.5566,1.5808,1.5808,1.5808,1.5808,1.5808,1.5808,1.5808,1.5808,1.5808,1.5808,1.5808,1.5815,1.5888,1.6244,1.6758,1.7206,1.7213,1.7414,1.7595,1.7595,1.7595,1.7595,1.7595,1.7595,1.7595,1.7595,1.7595,1.7595,1.7595,1.7595,1.7595,1.7595,1.7595,1.7756,1.8177,1.8397,1.8617,1.8883,1.9213,1.9395,1.9395,1.9395,1.9395,1.9395,1.9395,1.9395,1.9395,1.9395,1.9395,1.9395,1.9395,1.9395,1.9395,1.9395,1.9395,0.0,0.0,0.0,0.0,0.0,0.0,0.2666,0.3032,0.3315,0.3596,0.3952,0.4397,0.5021,0.5643,0.6415,0.7477,0.7996,0.8599,0.9529,0.9947,1.0269,1.0569,1.0601,1.0601,1.0601,1.0601,1.0792,1.1252,1.1359,1.1633,1.216,1.2258,1.2305,1.2305,1.2305,1.2305,1.2305,1.2305,1.2305,1.2305,1.2305,1.2305,1.2311,1.2553,1.2858,1.321,1.3413,1.3714,1.4099,1.4099,1.4099,1.4126,1.4398,1.4703,1.503,1.5302,1.5566,1.5808,1.5808,1.5808,1.5808,1.5808,1.5808,1.5808,1.5808,1.5808,1.5808,1.5808,1.5973,1.6278,1.6811,1.7066,1.7253,1.7441,1.7548,1.7595,1.7595,1.7595,1.7595,1.7595,1.7595,1.7595,1.7595,1.7595,1.7595,1.7595,1.7595,1.7595,1.7595,1.7595,1.7809,1.8364,1.8598,1.8865,1.9226,1.9348,1.9395,1.9395,1.9395,1.9395,1.9395,1.9395,1.9395,1.9395,1.9395,1.9395,1.9395,1.9395,1.9395,1.9395,1.9395,1.9395,0.0,0.0,0.0,0.0,0.0,0.0,0.2644,0.2905,0.3106,0.3411,0.3786,0.4268,0.4962,0.562,0.6492,0.7822,0.8304,0.8849,0.9792,1.0207,1.0474,1.0593,1.0601,1.0601,1.0601,1.0601,1.0787,1.1201,1.1339,1.1666,1.2271,1.2305,1.2305,1.2305,1.2305,1.2305,1.2305,1.2305,1.2305,1.2305,1.2305,1.2305,1.2311,1.265,1.2948,1.3217,1.3473,1.3794,1.4099,1.4099,1.4099,1.4139,1.4543,1.4832,1.5051,1.5424,1.5673,1.5808,1.5808,1.5808,1.5808,1.5808,1.5808,1.5808,1.5808,1.5808,1.5808,1.5808,1.612,1.6585,1.7066,1.728,1.7414,1.7555,1.7595,1.7595,1.7595,1.7595,1.7595,1.7595,1.7595,1.7595,1.7595,1.7595,1.7595,1.7595,1.7595,1.7595,1.7595,1.7595,1.7923,1.8778,1.8825,1.8952,1.9361,1.9395,1.9395,1.9395,1.9395,1.9395,1.9395,1.9395,1.9395,1.9395,1.9395,1.9395,1.9395,1.9395,1.9395,1.9395,1.9395,1.9395,0.0693,0.1033,0.0,0.0,0.2139,0.0,0.2742,0.2882,0.2971,0.3206,0.3619,0.4115,0.4687,0.542,0.6328,0.7526,0.8067,0.8732,0.9894,1.0309,1.0506,1.0539,1.0546,1.0561,1.0594,1.0601,1.0713,1.0977,1.1281,1.1686,1.2225,1.2285,1.2305,1.2305,1.2305,1.2305,1.2305,1.2305,1.2305,1.2305,1.2305,1.2305,1.2311,1.2683,1.2965,1.3217,1.3523,1.382,1.4099,1.4099,1.4099,1.4163,1.4718,1.497,1.5064,1.5566,1.5763,1.5808,1.5808,1.5808,1.5808,1.5808,1.5808,1.5808,1.5808,1.5808,1.5809,1.5888,1.6294,1.678,1.7153,1.7414,1.7595,1.7595,1.7595,1.7595,1.7595,1.7595,1.7595,1.7595,1.7595,1.7595,1.7595,1.7595,1.7595,1.7595,1.7595,1.7595,1.7595,1.7729,1.8217,1.9281,1.9087,1.9013,1.9368,1.9395,1.9395,1.9395,1.9395,1.9395,1.9395,1.9395,1.9395,1.9395,1.9395,1.9395,1.9395,1.9395,1.9395,1.9395,1.9395,1.9395,0.1891,0.1908,0.1979,0.2461,0.0,0.0,0.2518,0.2743,0.2914,0.2971,0.3306,0.3829,0.4585,0.516,0.5892,0.7049,0.7622,0.835,0.9603,0.9834,0.9955,1.0166,1.02,1.0294,1.0566,1.0601,1.0713,1.0977,1.15,1.1848,1.1969,1.2187,1.2305,1.2305,1.2305,1.2305,1.2305,1.2305,1.2305,1.2305,1.2305,1.2305,1.2318,1.2872,1.3153,1.323,1.3774,1.4045,1.4099,1.4099,1.4099,1.4132,1.4469,1.4761,1.5044,1.5362,1.5613,1.5808,1.5808,1.5808,1.5808,1.5808,1.5808,1.5808,1.5808,1.5808,1.5901,1.6387,1.6608,1.6827,1.7388,1.7568,1.7595,1.7595,1.7595,1.7595,1.7595,1.7595,1.7595,1.7595,1.7595,1.7595,1.7595,1.7595,1.7595,1.7595,1.7595,1.7595,1.7595,1.8451,1.914,1.9368,1.9328,1.9314,1.9388,1.9395,1.9395,1.9395,1.9395,1.9395,1.9395,1.9395,1.9395,1.9395,1.9395,1.9395,1.9395,1.9395,1.9395,1.9395,1.9395,1.9395,0.2265,0.225,0.2267,0.2531,0.0,0.0,0.0,0.2703,0.2819,0.2884,0.3111,0.3505,0.4176,0.463,0.5255,0.6331,0.6842,0.7462,0.8508,0.9116,0.9565,0.9866,0.99,1.002,1.0315,1.0356,1.0529,1.097,1.1286,1.1574,1.1884,1.2031,1.216,1.2298,1.2305,1.2305,1.2305,1.2305,1.2305,1.2305,1.2305,1.2305,1.2318,1.2791,1.3076,1.3213,1.3654,1.3948,1.4099,1.4099,1.4099,1.4126,1.4398,1.4703,1.503,1.5302,1.5566,1.5808,1.5808,1.5808,1.5808,1.5808,1.5808,1.5808,1.5808,1.5808,1.5928,1.6527,1.6707,1.684,1.7441,1.7595,1.7595,1.7595,1.7595,1.7595,1.7595,1.7595,1.7595,1.7595,1.7595,1.7595,1.7595,1.7595,1.7595,1.7595,1.7595,1.7822,1.8424,1.9027,1.9395,1.9395,1.9395,1.9395,1.9395,1.9395,1.9395,1.9395,1.9395,1.9395,1.9395,1.9395,1.9395,1.9395,1.9395,1.9395,1.9395,1.9527,1.9601,1.9601,1.9748,1.98,0.0,0.0,0.0,0.0,0.0,0.26,0.0,0.0,0.0,0.2872,0.2987,0.3209,0.3695,0.4048,0.4553,0.5432,0.5899,0.6435,0.7251,0.8183,0.8963,0.9466,0.9527,0.966,0.9993,1.0018,1.0254,1.0796,1.0891,1.1159,1.1696,1.1846,1.1995,1.222,1.2271,1.2305,1.2305,1.2305,1.2305,1.2305,1.2305,1.2305,1.2311,1.2701,1.3002,1.3217,1.3543,1.3857,1.4099,1.4099,1.4099,1.4119,1.4338,1.4667,1.5024,1.5235,1.5531,1.5808,1.5808,1.5808,1.5808,1.5808,1.5808,1.5808,1.5808,1.5808,1.5928,1.6527,1.6707,1.684,1.7441,1.7595,1.7595,1.7595,1.7595,1.7595,1.7595,1.7595,1.7595,1.7595,1.7595,1.7595,1.7595,1.7595,1.7595,1.7595,1.7809,1.8304,1.9274,1.9395,1.9395,1.9395,1.9395,1.9395,1.9395,1.9395,1.9395,1.9395,1.9395,1.9395,1.9395,1.9395,1.9421,1.9481,1.9481,1.9494,1.9547,1.9841,1.9907,1.9806,2.0085,2.0204,0.0,0.0,0.0,0.0,0.2942,0.0,0.0,0.0,0.2736,0.2872,0.0,0.3012,0.3314,0.0,0.0,0.4327,0.4875,0.5549,0.6418,0.6949,0.7665,0.8771,0.8898,0.9125,0.9694,0.9747,0.9874,1.0179,1.0484,1.0787,1.1092,1.1616,1.1911,1.1944,1.218,1.2305,1.2305,1.2305,1.2305,1.2305,1.2305,1.2305,1.2318,1.2893,1.317,1.323,1.3794,1.4055,1.4099,1.4099,1.4099,1.4099,1.4132,1.4497,1.5004,1.503,1.5369,1.5808,1.5808,1.5808,1.5808,1.5808,1.5808,1.5808,1.5808,1.5808,1.5928,1.6527,1.6707,1.684,1.7441,1.7595,1.7595,1.7595,1.7595,1.7595,1.7595,1.7595,1.7595,1.7595,1.7595,1.7595,1.7595,1.7595,1.7595,1.7595,1.8511,1.9241,1.9381,1.9395,1.9395,1.9395,1.9395,1.9395,1.9395,1.9395,1.9395,1.9395,1.9395,1.9395,1.9395,1.9395,1.9507,1.9746,1.9746,1.9873,2.0104,2.0434,2.0323,1.9806,2.0085,2.0204,0.0,0.0,0.0,0.0,0.0,0.0,0.2733,0.0,0.2832,0.0,0.0,0.0,0.0,0.0,0.0,0.0,0.4531,0.5165,0.5838,0.6344,0.7055,0.8149,0.8278,0.8518,0.9118,0.9318,0.9532,0.984,0.9995,1.0285,1.0739,1.1161,1.1534,1.1893,1.2009,1.214,1.2305,1.2305,1.2305,1.2305,1.2305,1.2401,1.2593,1.2855,1.3143,1.3453,1.37,1.3918,1.4099,1.4099,1.4099,1.4099,1.4099,1.4464,1.4997,1.4997,1.5342,1.5808,1.5808,1.5808,1.5808,1.5808,1.5808,1.5808,1.5808,1.594,1.6185,1.6574,1.6846,1.7086,1.7488,1.7595,1.7595,1.7595,1.7595,1.7595,1.7595,1.7595,1.7702,1.8056,1.7836,1.7595,1.7595,1.7595,1.7595,1.7595,1.8632,1.9395,1.9395,1.9395,1.9395,1.9395,1.9395,1.9395,1.9395,1.9395,1.9395,1.9395,1.9395,1.9395,1.9395,1.9547,1.9694,1.98,1.9952,2.0092,2.0204,2.0535,2.0563,2.0329,2.0608,2.0726,0.3808,0.0,0.0,0.0,0.0,0.0,0.0,0.0,0.0,0.0,0.0,0.0,0.0,0.0,0.0,0.0,0.0,0.4847,0.5385,0.5942,0.6662,0.7673,0.7937,0.8177,0.8518,0.8811,0.9111,0.9426,0.9453,0.9747,1.0432,1.0731,1.1159,1.1739,1.1848,1.2029,1.2298,1.2305,1.2305,1.2305,1.2394,1.256,1.28,1.2948,1.3233,1.3606,1.3697,1.3877,1.4099,1.4099,1.4099,1.4105,1.4186,1.4527,1.4997,1.4997,1.5342,1.5808,1.5808,1.5808,1.5808,1.5808,1.5808,1.5821,1.5913,1.6118,1.6377,1.6733,1.7006,1.7253,1.7535,1.7595,1.7595,1.7595,1.7595,1.7595,1.7595,1.7595,1.7756,1.8317,1.8237,1.8083,1.8083,1.7816,1.7595,1.7595,1.8632,1.9395,1.9395,1.9395,1.9395,1.9395,1.9395,1.9395,1.9395,1.9395,1.9395,1.9395,1.9395,1.9435,1.9515,1.9701,1.988,2.004,2.0247,2.0364,2.0444,2.0688,2.0811,2.0817,2.1009,2.1093,0.0,0.0,0.0,0.3214,0.0,0.0,0.0,0.0,0.2977,0.0,0.0,0.0,0.0,0.0,0.0,0.0,0.0,0.0,0.0,0.5633,0.6388,0.7391,0.8033,0.8263,0.7953,0.8229,0.8537,0.8811,0.8831,0.9205,1.0072,1.043,1.0858,1.1397,1.1726,1.2029,1.2298,1.2305,1.2305,1.2295,1.263,1.2787,1.2813,1.3337,1.3586,1.362,1.3938,1.4092,1.4099,1.4099,1.4099,1.4126,1.4385,1.4707,1.4997,1.4997,1.5342,1.5808,1.5808,1.5808,1.5808,1.5808,1.5808,1.5861,1.6185,1.629,1.6417,1.7025,1.7192,1.7253,1.7535,1.7595,1.7595,1.7595,1.7595,1.7595,1.7595,1.7595,1.7715,1.8123,1.8818,1.9341,1.9341,1.8364,1.7595,1.7595,1.8632,1.9395,1.9395,1.9395,1.9395,1.9395,1.9395,1.9395,1.9395,1.9395,1.9395,1.9395,1.9395,1.9522,1.9773,1.98,2.0067,2.0666,2.0677,2.0817,2.1066,2.1073,2.1096,2.1096,2.1109,2.1093,0.4383,0.4398,0.4324,0.4032,0.3893,0.3734,0.0,0.0,0.0,0.0,0.0,0.0,0.0,0.0,0.0,0.0,0.0,0.0,0.0,0.6081,0.6785,0.7129,0.0,0.0,0.7627,0.7739,0.8007,0.8496,0.8537,0.8918,0.9794,1.0107,1.0542,1.1122,1.1414,1.1717,1.2029,1.2214,1.2305,1.2295,1.2643,1.2891,1.3076,1.3447,1.3717,1.3941,1.4052,1.4099,1.4099,1.4099,1.4099,1.4126,1.4398,1.4703,1.5017,1.52,1.5486,1.5808,1.5808,1.5808,1.5808,1.5808,1.5953,1.6151,1.627,1.6584,1.6945,1.7146,1.7327,1.7488,1.7582,1.7595,1.7595,1.7595,1.7595,1.7655,1.7836,1.7862,1.8016,1.8563,1.8844,1.9093,1.9354,1.906,1.8792,1.8792,1.914,1.9395,1.9395,1.9395,1.9395,1.9395,1.9395,1.9395,1.9395,1.9395,1.9395,1.9395,1.9561,1.9714,1.98,2.0189,2.049,2.0706,2.0862,2.1009,2.1093,2.1093,2.1093,2.1093,2.1093,2.1093,0.488,0.5065,0.5209,0.5129,0.4978,0.4707,0.4188,0.4196,0.4345,0.0,0.0,0.0,0.0,0.0,0.0,0.0,0.0,0.0,0.0,0.6404,0.0,0.0,0.0,0.0,0.0,0.7513,0.7766,0.806,0.8169,0.8564,0.9339,0.9632,1.0112,1.0831,1.1214,1.1561,1.1899,1.2167,1.2361,1.2484,1.2785,1.3083,1.3353,1.3637,1.3897,1.4099,1.4099,1.4099,1.4099,1.4099,1.4159,1.4269,1.4563,1.4868,1.516,1.5342,1.5566,1.5808,1.5808,1.5808,1.5808,1.5808,1.6032,1.6317,1.6405,1.6805,1.7226,1.7313,1.7468,1.7595,1.7595,1.7595,1.7595,1.7595,1.7595,1.7669,1.7936,1.8009,1.8182,1.8783,1.8878,1.8959,1.9334,1.9395,1.9395,1.9395,1.9395,1.9395,1.9395,1.9395,1.9395,1.9395,1.9395,1.9395,1.9395,1.9488,1.9534,1.9534,1.9793,2.0,2.0122,2.049,2.0737,2.0844,2.1015,2.1093,2.1093,2.1093,2.1093,2.1093,2.1093,2.1093]}]]